[[{"header":{"parameterUnit":"m.s-1","parameterCategory":1,"la1":30.6,"la2":29.2853,"lo1":-89.7004,"lo2":-87.6739,"dy":0.0162,"dx":0.0183,"nx":112,"ny":82,"refTime":"2024-06-12T00:00:00:Z","depth":0,"parameterNumber":2,"parameterNumberName":"U-component_of_WINDS"},"data":[0.0,0.0,0.0,0.0,0.0,0.0,0.0,0.0,0.0,0.0,0.0,0.0,0.0,0.0,0.0,0.0,0.0,0.0,0.0,0.0,0.0,0.0,0.0,0.0,0.0,0.0,0.0,0.0,0.0,0.0,0.0,0.0,0.0,0.0,0.0,0.0,0.0,0.0,0.0,0.0,0.0,0.0,0.0,0.0,0.0,0.0,0.0,0.0,0.0,0.0,0.0,0.0,0.0,0.0,0.0,0.0,0.0,0.0,0.0,0.0,0.0,0.0,0.0,0.0,0.0,0.0,0.0,0.0,0.0,0.0,0.0,0.0,0.0,0.0,0.0,0.0,0.0,0.0,0.0,0.0,0.0,0.0,0.0,0.0,0.0,0.0,0.0,0.0,0.0,0.0,-5.1861,-5.3653,-5.5856,-5.6878,-5.6062,-5.6269,-5.5168,-5.2303,0.0,0.0,0.0,0.0,0.0,0.0,0.0,0.0,0.0,0.0,0.0,0.0,0.0,0.0,0.0,0.0,0.0,0.0,0.0,0.0,0.0,0.0,0.0,0.0,0.0,0.0,0.0,0.0,0.0,0.0,0.0,0.0,0.0,0.0,0.0,0.0,0.0,0.0,0.0,0.0,0.0,0.0,0.0,0.0,0.0,0.0,0.0,0.0,0.0,0.0,0.0,0.0,0.0,0.0,0.0,0.0,0.0,0.0,0.0,0.0,0.0,0.0,0.0,0.0,0.0,0.0,0.0,0.0,0.0,0.0,0.0,0.0,0.0,0.0,0.0,0.0,0.0,0.0,0.0,0.0,0.0,0.0,0.0,0.0,0.0,0.0,0.0,0.0,0.0,0.0,0.0,0.0,0.0,0.0,0.0,0.0,0.0,0.0,0.0,0.0,0.0,0.0,0.0,0.0,-5.2134,-5.5039,-5.6835,-5.7207,-5.5853,-5.596,-5.4804,-5.1804,0.0,0.0,0.0,0.0,0.0,0.0,0.0,0.0,0.0,0.0,0.0,0.0,0.0,0.0,0.0,0.0,0.0,0.0,0.0,0.0,0.0,0.0,0.0,0.0,0.0,0.0,0.0,0.0,0.0,0.0,0.0,0.0,0.0,0.0,0.0,0.0,0.0,0.0,0.0,0.0,0.0,0.0,0.0,0.0,0.0,0.0,0.0,0.0,0.0,0.0,0.0,0.0,0.0,0.0,0.0,0.0,0.0,0.0,0.0,0.0,0.0,0.0,0.0,0.0,0.0,0.0,0.0,0.0,0.0,0.0,0.0,0.0,0.0,0.0,0.0,0.0,0.0,0.0,0.0,0.0,0.0,0.0,0.0,0.0,0.0,0.0,0.0,0.0,0.0,0.0,0.0,0.0,0.0,0.0,0.0,0.0,0.0,0.0,0.0,0.0,0.0,0.0,0.0,-5.1328,-5.3606,-5.5051,-5.6376,-5.6723,-5.5641,-5.4972,-5.372,-5.1481,-4.9971,0.0,0.0,0.0,0.0,0.0,0.0,0.0,0.0,0.0,0.0,0.0,0.0,0.0,0.0,0.0,0.0,0.0,0.0,0.0,0.0,0.0,0.0,0.0,0.0,0.0,0.0,0.0,0.0,0.0,0.0,0.0,0.0,0.0,0.0,0.0,0.0,0.0,0.0,0.0,0.0,0.0,0.0,0.0,0.0,0.0,0.0,0.0,0.0,0.0,0.0,0.0,0.0,0.0,0.0,0.0,0.0,0.0,0.0,0.0,0.0,0.0,0.0,0.0,0.0,0.0,0.0,0.0,0.0,0.0,0.0,0.0,0.0,0.0,0.0,0.0,0.0,0.0,0.0,0.0,0.0,0.0,0.0,0.0,0.0,0.0,0.0,0.0,0.0,0.0,0.0,0.0,0.0,0.0,0.0,0.0,0.0,0.0,0.0,0.0,0.0,0.0,0.0,-5.2338,-5.4173,-5.4376,-5.5372,-5.5758,-5.5091,-5.4056,-5.2774,-5.1286,-4.9212,0.0,0.0,0.0,0.0,0.0,0.0,0.0,0.0,0.0,0.0,0.0,0.0,0.0,0.0,0.0,0.0,0.0,0.0,0.0,0.0,0.0,0.0,0.0,0.0,0.0,0.0,0.0,0.0,0.0,0.0,0.0,0.0,0.0,0.0,0.0,0.0,0.0,0.0,0.0,0.0,0.0,0.0,0.0,0.0,0.0,0.0,0.0,0.0,0.0,0.0,0.0,0.0,0.0,0.0,0.0,0.0,0.0,0.0,0.0,0.0,0.0,0.0,0.0,0.0,0.0,0.0,0.0,0.0,0.0,0.0,0.0,0.0,0.0,0.0,0.0,0.0,0.0,0.0,0.0,0.0,0.0,0.0,0.0,0.0,0.0,0.0,0.0,0.0,0.0,0.0,0.0,0.0,0.0,0.0,0.0,0.0,0.0,0.0,0.0,0.0,0.0,0.0,-5.0801,-5.2339,-5.3144,-5.4059,-5.4482,-5.4109,-5.3547,-5.264,-5.1286,-4.9154,0.0,0.0,0.0,0.0,0.0,0.0,0.0,0.0,0.0,0.0,0.0,0.0,0.0,0.0,0.0,0.0,0.0,0.0,0.0,0.0,0.0,0.0,0.0,0.0,0.0,0.0,0.0,0.0,0.0,0.0,0.0,0.0,0.0,0.0,0.0,0.0,0.0,0.0,0.0,0.0,0.0,0.0,0.0,0.0,0.0,0.0,0.0,0.0,0.0,0.0,0.0,0.0,0.0,0.0,0.0,0.0,0.0,0.0,0.0,0.0,0.0,0.0,0.0,0.0,0.0,0.0,0.0,0.0,0.0,0.0,0.0,0.0,0.0,0.0,0.0,0.0,0.0,0.0,0.0,0.0,0.0,0.0,0.0,0.0,0.0,0.0,0.0,0.0,0.0,0.0,0.0,0.0,0.0,0.0,0.0,0.0,0.0,0.0,0.0,0.0,0.0,0.0,-4.9515,-5.1013,0.0,-5.2742,-5.3296,-5.3437,-5.2226,-5.1128,-5.0382,0.0,0.0,0.0,0.0,0.0,0.0,0.0,0.0,0.0,0.0,0.0,0.0,0.0,0.0,0.0,0.0,0.0,0.0,0.0,0.0,0.0,0.0,0.0,0.0,0.0,0.0,0.0,0.0,0.0,0.0,0.0,0.0,0.0,0.0,0.0,0.0,0.0,0.0,0.0,0.0,0.0,0.0,0.0,0.0,0.0,0.0,0.0,0.0,0.0,0.0,0.0,0.0,0.0,0.0,0.0,0.0,0.0,0.0,0.0,0.0,0.0,0.0,0.0,0.0,0.0,0.0,0.0,0.0,0.0,0.0,0.0,0.0,0.0,0.0,0.0,0.0,0.0,0.0,0.0,0.0,0.0,0.0,0.0,0.0,0.0,0.0,0.0,0.0,0.0,0.0,0.0,0.0,0.0,0.0,0.0,0.0,0.0,0.0,0.0,0.0,0.0,0.0,-4.6609,-4.8122,-4.9387,0.0,-5.1229,-5.1777,-5.2305,-5.093,-4.9857,-4.9589,0.0,0.0,0.0,0.0,0.0,0.0,0.0,0.0,0.0,0.0,0.0,0.0,0.0,0.0,0.0,0.0,0.0,0.0,0.0,0.0,0.0,0.0,0.0,0.0,0.0,0.0,0.0,0.0,0.0,0.0,0.0,0.0,0.0,0.0,0.0,0.0,0.0,0.0,0.0,0.0,0.0,0.0,0.0,0.0,0.0,0.0,0.0,0.0,0.0,0.0,0.0,0.0,0.0,0.0,0.0,0.0,0.0,0.0,0.0,0.0,0.0,0.0,0.0,0.0,0.0,0.0,0.0,0.0,0.0,0.0,0.0,0.0,0.0,0.0,0.0,0.0,0.0,0.0,0.0,0.0,0.0,0.0,0.0,0.0,0.0,0.0,0.0,0.0,0.0,0.0,0.0,0.0,0.0,0.0,0.0,0.0,0.0,0.0,0.0,0.0,0.0,0.0,-4.5917,-4.6484,-4.7256,-4.9094,-4.9493,-4.99,-5.0723,-4.9775,-4.9134,0.0,0.0,0.0,0.0,0.0,0.0,0.0,0.0,0.0,0.0,0.0,0.0,0.0,0.0,0.0,0.0,0.0,0.0,0.0,0.0,0.0,0.0,0.0,0.0,0.0,0.0,0.0,0.0,0.0,0.0,0.0,0.0,0.0,0.0,0.0,0.0,0.0,0.0,0.0,0.0,0.0,0.0,0.0,0.0,0.0,0.0,0.0,0.0,0.0,0.0,0.0,0.0,0.0,0.0,0.0,0.0,0.0,0.0,0.0,0.0,0.0,0.0,0.0,0.0,0.0,0.0,0.0,0.0,0.0,0.0,0.0,0.0,0.0,0.0,0.0,0.0,0.0,0.0,0.0,0.0,0.0,0.0,0.0,0.0,0.0,0.0,0.0,0.0,0.0,0.0,0.0,0.0,0.0,0.0,0.0,0.0,0.0,0.0,0.0,0.0,0.0,0.0,0.0,-4.4599,-4.5526,-4.6559,-4.819,-4.8687,-4.896,-4.9173,-4.8586,-4.7786,-4.6808,0.0,0.0,0.0,0.0,0.0,0.0,0.0,0.0,0.0,0.0,0.0,0.0,0.0,0.0,0.0,0.0,0.0,0.0,0.0,0.0,0.0,0.0,0.0,0.0,0.0,0.0,0.0,0.0,0.0,0.0,0.0,0.0,0.0,0.0,0.0,0.0,0.0,0.0,0.0,0.0,0.0,0.0,0.0,0.0,0.0,0.0,0.0,0.0,0.0,0.0,0.0,0.0,0.0,0.0,0.0,0.0,0.0,0.0,0.0,0.0,0.0,0.0,0.0,0.0,0.0,0.0,0.0,0.0,0.0,0.0,0.0,0.0,0.0,0.0,0.0,0.0,0.0,0.0,0.0,0.0,0.0,0.0,0.0,0.0,0.0,0.0,0.0,0.0,0.0,0.0,0.0,0.0,0.0,0.0,0.0,0.0,0.0,0.0,0.0,0.0,0.0,0.0,-4.3718,-4.4858,-4.6015,-4.7322,-4.7909,-4.8162,-4.8022,-4.7606,-4.6743,-4.5304,0.0,0.0,0.0,0.0,0.0,0.0,0.0,0.0,0.0,0.0,0.0,0.0,0.0,0.0,0.0,0.0,0.0,0.0,0.0,0.0,0.0,0.0,0.0,0.0,0.0,0.0,0.0,0.0,0.0,0.0,0.0,0.0,0.0,0.0,0.0,0.0,0.0,0.0,0.0,0.0,0.0,0.0,0.0,0.0,0.0,0.0,0.0,0.0,0.0,0.0,0.0,0.0,0.0,0.0,0.0,0.0,0.0,0.0,0.0,0.0,0.0,0.0,0.0,0.0,0.0,0.0,0.0,0.0,0.0,0.0,0.0,0.0,0.0,0.0,0.0,0.0,0.0,0.0,0.0,0.0,0.0,0.0,0.0,0.0,0.0,0.0,0.0,0.0,0.0,0.0,0.0,0.0,0.0,0.0,0.0,0.0,0.0,0.0,0.0,0.0,0.0,0.0,-4.3011,-4.4396,-4.5585,-4.6425,-4.7159,-4.745,-4.718,-4.6741,-4.5835,-4.4283,0.0,0.0,0.0,0.0,0.0,0.0,0.0,0.0,0.0,0.0,0.0,0.0,0.0,0.0,0.0,0.0,0.0,0.0,0.0,0.0,0.0,0.0,0.0,0.0,0.0,0.0,0.0,0.0,0.0,0.0,0.0,0.0,0.0,0.0,0.0,0.0,0.0,0.0,0.0,0.0,0.0,0.0,0.0,0.0,0.0,0.0,0.0,0.0,0.0,0.0,0.0,0.0,0.0,0.0,0.0,0.0,0.0,0.0,0.0,0.0,-4.2545,0.0,0.0,0.0,0.0,0.0,0.0,0.0,0.0,0.0,0.0,0.0,0.0,0.0,0.0,0.0,0.0,0.0,0.0,0.0,0.0,0.0,0.0,0.0,0.0,0.0,0.0,0.0,0.0,0.0,0.0,0.0,0.0,0.0,0.0,0.0,0.0,0.0,0.0,0.0,0.0,0.0,-4.1952,-4.3801,-4.5364,-4.6062,-4.6847,-4.6971,-4.6059,-4.5858,-4.4917,-4.2806,-4.271,0.0,0.0,0.0,0.0,0.0,0.0,0.0,0.0,0.0,0.0,0.0,0.0,0.0,0.0,0.0,0.0,0.0,0.0,0.0,0.0,0.0,0.0,0.0,0.0,0.0,0.0,0.0,0.0,0.0,0.0,0.0,0.0,0.0,0.0,0.0,0.0,0.0,0.0,0.0,0.0,0.0,0.0,0.0,0.0,0.0,0.0,0.0,0.0,0.0,0.0,0.0,0.0,0.0,0.0,0.0,0.0,0.0,0.0,0.0,0.0,-4.2924,0.0,0.0,0.0,0.0,0.0,0.0,0.0,0.0,0.0,0.0,0.0,0.0,0.0,0.0,0.0,0.0,0.0,0.0,0.0,0.0,0.0,0.0,0.0,0.0,0.0,0.0,0.0,0.0,0.0,0.0,0.0,0.0,0.0,0.0,0.0,0.0,0.0,0.0,0.0,0.0,-4.1309,-4.3301,-4.4824,-4.5148,-4.61,-4.6284,-4.5394,-4.5128,-4.4238,-4.2493,-4.221,0.0,0.0,0.0,0.0,0.0,0.0,0.0,0.0,0.0,0.0,0.0,0.0,0.0,0.0,0.0,0.0,0.0,0.0,0.0,0.0,0.0,0.0,0.0,0.0,0.0,0.0,0.0,0.0,0.0,0.0,0.0,0.0,0.0,0.0,0.0,0.0,0.0,0.0,0.0,0.0,0.0,0.0,0.0,0.0,0.0,0.0,0.0,0.0,0.0,0.0,0.0,0.0,0.0,-4.5459,-4.5706,-4.5678,-4.5565,-4.5532,-4.5447,-4.4357,-4.3903,-4.3864,-4.3544,0.0,0.0,0.0,0.0,0.0,0.0,0.0,0.0,0.0,0.0,0.0,0.0,0.0,0.0,0.0,0.0,0.0,0.0,0.0,0.0,0.0,0.0,0.0,0.0,-3.676,-3.721,0.0,0.0,0.0,0.0,0.0,0.0,0.0,0.0,0.0,0.0,0.0,0.0,-4.0596,-4.2605,-4.3935,-4.3934,-4.5036,-4.5483,-4.4756,-4.4411,-4.3748,-4.2556,-4.2092,-4.1579,0.0,0.0,0.0,0.0,0.0,0.0,0.0,0.0,0.0,0.0,0.0,0.0,0.0,0.0,0.0,0.0,0.0,0.0,0.0,0.0,0.0,0.0,0.0,0.0,0.0,0.0,0.0,0.0,0.0,0.0,0.0,0.0,-4.093,-4.1232,0.0,0.0,0.0,0.0,0.0,0.0,0.0,0.0,0.0,0.0,0.0,0.0,0.0,-4.4702,-4.4602,-4.4229,-4.395,-4.3926,-4.395,-4.4001,-4.4001,-4.3972,-4.3996,-4.3996,-4.3805,0.0,-4.3951,-4.3938,0.0,0.0,0.0,0.0,0.0,0.0,0.0,0.0,0.0,0.0,0.0,0.0,0.0,0.0,0.0,0.0,0.0,0.0,0.0,0.0,0.0,0.0,-3.7715,-3.7715,-3.8217,-3.8791,0.0,-3.7978,-3.7122,-3.7491,-3.7575,0.0,0.0,0.0,0.0,0.0,0.0,0.0,-3.9283,-4.129,-4.2644,-4.2323,-4.3965,-4.4632,-4.3617,-4.3844,-4.3467,-4.2168,-4.2213,-4.176,-4.0568,-3.9787,0.0,0.0,0.0,0.0,0.0,0.0,0.0,0.0,0.0,0.0,0.0,0.0,0.0,0.0,0.0,0.0,0.0,0.0,0.0,0.0,0.0,0.0,0.0,0.0,0.0,0.0,0.0,0.0,0.0,-4.0394,-4.124,-4.2123,-4.2619,-4.296,0.0,0.0,0.0,0.0,0.0,0.0,0.0,0.0,0.0,-4.5998,-4.5848,-4.5661,-4.5284,-4.5068,-4.485,-4.4713,-4.485,-4.4959,-4.4959,-4.5148,-4.5202,-4.5176,-4.4861,-4.4597,-4.4339,-4.3891,-4.3452,-4.3027,0.0,0.0,0.0,0.0,-4.0727,-4.0074,-3.9881,-3.932,0.0,-3.8443,0.0,0.0,0.0,0.0,0.0,0.0,0.0,0.0,0.0,0.0,-3.7931,-3.7931,-3.8206,-3.8481,-3.8481,-3.7932,-3.7479,0.0,-3.7714,-3.7721,-3.7439,0.0,0.0,0.0,0.0,-3.8673,-3.9131,-4.0668,-4.1635,-4.1467,-4.2705,-4.3281,-4.2553,-4.2644,-4.2497,-4.2034,-4.1882,-4.141,-4.0436,-3.9898,-3.932,0.0,0.0,0.0,0.0,0.0,0.0,0.0,0.0,0.0,0.0,0.0,0.0,0.0,0.0,0.0,0.0,0.0,0.0,0.0,0.0,0.0,0.0,0.0,0.0,0.0,0.0,0.0,0.0,-4.0772,-4.1414,-4.2736,-4.3154,-4.3415,0.0,0.0,0.0,0.0,0.0,0.0,-4.5607,-4.6384,-4.6538,-4.596,-4.6186,-4.6139,-4.5685,-4.5628,-4.5457,-4.5253,-4.5457,-4.5571,-4.5571,-4.5799,-4.5912,-4.5887,-4.5473,-4.5059,-4.4652,-4.3883,-4.3299,-4.2883,-4.3013,-4.2634,-4.1988,-4.1957,-4.1431,-4.0683,-4.0334,-3.9854,-3.9377,-3.9017,0.0,-3.8697,-3.7927,0.0,0.0,0.0,0.0,-3.7387,-3.7387,-3.7814,-3.8241,-3.8241,-3.8341,-3.8442,-3.8442,-3.8442,-3.8362,0.0,-3.8059,-3.7958,-3.7213,0.0,0.0,0.0,0.0,-3.8292,-3.9116,-4.0174,-4.0696,-4.0421,-4.1361,-4.1775,-4.1259,-4.1341,-4.1464,-4.1603,-4.1488,-4.1058,-4.0419,-3.9974,-3.9446,-3.8764,0.0,0.0,0.0,0.0,0.0,0.0,0.0,0.0,0.0,0.0,0.0,0.0,0.0,0.0,0.0,0.0,0.0,0.0,0.0,0.0,0.0,0.0,0.0,0.0,0.0,0.0,0.0,0.0,0.0,-4.1709,-4.2751,0.0,0.0,0.0,0.0,-4.5454,-4.6032,-4.6372,-4.6346,-4.6117,-4.5917,-4.5917,-4.5457,-4.5138,-4.5164,-4.4792,-4.4676,-4.4618,-4.4676,-4.4676,-4.4676,-4.4676,-4.4676,-4.4676,-4.4651,-4.4626,-4.4591,-4.4028,-4.3599,-4.3227,-4.2647,-4.256,-4.2578,-4.1267,-4.0601,-4.0207,-3.944,-3.8871,-3.8458,-3.8409,-3.8261,-3.8064,-3.7965,-3.7939,0.0,0.0,-3.7939,-3.7965,-3.7965,-3.8391,-3.8818,-3.8818,-3.922,-3.9597,-3.9597,-3.9597,-3.9372,0.0,-3.8382,-3.8503,-3.891,0.0,-3.8981,-3.9006,-3.9006,-3.8962,-3.8871,-3.9556,-3.9722,-3.8914,-3.9914,-4.031,-3.939,-4.0158,-4.0659,-4.0702,-4.1071,-4.1009,-4.0339,-4.0009,-3.9377,-3.8549,-3.7659,0.0,0.0,0.0,0.0,0.0,0.0,0.0,0.0,0.0,0.0,0.0,0.0,0.0,0.0,0.0,0.0,0.0,0.0,0.0,0.0,0.0,0.0,0.0,0.0,0.0,0.0,0.0,0.0,-4.3002,-4.3695,0.0,-4.4193,-4.4832,-4.5232,-4.5232,-4.5942,-4.6489,-4.6616,-4.6524,-4.6527,-4.6679,-4.6137,-4.5876,-4.5876,-4.5757,-4.5698,-4.5698,-4.5698,-4.5698,-4.5698,-4.5698,-4.5698,-4.5698,-4.5321,-4.5171,-4.5095,-4.4516,-4.3913,-4.3344,-4.315,-4.2762,-4.2294,-4.1982,-4.157,-4.1182,-4.0875,-4.054,-4.0203,-3.9851,-3.9196,-3.8567,-3.8567,-3.8291,-3.8015,-3.8015,-3.8266,-3.8567,-3.8567,-3.8969,-3.9396,-3.9396,-3.9546,-3.9697,-3.9697,-3.9697,-3.9623,-3.9272,-3.8969,-3.8641,-3.841,-3.8383,-3.8383,-3.8383,-3.8383,-3.8536,-3.8817,-3.9244,-3.9418,-3.9032,-3.941,-3.947,-3.8958,-3.8988,-3.9104,-3.921,-3.9738,-3.9707,-3.9057,-3.8977,-3.8564,-3.7665,-3.7257,-3.6703,0.0,0.0,0.0,0.0,0.0,0.0,0.0,0.0,0.0,0.0,0.0,0.0,0.0,0.0,0.0,0.0,0.0,0.0,0.0,0.0,0.0,0.0,0.0,0.0,0.0,0.0,-4.3263,-4.3991,-4.4568,-4.492,-4.492,-4.5422,-4.5767,-4.5767,-4.6451,-4.6993,-4.7106,-4.7157,-4.7212,-4.738,-4.7029,-4.6753,-4.6602,-4.6602,-4.6502,-4.6301,-4.6301,-4.6301,-4.6301,-4.6301,-4.6301,-4.6301,-4.5924,-4.5773,-4.5723,-4.5146,-4.4608,-4.4049,-4.3708,-4.3172,-4.2652,-4.2485,-4.2172,-4.185,-4.1648,-4.1436,-4.1225,-4.0902,-4.0174,-3.9421,-3.9421,-3.9019,-3.8567,-3.8567,-3.8843,-3.9145,-3.9145,-3.9421,-3.9697,-3.9697,-3.9697,-3.9697,-3.9697,-3.9697,-3.9697,-3.9697,-3.9396,-3.9019,-3.8642,-3.8567,-3.8567,-3.8567,-3.8567,-3.8718,-3.9094,-3.9297,-3.9348,-3.9121,-3.9011,-3.8762,-3.8338,-3.8095,-3.8031,-3.8115,-3.8567,-3.8631,-3.8299,-3.8226,-3.7838,-3.707,-3.6503,-3.6047,-3.5708,0.0,0.0,0.0,0.0,0.0,0.0,0.0,0.0,0.0,0.0,0.0,0.0,0.0,0.0,0.0,0.0,0.0,0.0,0.0,0.0,0.0,0.0,0.0,-4.2986,-4.3011,-4.3463,-4.4518,-4.5171,-4.5547,-4.5547,-4.6527,-4.7093,-4.7093,-4.7631,-4.7908,-4.7933,-4.7908,-4.7908,-4.7933,-4.7908,-4.7657,-4.7093,-4.7093,-4.6853,-4.6326,-4.6326,-4.6301,-4.6301,-4.6301,-4.6301,-4.6301,-4.6301,-4.6301,-4.6276,-4.5723,-4.5522,-4.5397,-4.4267,-4.3815,-4.3664,-4.2665,-4.2263,-4.2162,-4.158,-4.1326,-4.13,-4.13,-4.0949,-4.0551,-4.0551,-4.0174,-3.9747,-3.9722,-3.9722,-3.9722,-3.9697,-3.9697,-3.9697,-3.9697,-3.9697,-3.9697,-3.9697,-3.9697,-3.9697,-3.9697,-3.9697,-3.9697,-3.9697,-3.9697,-3.9697,-3.9697,-3.9697,0.0,-3.9697,-3.9697,-3.9496,-3.8994,-3.864,-3.8231,-3.7673,-3.754,-3.7485,-3.7459,-3.7638,-3.7913,-3.8167,-3.7767,-3.7316,-3.6747,-3.5413,-3.5038,-3.5659,0.0,0.0,0.0,0.0,0.0,0.0,0.0,0.0,0.0,0.0,0.0,0.0,0.0,0.0,0.0,0.0,0.0,0.0,0.0,0.0,0.0,0.0,-4.2986,-4.2986,-4.4041,-4.492,-4.5221,-4.61,-4.6677,-4.6677,-4.7305,-4.7682,-4.7682,-4.7832,-4.8083,-4.851,-4.8134,-4.8109,-4.851,-4.8134,-4.7832,-4.7682,-4.733,-4.7054,-4.6903,-4.6502,-4.6301,-4.6301,-4.6301,-4.6301,-4.6301,-4.6301,-4.6301,-4.6301,-4.615,-4.6075,-4.5974,-4.4844,-4.4141,-4.3765,-4.3463,-4.3087,-4.2791,-4.2585,-4.2258,-4.1932,-4.1932,-4.1555,-4.1075,-4.1075,-4.0949,-4.0802,-4.04,-4.03,-4.0199,-3.9798,-3.9697,-3.9697,-3.9697,-3.9697,-3.9697,-3.9697,-3.9697,-3.9697,-3.9697,-3.9697,-3.9697,-3.9697,-3.9697,-3.9697,-3.9697,-3.9697,0.0,-3.9697,-3.9697,-3.9647,-3.9471,-3.907,-3.8516,-3.7937,-3.7528,-3.7118,-3.6713,-3.6896,-3.7129,-3.7387,-3.7254,-3.6806,-3.5976,-3.5431,-3.508,0.0,0.0,0.0,0.0,0.0,0.0,0.0,0.0,0.0,0.0,0.0,0.0,0.0,0.0,0.0,0.0,0.0,0.0,0.0,0.0,0.0,0.0,-4.3714,-4.4116,-4.4342,-4.5221,-4.5924,-4.615,-4.6928,-4.7456,-4.7456,-4.7958,-4.8259,-4.8259,-4.8485,-4.8761,-4.9113,-4.8786,-4.8761,-4.9113,-4.8786,-4.851,-4.8259,-4.7983,-4.7581,-4.7068,-4.6803,-4.6527,-4.6301,-4.6301,-4.6301,0.0,-4.6301,-4.6301,-4.6301,-4.6301,-4.6301,0.0,0.0,0.0,0.0,0.0,-4.3463,-4.2986,-4.2986,-4.2816,-4.2564,-4.2564,-4.2133,-4.1681,-4.1681,-4.153,-4.1225,-4.0899,-4.0852,-4.0724,-4.0475,-4.0375,-4.0375,-4.0375,-4.0199,-4.0049,-4.0049,-3.9848,-3.9697,-3.9697,-3.9697,0.0,-3.9697,-3.9697,-3.9697,-3.9697,-3.9697,-3.9697,-3.9697,-3.9697,-3.9697,-3.9697,-3.9195,-3.8793,-3.8391,-3.7638,0.0,0.0,0.0,-3.6687,-3.6922,-3.6799,0.0,0.0,0.0,0.0,0.0,0.0,0.0,0.0,-3.6942,-3.7521,0.0,0.0,0.0,0.0,0.0,0.0,0.0,0.0,0.0,0.0,0.0,0.0,0.0,0.0,0.0,0.0,-4.492,-4.5799,-4.6401,-4.6552,-4.6753,-4.7179,-4.7682,-4.8008,-4.8008,-4.8535,-4.8887,-4.8962,-4.9364,-4.9615,-4.969,0.0,0.0,0.0,0.0,-4.9364,-4.8862,-4.8812,-4.8284,-4.7305,-4.7143,-4.6878,-4.6401,-4.6326,-4.6301,-4.6301,-4.6301,-4.6301,-4.6301,-4.6301,-4.6301,-4.625,-4.5698,-4.5497,-4.5347,-4.4217,-4.3489,-4.3062,-4.3011,0.0,0.0,-4.2986,-4.2715,-4.2313,-4.2313,-4.1907,-4.1451,-4.1401,-4.1376,-4.1376,-4.13,-4.1275,-4.1275,-4.1275,-4.0924,-4.0601,-4.0601,-4.0174,-3.9798,-3.9798,-3.9747,-3.9697,-3.9697,-3.9697,-3.9697,-3.9697,-3.9697,-3.9697,-3.9697,-3.9697,-3.9697,-3.9697,0.0,0.0,-3.8919,-3.7939,-3.7312,-3.7186,-3.6707,-3.6499,-3.6662,-3.6483,-3.6339,-3.6263,-3.5731,-3.5494,-3.5594,-3.5672,-3.5786,-3.6033,-3.6507,-3.7059,0.0,0.0,0.0,0.0,0.0,0.0,0.0,0.0,0.0,0.0,0.0,0.0,0.0,0.0,0.0,-4.5648,-4.5999,-4.6476,-4.7456,-4.8008,-4.8159,-4.7807,-4.8259,-4.8611,-4.8611,-4.9113,-4.9615,-5.0067,-4.9791,-4.9791,-5.0243,-4.9841,-4.959,-4.959,-4.959,-4.954,-4.9439,-4.8987,-4.8661,-4.8435,0.0,0.0,-4.6954,-4.6527,-4.6301,-4.6301,-4.6301,-4.6301,-4.6301,-4.6301,-4.6301,-4.625,-4.5698,-4.5497,-4.5347,-4.4217,-4.374,-4.3589,-4.3137,-4.2986,-4.2986,-4.2986,-4.2911,-4.2866,-4.2866,-4.2735,0.0,-4.2133,-4.2062,-4.1882,-4.1401,-4.1275,-4.1275,-4.1275,-4.12,-4.1125,-4.1125,-4.0752,-4.035,-4.035,-3.9998,-3.9697,-3.9697,-3.9697,-3.9697,-3.9697,-3.9697,-3.9697,-3.9697,-3.9697,-3.9697,-3.9697,-3.9597,-3.9346,-3.8969,-3.8718,-3.8215,-3.7236,-3.6849,-3.6662,-3.6709,-3.6866,-3.6632,-3.5989,-3.5862,-3.5517,-3.4906,-3.536,-3.5562,-3.5654,-3.6489,-3.7206,0.0,0.0,0.0,0.0,0.0,0.0,0.0,0.0,0.0,0.0,0.0,-4.3496,0.0,0.0,-4.615,-4.6979,-4.7104,-4.7405,-4.8209,-4.8586,-4.8661,-4.8385,-4.8837,-4.9289,-4.9565,-4.9841,-5.0243,-5.082,-5.0594,-5.0569,-5.0845,-5.0318,-5.0017,-5.0017,-4.9741,-4.959,-4.959,-4.9314,-4.9038,-4.8761,-4.8209,-4.7657,-4.7068,-4.6853,-4.6577,-4.6301,-4.6301,-4.6301,-4.6301,-4.6301,-4.6301,-4.6276,-4.5999,-4.5723,-4.5422,-4.4844,-4.4292,-4.3765,-4.3489,-4.3212,-4.2986,-4.2986,-4.2986,-4.2986,-4.2986,-4.2986,-4.2911,-4.269,-4.2615,-4.2509,-4.2233,-4.2158,-4.2158,-4.2158,-4.1957,-4.1756,-4.1756,-4.1304,-4.0874,-4.0874,-4.0475,-4.0099,-4.0099,-3.9873,-3.9697,-3.9697,-3.9697,-3.9697,-3.9697,-3.9697,-3.9697,-3.9697,-3.9697,-3.9572,-3.9295,-3.9019,-3.8517,-3.7638,-3.7157,-3.695,-3.695,-3.6839,-3.6561,-3.6189,-3.6164,-3.5945,-3.5554,-3.6107,-3.6358,-3.6383,-3.7108,-3.7471,0.0,0.0,0.0,0.0,0.0,0.0,0.0,-3.7588,-3.9205,-4.0159,-4.2202,-4.4171,-4.5319,-4.6303,-4.7258,-4.8008,-4.8109,-4.8422,-4.9163,-4.9264,-4.9264,-4.9264,-4.954,-4.9941,-5.0368,-5.0519,-5.082,-5.1398,-5.1348,-5.1322,-5.1448,-5.0896,-5.0519,-5.0419,-4.9992,-4.9715,-4.959,-4.959,-4.9364,-4.8937,-4.8812,-4.8259,-4.728,-4.7179,-4.6828,-4.6301,-4.6301,-4.6301,-4.6301,-4.6301,-4.6301,-4.6301,-4.6301,-4.605,-4.5623,-4.5522,-4.492,-4.4116,-4.3991,-4.3589,-4.3137,-4.3137,-4.3062,-4.2986,-4.2986,-4.2986,-4.2986,-4.2986,-4.2986,-4.2986,-4.2986,-4.2986,-4.2986,-4.2986,-4.269,-4.2363,-4.2363,-4.1882,-4.1505,-4.1505,-4.1053,-4.0651,-4.0526,-4.0149,-3.9823,-3.9722,-3.9697,-3.9697,-3.9697,-3.9697,-3.9697,-3.9697,-3.9697,-3.9697,-3.9697,-3.9195,-3.8668,-3.8216,-3.7663,-3.7337,-3.7337,-3.691,-3.6732,-3.6732,-3.6732,-3.6732,-3.6732,-3.7136,-3.7337,-3.7362,-3.7914,-3.7939,-3.1973,-3.2772,-3.337,-3.3639,-3.4472,-3.552,0.0,-3.7941,-3.9717,-4.1289,-4.2574,-4.3915,-4.5549,-4.6172,-4.6983,-4.87,-4.8938,-4.9441,-5.0845,-5.0996,-5.0996,-5.0996,-5.0594,-5.0343,-5.0419,-5.087,-5.1423,-5.1975,-5.1548,-5.1498,-5.2,-5.1473,-5.0946,-5.0444,-5.0368,-5.0092,-4.959,-4.959,-4.9565,-4.949,-4.9012,-4.8435,-4.7807,-4.733,-4.6828,-4.6301,-4.6301,-4.6301,-4.6301,-4.6301,-4.6301,-4.6301,-4.6301,-4.6276,-4.615,-4.5673,-4.5422,-4.5221,-4.4719,-4.4166,-4.3714,-4.3714,-4.3388,-4.2986,-4.2986,-4.2986,-4.2986,-4.2986,-4.2986,-4.2986,-4.2986,-4.2986,-4.2986,-4.2986,-4.2936,-4.2886,-4.2886,-4.2459,-4.2112,-4.2112,-4.163,-4.105,-4.0601,-4.0475,-4.0249,-3.9772,-3.9697,-3.9697,-3.9697,-3.9697,-3.9697,-3.9697,-3.9697,-3.9697,-3.9697,-3.9195,-3.8894,-3.8768,-3.8241,-3.7914,-3.7914,-3.7864,-3.7814,-3.7814,-3.7814,-3.7814,-3.7814,-3.7889,-3.7914,-3.7914,-3.8517,-3.8793,-3.2037,-3.2833,-3.3468,-3.3542,-3.4412,-3.5436,-3.6075,-3.7419,-3.9045,-4.0628,-4.2441,-4.4173,-4.5793,-4.7027,-4.8174,0.0,-4.9818,-5.0323,-5.1222,-5.1272,-5.1272,-5.1272,-5.1348,-5.1398,-5.1398,-5.1624,-5.2,-5.2553,-5.2377,-5.2352,-5.2578,-5.2076,-5.1649,-5.1398,-5.077,-5.0318,-5.0067,-4.9766,-4.959,-4.959,-4.9364,-4.8962,-4.8385,-4.7832,-4.7129,-4.6301,-4.6301,-4.6301,-4.6301,-4.6301,-4.6301,-4.6301,-4.6301,-4.6301,-4.6276,-4.605,-4.5773,-4.5447,-4.5221,-4.4744,-4.4217,-4.3915,-4.3639,-4.3388,-4.3062,-4.2986,-4.2986,-4.2986,-4.2986,-4.2986,-4.2986,-4.2986,-4.2986,-4.2986,-4.2986,-4.2986,-4.2986,-4.2785,-4.269,-4.269,-4.2183,-4.1731,-4.1505,-4.0927,-4.0425,-4.0199,-3.9898,-3.9697,-3.9697,-3.9697,-3.9697,-3.9697,-3.9697,-3.9697,-3.9697,-3.9471,-3.9346,-3.9346,-3.8818,-3.8517,-3.8517,-3.8191,-3.8015,-3.8015,-3.8015,-3.8015,-3.8015,-3.8341,-3.8517,-3.8517,-3.9094,-3.9346,-3.2402,-3.3047,-3.3652,-3.3906,-3.4693,-3.5508,-3.5964,-3.7126,-3.8495,-4.0003,-4.1861,-4.3794,-4.5482,-4.7131,-4.8608,-4.9692,-5.0362,-5.0986,-5.1632,-5.1724,-5.1724,-5.1724,-5.2076,-5.2327,-5.2327,-5.2327,-5.2503,-5.2904,-5.2929,-5.2929,-5.2929,-5.2553,-5.2251,-5.2101,-5.1172,-5.0569,-5.0419,-4.9866,-4.959,-4.959,-4.959,-4.9314,-4.8736,-4.8033,-4.7179,-4.6301,-4.6301,-4.6301,-4.6301,-4.6301,-4.6301,-4.6301,-4.6301,-4.6301,-4.6301,-4.6301,-4.605,-4.5723,-4.5723,-4.5347,-4.4769,-4.4217,-4.3915,-4.3689,-4.3137,-4.2986,-4.2986,-4.2986,-4.2986,-4.2986,-4.2986,-4.2986,-4.2986,-4.2986,-4.2986,-4.2986,-4.2986,-4.2986,-4.2986,-4.2986,-4.2715,-4.2389,-4.2238,-4.1505,-4.0852,-4.0551,-4.0174,-3.9873,-3.9722,-3.9697,-3.9697,-3.9697,-3.9697,-3.9697,-3.9697,-3.9697,-3.9697,-3.9697,-3.932,-3.9094,-3.9094,-3.8693,-3.8467,-3.8467,-3.8467,-3.8467,-3.8467,-3.8894,-3.9094,-3.912,-3.9496,-3.9697,-3.3262,-3.3711,-3.4258,-3.5117,-3.5599,-3.5964,-3.64,-3.7394,-3.8553,-3.9836,-4.0979,-4.239,-4.446,-4.5874,-4.7414,-4.9373,-5.0455,-5.1407,-5.2666,-5.2879,-5.2879,-5.2879,-5.2904,-5.2904,0.0,-5.2904,-5.2904,-5.2929,-5.2929,-5.2929,-5.2929,-5.2904,-5.2653,-5.2126,-5.1548,-5.0996,-5.0419,-4.9866,-4.959,-4.959,-4.959,-4.9314,-4.8736,-4.7657,-4.6853,-4.6301,-4.6301,-4.6301,-4.6301,-4.6301,-4.6301,-4.6301,-4.6301,-4.6301,-4.6301,-4.6301,-4.6301,-4.6276,-4.6276,-4.5924,-4.5372,-4.4794,-4.4242,-4.3689,-4.3137,-4.2986,-4.2986,-4.2986,-4.2986,-4.2986,-4.2986,-4.2986,-4.2986,-4.2986,-4.2986,-4.2986,-4.2986,-4.2986,-4.2986,-4.2986,-4.2961,-4.2841,-4.2313,-4.2187,-4.1785,-4.0676,-4.0501,-4.03,-3.9772,-3.9697,-3.9697,-3.9697,-3.9697,-3.9697,-3.9697,-3.9697,-3.9697,-3.9697,-3.9672,-3.9672,-3.9672,-3.9647,-3.9647,-3.9647,-3.9647,-3.9647,-3.9647,-3.9672,-3.9672,-3.9672,-3.9697,-3.9697,-3.3672,-3.416,-3.4629,-3.5234,-3.5673,-3.6023,-3.6112,-3.6809,-3.7732,-3.8712,-4.0223,-4.1874,-4.3623,-4.5714,-4.7745,-4.9446,-5.0729,-5.1877,-5.2767,-5.2929,-5.2929,-5.2929,-5.2929,0.0,0.0,0.0,0.0,-5.2929,-5.2929,-5.2929,-5.2929,-5.2929,-5.2854,-5.2653,-5.1749,-5.1197,-5.0996,-5.0067,-4.959,-4.959,-4.959,-4.9113,-4.8184,-4.7807,-4.7154,-4.6301,-4.6301,-4.6301,-4.6301,-4.6301,-4.6301,-4.6301,-4.6301,-4.6301,-4.6301,-4.6301,-4.6301,-4.6301,-4.6301,-4.6175,-4.5949,-4.5372,-4.4819,-4.4242,-4.3689,-4.3263,-4.2986,-4.2986,-4.2986,-4.2986,-4.2986,-4.2986,-4.2986,-4.2986,-4.2986,-4.2986,-4.2986,-4.2986,-4.2986,-4.2986,-4.2986,-4.2911,-4.2791,-4.2464,-4.1907,-4.1178,-4.045,-3.9898,-3.9722,-3.9697,-3.9697,-3.9697,-3.9697,-3.9697,-3.9697,-3.9697,-3.9697,-3.9697,-3.9697,-3.9697,-3.9697,-3.9697,-3.9697,-3.9697,-3.9697,-3.9697,-3.9697,-3.9697,-3.9697,-3.9697,-3.9697,-3.9697,-3.4101,-3.4609,-3.5059,-3.5508,-3.582,-3.6016,-3.6016,-3.6471,-3.7064,-3.7758,-3.9233,-4.0878,-4.2289,-4.4699,-4.7027,-4.8625,-5.0183,-5.159,-5.2834,-5.3023,-5.3067,-5.3136,-5.3206,-5.313,0.0,0.0,0.0,-5.2929,-5.2929,-5.2929,-5.2929,-5.2929,-5.2929,-5.2929,-5.185,-5.1272,-5.1272,-5.0167,-4.959,-4.959,-4.959,-4.9012,-4.7908,-4.7908,-4.733,-4.6301,-4.6301,-4.6301,-4.6301,-4.6301,-4.6301,-4.6301,-4.6301,-4.6301,-4.6301,-4.6301,-4.6301,-4.6301,-4.6301,-4.6301,-4.6225,-4.5673,-4.5246,-4.4819,-4.4267,-4.3714,-4.3263,-4.3263,-4.3137,-4.2986,-4.2986,-4.2986,-4.2986,-4.2986,-4.2986,-4.2986,-4.2986,-4.2986,-4.2986,-4.2986,-4.2986,-4.2986,-4.2986,-4.2564,-4.2087,-4.1681,-4.0852,-4.0199,-4.0023,-3.9823,-3.9697,-3.9697,-3.9697,-3.9697,-3.9697,-3.9873,-3.9998,-3.9998,-3.9998,-3.9998,-3.9998,-3.9798,-3.9697,-3.9697,-3.9697,-3.9697,-3.9697,-3.9697,-3.9697,-3.9697,-3.9697,-3.9697,-3.4629,-3.5059,-3.5488,-3.5918,-3.6016,-3.6016,-3.6016,-3.6268,-3.6638,-3.7054,-3.8134,-3.9343,0.0,0.0,-4.519,-4.7144,-4.8944,-5.0816,-5.2886,-5.3172,-5.3313,0.0,0.0,0.0,0.0,0.0,0.0,-5.2929,0.0,-5.2929,-5.2929,-5.2929,-5.2929,-5.2929,-5.185,-5.1272,-5.1272,-5.0167,-4.959,-4.959,-4.959,-4.9012,-4.7958,-4.7933,-4.733,-4.6351,-4.6326,-4.6301,-4.6301,-4.6301,-4.6301,-4.6301,-4.6301,-4.6301,-4.6301,-4.6301,-4.6301,-4.6301,-4.6301,-4.6301,-4.6225,-4.5698,-4.5522,-4.5372,-4.4844,-4.4292,-4.384,-4.3815,-4.3413,-4.3011,-4.2986,-4.2986,-4.2986,-4.2986,-4.2986,-4.2986,-4.2986,-4.2986,-4.2986,-4.2986,-4.2986,-4.2986,-4.2986,-4.259,-4.2263,-4.2263,-4.1731,-4.1125,-4.0626,-4.0099,-3.9772,-3.9772,-3.9772,-3.9772,-3.9772,-4.0249,-4.0551,-4.0551,-4.0551,-4.0551,-4.0551,-4.0049,-3.9772,-3.9747,-3.9747,-3.9722,-3.9697,-3.9722,-3.9747,-3.9747,-3.9772,-3.9772,-3.5098,-3.5293,-3.5488,-3.5918,-3.6016,-3.6016,-3.6016,-3.6268,-3.6539,-3.6658,-3.765,-3.8849,-4.0061,-4.2102,0.0,-4.6701,-4.8498,0.0,-5.246,-5.3031,0.0,-5.3638,0.0,-5.3507,-5.298,-5.2929,0.0,0.0,-5.2929,-5.2929,-5.2929,-5.2929,-5.2929,-5.2929,-5.185,-5.1272,-5.1272,-5.0167,-4.959,-4.959,-4.959,-4.9238,-4.8535,-4.8109,-4.7556,-4.6842,-4.6502,-4.6301,-4.6301,-4.6301,-4.6301,-4.6301,-4.6301,-4.6301,-4.6301,-4.6301,-4.6301,-4.6301,-4.6301,-4.6301,-4.6276,-4.615,-4.5824,-4.5472,-4.5321,-4.4869,-4.4259,-4.3654,-4.3373,-4.3173,-4.2492,-4.2337,-4.2369,-4.2594,-4.2625,-4.2681,-4.2986,-4.2986,-4.2986,-4.2986,-4.2986,-4.2986,-4.2986,-4.2861,-4.2816,-4.2816,-4.2308,-4.1756,-4.115,-4.0949,-4.0874,-4.0874,-4.0874,-4.0874,-4.0874,-4.1,-4.1075,-4.1075,-4.1075,-4.1075,-4.1075,-4.0949,-4.0674,-4.03,-4.03,-4.0099,-3.9697,-4.0099,-4.03,-4.0325,-4.0727,-4.0874,-3.5332,-3.5527,-3.5723,-3.5957,-3.6016,-3.6016,-3.6016,-3.6132,-3.6268,-3.6268,-3.6944,-3.7932,-3.895,-4.0731,-4.284,0.0,0.0,0.0,-5.1986,-5.2875,-5.352,0.0,-5.4084,0.0,-5.3331,-5.3055,-5.2929,0.0,-5.2929,-5.2929,-5.2929,-5.2929,-5.2929,-5.2929,-5.185,-5.1046,-5.0544,-4.9916,-4.959,-4.959,-4.959,-4.9314,-4.8761,-4.8184,-4.7631,-4.7043,0.0,-4.6301,-4.6301,-4.6301,-4.6301,-4.6301,-4.6301,-4.618,-4.6059,-4.6059,-4.5999,-4.5878,-4.5878,-4.5878,-4.5878,-4.618,-4.598,-4.561,-4.561,-4.5032,-4.4215,-4.3826,-4.3262,-4.2686,-4.1977,-4.1798,-4.1807,-4.1712,-4.1891,-4.2174,-4.2344,-4.2569,-4.2793,-4.2986,-4.2986,-4.2986,-4.2986,-4.2986,-4.2986,-4.2986,-4.271,-4.2409,-4.2108,-4.1576,-4.1275,-4.1275,-4.1275,-4.1275,-4.1275,-4.1555,-4.1681,-4.1681,-4.1681,-4.1681,-4.1681,-4.1455,-4.115,-4.0824,-4.0824,-4.0727,-4.0425,-4.0674,-4.0824,-4.0824,-4.115,-4.1275,-3.5488,-3.5742,-3.6016,-3.6016,-3.6016,-3.6016,-3.6016,-3.6016,-3.6016,-3.6016,-3.6328,-3.6857,-3.7639,-3.9152,-4.1179,-4.3881,0.0,-4.8279,-5.1391,-5.2713,-5.3629,-5.4365,-5.4461,-5.4235,-5.3658,-5.3181,-5.2929,-5.2929,-5.2929,-5.2929,-5.2929,-5.2929,-5.2854,-5.2703,-5.1774,-5.0745,-4.9615,-4.959,-4.959,-4.959,-4.959,-4.9339,-4.8862,-4.8209,-4.7657,-4.7143,-4.6577,0.0,-4.6301,-4.6301,-4.6301,-4.6301,-4.6301,-4.612,-4.5817,-4.5817,-4.5574,-4.527,-4.527,-4.5208,-4.527,-4.5939,-4.5939,-4.5757,-4.5696,-4.4926,-4.4014,-4.3796,-4.289,-4.1908,-4.1306,-4.1188,-4.107,-4.0668,-4.1014,-4.1393,-4.1435,-4.1948,-4.24,-4.2681,-4.2793,-4.2793,-4.2793,-4.2849,-4.2905,-4.2905,-4.2986,-4.2986,-4.2986,-4.2158,-4.1501,-4.1501,-4.1501,-4.1501,-4.1501,-4.1982,-4.2313,-4.2313,-4.2313,-4.2313,-4.2313,-4.1806,-4.1476,-4.1401,-4.1401,-4.1351,-4.1275,-4.1351,-4.1401,-4.1401,-4.1476,-4.1501,-3.5918,-3.5957,-3.6016,-3.6016,-3.6016,-3.6016,-3.6016,-3.6016,-3.6016,-3.6016,-3.6074,-3.6406,-3.7144,-3.8633,-4.0452,-4.2646,-4.5518,-4.824,-5.0577,-5.2245,-5.3367,0.0,-5.3858,-5.3632,-5.3105,-5.298,0.0,0.0,0.0,-5.2929,-5.2929,-5.2929,-5.2503,-5.1599,-5.1373,-5.0745,-4.9615,-4.959,-4.959,-4.959,-4.959,-4.954,-4.9414,-4.8385,-4.7857,-4.7732,-4.6728,0.0,-4.6301,-4.6301,-4.6301,-4.6301,-4.6301,-4.612,-4.5817,-4.5817,-4.5428,-4.4853,-4.4853,-4.473,-4.4546,-4.527,-4.5453,-4.5331,-4.5061,-4.462,-4.3959,-4.2706,-4.1963,-4.1345,-4.0286,-3.9966,-4.0014,-4.0034,-4.0098,-4.0339,-4.0758,-4.1091,-4.1378,-4.1435,-4.1663,-4.1834,-4.1834,-4.2231,-4.2569,-4.2569,-4.2793,-4.2986,-4.2986,-4.2811,-4.2685,-4.2685,-4.2685,-4.2685,-4.2685,-4.2785,-4.2836,-4.2836,-4.2836,-4.2836,-4.2836,-4.2735,-4.2484,-4.2062,-4.2062,-4.1781,-4.1275,-4.1781,-4.2062,-4.2032,-4.2484,-4.2685,-3.6016,-3.6016,-3.6016,-3.6016,-3.6016,-3.6016,-3.6016,-3.6016,-3.6016,-3.6016,-3.6016,-3.6221,-3.6838,-3.7855,-3.9468,-4.2016,-4.4331,-4.6889,-4.9837,-5.1541,-5.2754,-5.3588,-5.3708,-5.3607,-5.3356,-5.308,-5.2929,0.0,0.0,-5.2929,-5.2929,-5.2929,-5.2427,-5.1322,-5.1272,-5.0745,-4.9615,-4.959,-4.959,-4.959,-4.959,-4.959,-4.9565,-4.8435,-4.7908,-4.7857,-4.6778,0.0,-4.6301,-4.6301,-4.6301,-4.6301,-4.6301,-4.5999,-4.5514,-4.5514,-4.5,-4.4237,-4.4051,-4.3678,-4.3302,-4.3428,-4.3826,-4.4199,-4.3864,-4.3153,-4.2201,-4.1339,-4.0571,-3.9905,-3.9233,-3.9038,-3.9097,-3.9299,-3.9537,-3.9891,-4.0646,-4.0703,-4.0745,-4.1033,-4.1378,-4.1606,-4.1606,-4.2118,-4.2513,-4.2513,-4.2818,-4.2986,-4.2986,-4.2986,-4.2986,-4.2986,-4.2986,-4.2986,-4.2986,-4.2986,-4.2986,-4.2986,-4.2986,-4.2986,-4.2986,-4.2986,-4.2861,-4.264,-4.264,-4.2459,-4.2183,-4.2459,-4.264,-4.264,-4.2861,-4.2986,-3.6016,-3.6016,-3.6016,-3.6016,-3.6016,-3.6016,-3.6016,-3.6016,-3.6016,-3.6016,-3.6016,-3.6133,-3.6465,-3.7271,-3.8725,-4.1277,-4.3222,-4.5599,-4.8841,-5.0628,-5.2025,-5.3098,-5.3387,0.0,-5.3532,-5.3181,0.0,0.0,0.0,0.0,-5.2929,-5.2929,-5.2427,-5.1322,-5.1272,-5.0745,-4.9615,-4.959,-4.959,-4.959,-4.959,-4.959,-4.9565,-4.8435,-4.7908,-4.7857,-4.6778,0.0,0.0,-4.6301,-4.6301,-4.6301,-4.6301,-4.5939,-4.5392,-4.5331,-4.4631,-4.374,-4.3326,-4.2673,-4.2038,-4.1591,-4.2102,-4.2799,-4.2483,-4.1505,-4.0409,-4.0018,-3.9188,-3.8465,-3.835,-3.8245,-3.8335,-3.8592,-3.8971,-3.9537,-4.0301,-4.0207,-4.0094,-4.0679,-4.1047,-4.132,-4.132,-4.1891,-4.2425,-4.2425,-4.2762,-4.2986,-4.2986,-4.2986,-4.2986,-4.2986,-4.2986,-4.2986,-4.2986,-4.2986,-4.2986,-4.2986,-4.2986,-4.2986,-4.2986,-4.2986,-4.2986,-4.2986,-4.2986,-4.2986,-4.2986,-4.2986,-4.2986,-4.2986,-4.2986,-4.2986,-3.6016,-3.6016,-3.6016,-3.6016,-3.6016,-3.6016,-3.6016,-3.6016,-3.6016,-3.6016,-3.6016,-3.6035,-3.6074,-3.7257,-3.8705,-4.0067,-4.285,-4.5416,-4.7228,-4.9552,-5.1264,-5.175,0.0,0.0,-5.3005,-5.2955,0.0,0.0,0.0,0.0,-5.2929,-5.2929,-5.2427,-5.1322,-5.1272,-5.0745,-4.9615,-4.959,-4.959,-4.959,-4.959,-4.959,-4.9565,-4.8435,-4.7908,-4.7857,-4.6778,0.0,0.0,-4.6301,-4.6301,-4.6301,-4.6301,-4.6059,-4.5696,-4.5392,-4.4631,-4.3678,-4.3075,-4.2189,-4.1293,-4.0582,-4.0884,-4.1399,-4.1077,-4.0431,-3.9648,-3.8991,-3.8283,-3.7683,-3.7709,-3.7688,-3.7719,-3.8007,-3.8487,-3.8897,-3.8938,-3.9037,-3.9228,-3.9636,-4.0081,-4.0339,-4.0339,-4.1344,-4.2167,-4.2167,-4.265,-4.2986,-4.2986,-4.2986,-4.2986,-4.2986,-4.2986,-4.2986,-4.2986,-4.2986,-4.2986,-4.2986,-4.2986,-4.2986,-4.2986,-4.2986,-4.2986,-4.2986,-4.2986,-4.2986,-4.2986,-4.2986,-4.2986,-4.2986,-4.2986,-4.2986,-3.5957,-3.6016,-3.6016,-3.6016,-3.6016,-3.6016,-3.6016,-3.6016,-3.6016,-3.6016,-3.6016,-3.6016,-3.6016,-3.6677,-3.7753,-3.9155,-4.1244,-4.3578,-4.6097,-4.814,-4.9952,-5.1389,-5.2097,0.0,0.0,0.0,0.0,0.0,0.0,0.0,-5.2929,-5.2929,-5.2578,-5.18,-5.1448,-5.0896,-5.0092,-4.9766,-4.959,-4.959,-4.959,-4.9414,-4.9063,-4.8284,-4.7732,-4.7405,-4.6652,0.0,0.0,-4.6301,-4.6301,-4.6301,-4.6301,-4.612,-4.5757,-4.5635,-4.4939,-4.3989,-4.3326,-4.2189,-4.0841,-3.9931,-3.932,-3.9123,-3.9167,-3.8726,-3.7996,-3.7528,-3.7011,-3.6761,-3.7146,-3.795,-3.8573,-3.845,-3.8657,-3.8956,-3.9211,-3.9195,-3.94,-4.0159,-4.0787,-4.1306,-4.1697,-4.2486,-4.3127,-4.3301,-4.3704,-4.3966,-4.3966,-4.3966,-4.3966,-4.3966,-4.3363,-4.2986,-4.2986,-4.2986,-4.2986,-4.2986,-4.2986,-4.2986,-4.2986,-4.2986,-4.2986,-4.2986,-4.2986,-4.2986,-4.2986,-4.2986,-4.2986,-4.2986,-4.2986,-4.2986,-3.5762,-3.5918,-3.6016,-3.6016,-3.6016,-3.6016,-3.6016,-3.6016,-3.6016,-3.6016,-3.6016,-3.6016,-3.6016,-3.6336,-3.7017,-3.8344,-3.9888,-4.1872,-4.4731,-4.6643,-4.8647,-5.0777,0.0,-5.2191,0.0,-5.2929,0.0,0.0,0.0,0.0,-5.2929,-5.2929,-5.2603,-5.1875,-5.1498,-5.0921,-5.0167,-4.9791,-4.959,-4.959,-4.959,-4.9314,-4.8761,-4.8184,-4.7631,-4.7043,-4.6552,0.0,0.0,-4.6301,-4.6301,-4.6301,-4.6301,-4.612,-4.5939,-4.5817,-4.5306,-4.4484,-4.3678,-4.242,-4.0884,-3.9735,-3.8549,-3.7616,-3.7595,-3.7327,-3.6876,-3.6586,-3.6336,-3.6268,-3.6809,-3.7816,-3.8615,-3.8283,-3.8429,-3.8655,-3.9066,-3.9001,-3.9201,-4.0225,-4.0915,-4.1555,-4.228,-4.2938,-4.3531,-4.4002,-4.4294,-4.4502,-4.456,-4.4618,-4.4618,-4.4618,-4.394,-4.3463,-4.3463,-4.3463,-4.3388,-4.3237,-4.3212,-4.3162,-4.2986,-4.2986,-4.2986,-4.2986,-4.2986,-4.2986,-4.2986,-4.2986,-4.2986,-4.2986,-4.2986,-4.2986,-3.541,-3.5703,-3.6016,-3.6016,-3.6016,-3.6016,-3.6016,-3.6016,-3.6016,-3.6016,-3.6016,-3.6016,-3.6016,-3.6268,-3.6793,-3.7682,-3.9137,-4.081,-4.2788,-4.5142,-4.7483,0.0,0.0,-5.1986,-5.281,0.0,0.0,0.0,0.0,0.0,-5.2929,-5.2929,-5.2427,-5.1322,-5.1272,-5.0745,-4.9615,-4.959,-4.959,-4.959,-4.959,-4.9314,-4.8761,-4.8184,-4.7631,0.0,0.0,0.0,0.0,-4.6301,-4.6301,-4.6301,-4.6301,-4.6301,-4.624,-4.5939,-4.555,-4.5159,-4.4113,-4.2925,-4.1527,-4.017,-3.8726,-3.7482,-3.6722,-3.6519,-3.6519,-3.6519,-3.6519,-3.6519,-3.6519,-3.7059,-3.7549,-3.7213,-3.7348,-3.775,-3.8104,-3.8062,-3.8248,-3.9302,-3.9877,-4.0471,-4.1167,-4.2076,-4.2974,-4.359,-4.4002,-4.4294,-4.456,-4.4618,-4.4618,-4.4618,-4.4618,-4.4593,-4.4593,-4.4593,-4.4367,-4.384,-4.379,-4.3539,-4.3011,-4.2986,-4.2986,-4.2986,-4.2986,-4.2986,-4.2986,-4.2986,-4.2986,-4.2986,-4.2986,-4.2986,-3.5234,-3.5488,-3.5664,-3.5937,-3.6016,-3.6016,-3.6016,-3.6016,-3.6016,-3.6016,-3.6016,-3.6016,-3.6016,-3.6084,-3.6327,-3.6873,-3.8316,-4.0019,-4.1942,0.0,0.0,-4.8797,-5.0783,-5.2191,0.0,0.0,0.0,0.0,0.0,0.0,-5.2377,-5.2377,-5.2201,-5.185,-5.1473,-5.0921,-5.0167,-4.9791,-4.959,-4.959,-4.9213,-4.8736,-4.8159,-4.7631,-4.7079,0.0,0.0,0.0,0.0,-4.6301,-4.6301,-4.6301,-4.6301,-4.6301,-4.6301,-4.618,-4.5939,-4.555,-4.473,-4.3615,-4.2229,-4.0862,-3.9451,-3.815,-3.7213,-3.6539,-3.6132,-3.6132,-3.6336,-3.6519,-3.6519,-3.7059,-3.7549,-3.7146,-3.7348,-3.7616,-3.777,-3.7893,-3.8364,-3.9433,-3.9929,-4.0587,-4.1748,-4.2436,-4.2994,-4.3695,-4.4245,-4.4669,-4.4705,-4.5151,-4.5415,-4.5415,-4.5654,-4.5472,-4.4694,-4.4618,-4.4543,-4.4367,-4.4367,-4.4116,-4.3564,-4.3539,-4.3363,-4.2986,-4.2986,-4.2986,-4.2986,-4.2986,-4.2986,-4.2986,-4.2986,-4.2986,-3.4707,-3.5137,-3.5449,-3.5723,-3.5898,-3.6016,-3.6016,-3.6016,-3.6016,-3.6016,-3.6016,-3.6016,-3.6016,-3.6016,-3.6084,-3.6355,-3.7754,-3.9426,0.0,0.0,0.0,-4.8956,0.0,0.0,0.0,0.0,0.0,0.0,0.0,0.0,-5.1825,-5.18,-5.1699,-5.1473,-5.1122,-5.067,-5.0117,-4.9766,-4.959,-4.959,-4.9038,-4.846,-4.7883,-4.738,-4.6828,0.0,0.0,0.0,0.0,-4.6301,-4.6301,-4.6301,-4.6301,-4.6301,-4.6301,-4.6301,-4.618,-4.5878,-4.5245,-4.4175,-4.2965,-4.1569,-3.9844,-3.8083,-3.7146,-3.6471,-3.6016,-3.6016,-3.6132,-3.6336,-3.6336,-3.6674,-3.6944,-3.6742,-3.6809,-3.7011,-3.7146,-3.7327,-3.7775,-3.8726,-3.9167,-3.9801,-4.1119,-4.1569,-4.2143,-4.3114,-4.3615,-4.3989,-4.436,-4.4878,-4.5245,-4.5428,-4.5817,-4.5845,-4.5085,-4.5187,-4.5171,-4.497,-4.4945,-4.4694,-4.4141,-4.4116,-4.394,-4.3614,-4.3388,-4.3288,-4.3288,-4.3087,-4.2986,-4.2986,-4.2986,-4.2986,0.0,-3.4668,-3.5351,-3.5391,-3.5703,-3.6016,-3.6016,-3.6016,0.0,-3.6016,-3.6016,-3.6016,-3.6016,-3.6016,-3.6016,-3.6016,-3.743,0.0,0.0,-4.2806,0.0,0.0,-5.1177,0.0,0.0,0.0,0.0,0.0,0.0,0.0,-5.1247,-5.1222,-5.0946,-5.0368,-5.0368,-5.0117,-4.959,-4.959,-4.9565,-4.954,-4.8962,-4.841,-4.7832,-4.7305,-4.6803,0.0,0.0,0.0,0.0,-4.6301,-4.6301,-4.6301,-4.6301,-4.6301,-4.6301,-4.6301,-4.6301,-4.618,-4.5514,-4.4631,-4.3553,-4.2102,-3.9844,-3.7482,-3.6789,-3.6268,-3.6016,-3.6016,-3.6016,-3.6016,-3.6016,-3.6016,-3.6016,-3.6016,-3.6016,-3.6084,-3.6384,-3.6451,-3.6654,-3.7415,-3.7796,-3.8308,-3.9386,-3.9823,-4.0516,-4.1824,-4.2102,-4.2483,-4.3428,-4.3927,-4.4299,-4.4607,-4.5306,-4.5696,-4.5757,-4.6059,-4.61,-4.5573,-4.5547,-4.5296,-4.4719,-4.4694,-4.4669,-4.4618,-4.4116,-4.3865,-4.3865,-4.3313,-4.3037,-4.3037,-4.2986,-4.2986,-3.3535,0.0,-3.4941,-3.5312,-3.5703,-3.6016,0.0,-3.6016,-3.6016,-3.6016,-3.6016,-3.6016,-3.6016,-3.6016,-3.6016,-3.6016,-3.743,-3.8893,-4.0114,0.0,0.0,-4.9327,-5.0057,-5.078,0.0,0.0,0.0,0.0,0.0,-5.1222,-5.0645,-5.0619,-5.0368,-4.9816,-4.9791,-4.9715,-4.959,-4.959,-4.9389,-4.8962,-4.8385,-4.7832,-4.7305,-4.6753,-4.6426,0.0,0.0,0.0,-4.6301,-4.6301,-4.6301,-4.6301,-4.6301,-4.6301,-4.6301,-4.6301,-4.612,-4.5817,-4.5184,-4.4237,-4.3051,-4.0884,-3.8991,-3.7549,-3.7079,-3.6471,-3.6016,-3.6016,-3.6016,-3.6016,-3.6016,-3.6016,-3.6016,-3.6016,-3.6016,-3.6016,-3.6084,-3.6152,-3.62,-3.6654,-3.6856,-3.7126,-3.7929,-3.8395,-3.8838,-3.9451,-4.0214,-4.0797,-4.1033,-4.2079,-4.2902,-4.3216,-4.4113,-4.4853,-4.5342,-4.5999,-4.625,-4.6125,-4.6125,-4.5874,-4.5296,-4.5271,-4.507,-4.4644,-4.4493,-4.4418,-4.4418,-4.3865,-4.3614,-4.3589,-4.3162,-4.2986,-3.3418,-3.4043,-3.4766,-3.5019,-3.5547,-3.6016,-3.6016,-3.6016,-3.6016,-3.6016,-3.6016,-3.6016,-3.6016,-3.6016,-3.6016,-3.6016,-3.743,0.0,0.0,0.0,-4.6594,-4.842,-4.9096,0.0,0.0,0.0,0.0,0.0,0.0,-5.0645,-5.0067,-5.0042,-4.9891,-4.9615,-4.959,-4.959,-4.959,-4.9339,-4.9063,-4.8761,-4.7933,-4.7405,-4.7043,-4.6552,-4.6301,0.0,0.0,0.0,-4.6301,-4.6301,-4.6301,-4.6301,-4.6301,-4.6301,-4.6301,-4.6301,-4.6059,-4.5696,-4.4853,-4.3404,-4.1569,-3.9844,-3.8395,-3.728,-3.6944,-3.6403,-3.6016,-3.6016,-3.6016,-3.6016,-3.6016,-3.6016,-3.6016,-3.6016,-3.6016,-3.6016,-3.6016,-3.6016,-3.6084,-3.6268,-3.6268,-3.6471,-3.6991,-3.726,-3.7528,-3.8083,-3.866,-3.9101,-3.9495,-4.0473,-4.1312,-4.1761,-4.2902,-4.3864,-4.4546,-4.5367,-4.5999,-4.6301,-4.6301,-4.6175,-4.5874,-4.5874,-4.5598,-4.502,-4.502,-4.4895,-4.4618,-4.4317,-4.4192,-4.4166,-4.3865,-4.374,-3.3496,-3.4101,-3.4707,-3.4707,-3.5371,-3.6016,-3.6016,-3.6016,-3.6016,-3.6016,-3.6016,-3.6016,-3.6016,-3.6016,-3.6035,-3.6113,0.0,0.0,-4.2548,-4.4068,-4.5484,-4.7221,-4.7945,0.0,0.0,0.0,0.0,0.0,0.0,-5.0092,-4.9615,-4.959,-4.959,-4.959,-4.959,-4.9565,-4.9464,-4.9012,-4.8686,-4.851,-4.7581,-4.7043,-4.6943,-4.6527,-4.6301,-4.6301,0.0,0.0,-4.6301,-4.6301,-4.6301,-4.6301,-4.6301,-4.6301,-4.6301,-4.6301,-4.6059,-4.5574,-4.436,-4.2184,-3.9888,-3.8925,-3.7883,-3.6944,-3.6586,-3.6268,-3.6016,-3.6016,-3.6016,-3.6016,-3.6016,-3.6016,-3.6016,-3.6016,-3.6016,-3.6016,-3.6016,-3.6016,-3.6016,-3.6016,-3.6016,-3.6084,-3.6384,-3.6451,-3.6674,-3.728,-3.7415,-3.7683,-3.8283,-3.8925,-3.9648,-4.0344,-4.1633,-4.2713,-4.3553,-4.4546,-4.5489,-4.618,-4.624,-4.6301,-4.6301,-4.6301,-4.61,-4.5623,-4.5623,-4.5372,-4.4895,-4.4794,-4.4744,-4.4744,-4.4669,-4.4618,-3.3867,-3.4336,-3.4707,-3.4707,-3.5371,-3.6016,-3.6016,-3.6016,-3.6016,-3.6016,-3.6016,-3.6016,-3.6016,-3.6016,-3.6133,-3.6504,0.0,-3.9768,0.0,0.0,-4.3606,-4.5461,0.0,0.0,0.0,0.0,0.0,0.0,0.0,-4.969,-4.959,-4.959,-4.959,-4.959,-4.959,-4.9364,-4.8912,-4.8812,-4.8309,-4.738,-4.7143,-4.6878,-4.6426,-4.6351,-4.6301,-4.6301,0.0,-4.6301,-4.6301,-4.6301,-4.6301,-4.6301,-4.6301,-4.6301,-4.6301,-4.6301,-4.5878,-4.5086,-4.2925,-4.0948,-3.921,-3.8503,-3.7482,-3.6586,-3.6519,-3.6268,-3.6016,-3.6016,-3.6016,-3.6016,-3.6016,-3.6016,-3.6016,-3.6016,-3.6016,-3.6016,-3.6016,-3.6016,-3.6016,-3.6016,-3.6016,-3.6016,-3.6084,-3.6084,-3.6152,-3.6219,-3.6471,-3.6722,-3.6856,-3.7461,-3.8217,-3.8946,-3.9953,-4.1226,-4.2839,-4.3864,-4.4853,-4.5817,-4.612,-4.6301,-4.6301,-4.6301,-4.6276,-4.6175,-4.6175,-4.615,-4.605,-4.5573,-4.5347,-4.5347,-4.4844,-4.4618,-3.3945,-3.4375,-3.4766,-3.5019,-3.5547,-3.6016,-3.6016,-3.6016,-3.6016,-3.6016,-3.6016,-3.6016,-3.6016,-3.6016,-3.6318,-3.7193,0.0,-3.9303,-4.0871,-4.1431,-4.2187,0.0,0.0,0.0,0.0,0.0,0.0,0.0,0.0,0.0,-4.959,-4.959,-4.959,-4.959,-4.9314,-4.8887,-4.8309,-4.8033,-4.7631,-4.7068,-4.6828,-4.6552,-4.6301,-4.6301,-4.6301,-4.6301,0.0,-4.6301,-4.6301,-4.6301,-4.6301,-4.6301,-4.6301,-4.6301,-4.6266,-4.5878,-4.5184,-4.4199,-4.2229,-4.0366,-3.8747,-3.7904,-3.6944,-3.62,-3.62,-3.6152,-3.6016,-3.6016,-3.6016,-3.6016,-3.6016,-3.6016,-3.6016,-3.6016,-3.6016,-3.6016,-3.6016,-3.6016,-3.6016,-3.6016,-3.6016,-3.6016,-3.6016,-3.6016,-3.6016,-3.6016,-3.6152,-3.62,-3.62,-3.6674,-3.7193,-3.775,-3.8793,-3.9953,-4.129,-4.2523,-4.4051,-4.5939,-4.618,-4.6301,-4.6301,-4.6301,-4.6301,-4.6301,-4.6301,-4.6301,-4.6301,-4.605,-4.5924,-4.5924,-4.5648,-4.5547,-3.4082,-3.4453,-3.4824,-3.5391,-3.5781,-3.6016,-3.6016,-3.6016,-3.6016,-3.6016,-3.6016,-3.6016,-3.6016,-3.6191,0.0,-3.7628,-3.8181,-3.8851,-3.991,-4.031,-4.0862,0.0,0.0,0.0,0.0,0.0,0.0,0.0,0.0,0.0,-4.959,-4.959,-4.954,-4.9414,-4.8987,-4.8435,-4.7732,-4.733,-4.7079,-4.6928,-4.6527,-4.6301,-4.6301,-4.6301,-4.6301,-4.6301,-4.6301,-4.6301,-4.6301,-4.6301,-4.6301,-4.6301,-4.6301,-4.6301,-4.624,-4.5635,-4.4755,-4.3678,-4.2079,-4.0366,-3.8747,-3.7616,-3.6742,-3.6084,-3.6016,-3.6016,-3.6016,-3.6016,-3.6016,-3.6016,-3.6016,-3.6016,-3.6016,-3.6016,-3.6016,-3.6016,-3.6016,-3.6016,-3.6016,-3.6016,-3.6016,-3.6016,-3.6016,-3.6016,-3.6016,-3.6016,-3.6016,-3.6016,-3.6016,-3.62,-3.6519,-3.6944,-3.7883,-3.8991,-4.0344,-4.1569,-4.3302,-4.555,-4.5999,-4.618,-4.618,-4.624,-4.6301,-4.6301,-4.6301,-4.6301,-4.6301,-4.6301,-4.6301,-4.6301,-4.6301,-4.6301,-3.4434,-3.4668,-3.4902,-3.5762,-3.5996,-3.6016,-3.6016,-3.6016,-3.6016,-3.6016,-3.6016,-3.6016,-3.6016,-3.668,-3.7226,-3.7355,-3.806,-3.8753,-3.9248,0.0,0.0,0.0,0.0,0.0,0.0,0.0,0.0,0.0,0.0,0.0,-4.959,-4.959,-4.9364,-4.8837,-4.8786,-4.8259,-4.7143,-4.7093,-4.6878,-4.6376,-4.6326,-4.6301,-4.6301,-4.6301,-4.6301,-4.6301,-4.6301,-4.6301,-4.6301,-4.6301,-4.6301,-4.6301,-4.6301,-4.6301,-4.624,-4.5878,-4.5123,-4.4051,-4.2736,-4.1055,-3.9386,-3.8017,-3.7079,-3.6384,-3.6084,-3.6016,-3.6016,-3.6016,-3.6016,-3.6016,-3.6016,-3.6016,-3.6016,-3.6016,-3.6016,-3.6016,-3.6016,-3.6016,-3.6016,-3.6016,-3.6016,-3.6016,-3.6016,-3.6016,-3.6016,-3.6016,-3.6016,-3.6016,-3.6016,-3.6016,-3.6152,-3.6519,-3.7193,-3.866,-4.0991,-4.1911,-4.2799,-4.3927,-4.5123,-4.5817,-4.5817,-4.612,-4.6301,-4.6301,-4.6301,-4.6301,-4.6301,-4.6301,-4.6301,-4.6301,-4.6301,-4.6301,-3.4473,-3.4707,-3.4902,-3.5801,-3.6016,-3.6016,-3.6016,-3.6016,-3.6016,-3.6016,-3.6016,-3.6016,-3.6016,0.0,-3.7305,-3.7305,-3.8008,-3.8647,-3.8812,0.0,0.0,0.0,0.0,0.0,0.0,0.0,0.0,0.0,0.0,0.0,-4.959,-4.9264,-4.8987,-4.8786,-4.8109,-4.7556,-4.7068,-4.6803,-4.6527,-4.6301,-4.6301,-4.6301,-4.6301,-4.6301,-4.6301,-4.6301,-4.6301,-4.6301,-4.6301,-4.6301,-4.6301,-4.6301,-4.6301,-4.6301,-4.624,-4.5939,-4.5306,-4.4422,-4.3091,-4.1633,-4.0105,-3.8726,-3.7616,-3.6809,-3.6403,-3.6152,-3.6016,-3.6016,-3.6016,-3.6016,-3.6016,-3.6016,-3.6016,-3.6016,-3.6016,-3.6016,-3.6016,-3.6016,-3.6016,-3.6016,-3.6016,-3.6016,-3.6016,-3.6016,-3.6016,-3.6016,-3.6016,-3.6016,-3.6016,-3.6016,-3.6084,-3.62,-3.6876,-3.7863,-3.9167,-4.0149,-4.0991,-4.1824,-4.3778,-4.4939,-4.5184,-4.5514,-4.5757,-4.5999,-4.5999,-4.6059,-4.6301,-4.6301,-4.6301,-4.6301,-4.6301,-4.6301,-3.4473,-3.4707,-3.4902,-3.5801,-3.6016,-3.6055,-3.6191,-3.623,-3.623,-3.623,-3.623,-3.623,-3.623,0.0,0.0,0.0,-3.8105,-3.8574,-3.8574,0.0,0.0,0.0,0.0,0.0,0.0,0.0,0.0,0.0,0.0,0.0,0.0,-4.8999,-4.8686,-4.851,-4.7606,-4.6993,-4.6878,-4.6502,-4.6301,-4.6301,-4.6301,-4.6301,-4.6301,-4.6301,-4.6301,-4.6301,-4.6301,-4.6301,-4.6301,-4.6301,-4.6301,-4.6301,-4.6301,-4.6301,-4.624,-4.6059,-4.5611,-4.4915,-4.3716,-4.2397,-4.0926,-3.9517,-3.8217,-3.7146,-3.6654,-3.6268,-3.6016,-3.6016,-3.6016,-3.6016,-3.6016,-3.6016,-3.6016,-3.6016,-3.6016,-3.6016,-3.6016,-3.6016,-3.6016,-3.6016,-3.6016,-3.6016,-3.6016,-3.6016,-3.6016,-3.6016,-3.6016,-3.6016,-3.6016,-3.6016,-3.6016,-3.6132,-3.6606,-3.7193,-3.7863,-3.8594,-3.9386,-4.017,-4.1888,-4.3279,-4.4299,-4.4631,-4.5,-4.5306,-4.5306,-4.5428,-4.5671,-4.5671,-4.5732,-4.5817,-4.5817,-4.5878,-3.4473,-3.4707,-3.4902,-3.5801,-3.6016,-3.6133,-3.6562,-3.668,-3.668,-3.668,-3.668,-3.668,-3.668,-3.7012,0.0,-3.7851,-3.8281,-3.8574,0.0,0.0,0.0,0.0,0.0,0.0,0.0,0.0,0.0,0.0,0.0,0.0,0.0,-4.8871,-4.851,-4.7908,-4.7405,-4.6853,-4.6326,-4.6301,-4.6301,-4.6301,-4.6301,-4.6301,-4.6301,-4.6301,-4.6301,-4.6301,-4.6301,-4.6301,-4.6301,-4.6301,-4.6301,-4.6301,-4.6301,-4.6301,-4.6301,-4.6301,-4.6059,-4.5635,-4.4631,-4.3428,-4.2038,-4.0301,-3.8726,-3.7482,-3.6722,-3.6268,-3.6016,-3.6016,-3.6016,-3.6016,-3.6016,-3.6016,-3.6016,-3.6016,-3.6016,-3.6016,-3.6016,-3.6016,-3.6016,-3.6016,-3.6016,-3.6016,-3.6016,-3.6016,-3.6016,-3.6016,-3.6016,-3.6016,-3.6016,-3.6016,-3.6152,-3.6451,-3.6519,-3.6789,-3.7549,-3.7616,-3.8017,-3.9078,-3.9517,-4.0732,-4.32,-4.3615,-4.3927,-4.4299,-4.4299,-4.4299,-4.4299,-4.4299,-4.4484,-4.4792,-4.4792,-4.4976,-3.4473,-3.4707,-3.4902,-3.5801,-3.6016,-3.6133,-3.6562,-3.668,-3.6758,-3.7051,-3.7109,-3.7109,-3.7109,-3.7461,0.0,-3.791,-3.8281,-3.8574,0.0,0.0,0.0,0.0,0.0,0.0,0.0,0.0,0.0,0.0,0.0,0.0,0.0,-4.7916,-4.7683,-4.738,-4.6853,-4.6476,-4.6301,-4.6301,-4.6301,-4.6301,-4.6301,-4.6301,-4.6301,-4.6301,-4.6301,-4.6301,-4.6301,-4.6301,-4.6301,-4.6301,-4.6301,-4.6301,-4.6301,-4.6301,-4.6301,-4.6301,-4.5939,-4.5331,-4.4546,-4.3428,-4.2038,-4.056,-3.9123,-3.7796,-3.7126,-3.6471,-3.6016,-3.6016,-3.6016,-3.6016,-3.6016,-3.6016,-3.6016,-3.6016,-3.6016,-3.6016,-3.6016,-3.6016,-3.6016,-3.6016,-3.6016,-3.6016,-3.6016,-3.6016,-3.6016,-3.6016,-3.6016,-3.6016,-3.6016,-3.6016,-3.6016,-3.6152,-3.6132,-3.6219,-3.6491,-3.6674,-3.7059,-3.7683,-3.8017,-3.9254,-4.1463,-4.1847,-4.227,-4.2862,-4.2925,-4.3114,-4.3591,-4.3591,-4.3654,-4.3716,-4.3716,-4.3778,-3.4538,-3.4707,-3.4902,-3.5801,-3.6016,-3.6172,-3.6777,-3.7051,-3.7246,-3.75,-3.7539,-3.7539,-3.7539,-3.7754,0.0,-3.8164,-3.8398,0.0,0.0,0.0,0.0,0.0,0.0,0.0,0.0,0.0,0.0,0.0,0.0,0.0,0.0,-4.7351,-4.7334,-4.7093,-4.6602,-4.6301,-4.6301,-4.6301,-4.6301,-4.6301,-4.6301,-4.6301,-4.6301,-4.6301,-4.6301,-4.6301,-4.6301,-4.6301,-4.6301,-4.6301,-4.6301,-4.6301,-4.6301,-4.6301,-4.6301,-4.6301,-4.5939,-4.5392,-4.473,-4.3553,-4.2102,-4.069,-3.9167,-3.7796,-3.7059,-3.6471,-3.6016,-3.6016,-3.6016,-3.6016,-3.6016,-3.6016,-3.6016,-3.6016,-3.6016,-3.6016,-3.6016,-3.6016,-3.6016,-3.6016,-3.6016,-3.6016,-3.6016,-3.6016,-3.6016,-3.6016,-3.6016,-3.6016,-3.6016,-3.6016,-3.6016,-3.6016,-3.6016,-3.6016,-3.6016,-3.62,-3.6471,-3.6876,-3.7079,-3.7796,-3.9254,-3.991,-4.0538,-4.1055,-4.1055,-4.1248,-4.1674,-4.1674,-4.1802,-4.2056,-4.2056,-4.2247,-3.4479,-3.4668,-3.4902,-3.5742,-3.6055,-3.6348,-3.7109,-3.7656,-3.7988,-3.7988,-3.7988,-3.7988,-3.7988,-3.7988,-3.8105,-3.8516,0.0,0.0,0.0,0.0,0.0,0.0,0.0,0.0,0.0,0.0,0.0,0.0,0.0,0.0,0.0,-4.7072,-4.7246,-4.7018,-4.6577,-4.6301,-4.6301,-4.6301,-4.6301,-4.6301,-4.6301,-4.6301,-4.6301,-4.6301,-4.6301,-4.6301,-4.6301,-4.6301,-4.6301,-4.6301,-4.6301,-4.6301,-4.6301,-4.6301,-4.6301,-4.6301,-4.6059,-4.5635,-4.4976,-4.3654,-4.2102,-4.0668,-3.9035,-3.7482,-3.6789,-3.6268,-3.6016,-3.6016,-3.6016,-3.6016,-3.6016,-3.6016,-3.6016,-3.6016,-3.6016,-3.6016,-3.6016,-3.6016,-3.6016,-3.6016,-3.6016,-3.6016,-3.6016,-3.6016,-3.6016,-3.6016,-3.6016,-3.6016,-3.6016,-3.6016,-3.6016,-3.6016,-3.6016,-3.6016,-3.6016,-3.6016,-3.6152,-3.6451,-3.6451,-3.6586,-3.7011,-3.8017,-3.8726,-3.9035,-3.9035,-3.9035,-3.9101,-3.9101,-3.943,-3.9997,-3.9997,-4.0409,-3.4191,-3.4453,-3.4824,-3.5391,-3.6289,-3.707,-3.7266,-3.7891,-3.8437,-3.8437,-3.8437,-3.8437,-3.8437,-3.8437,-3.8476,-3.8555,0.0,0.0,0.0,0.0,0.0,0.0,0.0,0.0,0.0,0.0,0.0,0.0,0.0,0.0,-4.5521,-4.6494,-4.6823,-4.6466,-4.6376,-4.6301,-4.6301,-4.6301,-4.6301,0.0,-4.6301,-4.6301,-4.6301,-4.6301,-4.6301,-4.6301,-4.6301,-4.6301,-4.6301,-4.6301,-4.6301,-4.6301,-4.6301,-4.6301,-4.6301,-4.6301,-4.5939,-4.5331,-4.4607,-4.349,-4.2102,-4.0712,-3.9254,-3.7863,-3.7213,-3.6539,-3.6016,-3.6016,-3.6016,-3.6016,-3.6016,-3.6016,-3.6016,-3.6016,-3.6016,-3.6016,-3.6016,-3.6016,-3.6016,-3.6016,-3.6016,-3.6016,-3.6016,-3.6016,-3.6016,-3.6016,-3.6016,-3.6016,-3.6016,-3.6016,-3.6016,-3.6016,-3.6016,-3.6016,-3.6016,-3.6016,-3.6016,-3.6084,-3.6084,-3.6152,-3.6219,-3.7011,-3.7616,-3.795,-3.7929,-3.8063,-3.8308,-3.8308,-3.8441,-3.8573,-3.8573,-3.8639,-3.427,-3.4505,-3.4863,-3.5527,-3.6504,-3.7305,-3.7305,-3.7949,-3.8574,-3.8574,-3.8574,-3.8574,-3.8574,-3.8574,-3.8574,0.0,0.0,0.0,0.0,0.0,0.0,0.0,0.0,0.0,0.0,0.0,0.0,0.0,0.0,-4.4662,-4.4966,-4.623,-4.6711,-4.6291,-4.6301,-4.6301,-4.6301,-4.6301,-4.6301,-4.6301,-4.6301,-4.6301,-4.6301,-4.6301,-4.6301,-4.6301,-4.6301,-4.6301,-4.6301,-4.6301,-4.6301,-4.6301,-4.6301,-4.6301,-4.6301,-4.6301,-4.5999,-4.5453,-4.473,-4.3678,-4.2293,-4.0755,-3.9299,-3.7909,-3.7059,-3.6403,-3.6016,-3.6016,-3.6016,-3.6016,-3.6016,-3.6016,-3.6016,-3.6016,-3.6016,-3.6016,-3.6016,-3.6016,-3.6016,-3.6016,-3.6016,-3.6016,-3.6016,-3.6016,-3.6016,-3.6016,-3.6016,-3.6016,-3.6016,-3.6016,-3.6016,-3.6016,-3.6016,-3.6016,-3.6016,-3.6016,-3.6016,-3.6016,-3.6016,-3.6016,-3.6016,-3.6355,-3.6694,-3.6809,-3.6809,-3.6944,-3.7059,-3.7059,-3.7193,-3.7307,-3.7307,-3.7461,-3.4581,-3.4774,-3.5166,-3.5838,-3.6631,-3.7258,-3.7187,-3.7851,-3.8457,-3.8457,-3.8516,-3.8574,-3.8574,-3.8574,-3.8574,0.0,0.0,0.0,0.0,0.0,0.0,0.0,0.0,0.0,0.0,0.0,0.0,0.0,0.0,-4.4279,-4.4757,-4.6062,-4.6674,-4.6355,-4.6291,-4.6301,-4.6301,-4.6301,-4.6301,-4.6301,-4.6301,-4.6301,-4.6301,-4.6301,-4.6301,-4.6301,-4.6301,-4.6301,-4.6301,-4.6301,-4.6301,-4.6301,-4.6301,-4.6301,-4.6301,-4.6301,-4.6059,-4.5696,-4.5098,-4.4051,-4.2713,-4.1055,-3.9561,-3.8175,-3.7059,-3.6403,-3.6084,-3.6016,-3.6016,-3.6016,-3.6016,-3.6016,-3.6016,-3.6016,-3.6016,-3.6016,-3.6016,-3.6016,-3.6016,-3.6016,-3.6016,-3.6016,-3.6016,-3.6016,-3.6016,-3.6016,-3.6016,-3.6016,-3.6016,-3.6016,-3.6016,-3.6016,-3.6016,-3.6016,-3.6016,-3.6016,-3.6016,-3.6016,-3.6016,-3.6016,-3.6016,-3.6016,-3.6016,-3.6016,-3.6016,-3.6016,-3.6016,-3.6016,-3.6152,-3.6384,-3.6384,-3.6606,-3.4715,-3.5393,-3.6087,-3.5951,-3.659,-3.7174,-3.6827,-3.7402,-3.8008,0.0,-3.832,-3.8574,-3.8574,-3.8574,0.0,0.0,0.0,0.0,0.0,0.0,0.0,0.0,0.0,0.0,0.0,0.0,0.0,0.0,-4.2678,-4.4096,-4.494,-4.5892,-4.6469,-4.6538,-4.637,-4.6301,-4.6301,-4.6301,-4.6301,-4.6301,-4.6301,-4.6301,-4.6301,-4.6301,-4.6301,-4.6301,-4.6301,-4.6301,-4.6301,-4.6301,-4.6301,-4.6301,-4.6301,-4.6301,-4.6301,-4.6301,-4.6059,-4.5757,-4.5342,-4.4546,-4.3428,-4.2038,-4.0625,-3.9254,-3.7883,-3.7011,-3.6471,-3.6084,-3.6016,-3.6016,-3.6016,-3.6016,-3.6016,-3.6016,-3.6016,-3.6016,-3.6016,-3.6016,-3.6016,-3.6016,-3.6016,-3.6016,-3.6016,-3.6016,-3.6016,-3.6016,-3.6016,-3.6016,-3.6016,-3.6016,-3.6016,-3.6016,-3.6016,-3.6016,-3.6016,-3.6016,-3.6016,-3.6016,-3.6016,-3.6016,-3.6016,-3.6016,-3.6016,-3.6016,-3.6016,-3.6016,-3.6016,-3.6016,-3.6016,-3.6084,-3.6084,-3.6084,-3.5504,-3.581,-3.6119,-3.6652,-3.7031,-3.7305,-3.7016,-3.7409,-3.7791,-3.7578,-3.7734,-3.8008,-3.8496,-3.8574,0.0,0.0,0.0,0.0,0.0,0.0,0.0,0.0,0.0,0.0,0.0,0.0,0.0,0.0,-4.2116,-4.3501,-4.4633,-4.5853,-4.6558,-4.66,-4.672,-4.6627,-4.6301,-4.6301,-4.6301,-4.6301,-4.6301,-4.6301,-4.6301,-4.6301,-4.6301,-4.6301,-4.6301,-4.6301,-4.6301,-4.6301,-4.6301,-4.6301,-4.6301,-4.6301,-4.6301,-4.6301,-4.618,-4.5999,-4.5671,-4.5061,-4.4113,-4.2799,-4.1377,-4.0018,-3.8594,-3.7616,-3.6809,-3.6403,-3.6132,-3.6016,-3.6016,-3.6016,-3.6016,-3.6016,-3.6016,-3.6016,-3.6016,-3.6016,-3.6016,-3.6016,-3.6016,-3.6016,-3.6016,-3.6016,-3.6016,-3.6016,-3.6016,-3.6016,-3.6016,-3.6016,-3.6016,-3.6016,-3.6016,-3.6016,-3.6016,-3.6016,-3.6016,-3.6016,-3.6016,-3.6016,-3.6016,-3.6016,-3.6016,-3.6016,-3.6016,-3.6016,-3.6016,-3.6016,-3.6016,-3.6016,-3.6016,-3.6016,-3.6382,-3.6527,-3.6737,-3.7255,-3.7577,-3.778,-3.734,-3.7568,-3.7828,0.0,-3.7367,-3.7571,-3.8125,0.0,0.0,0.0,0.0,0.0,0.0,0.0,0.0,0.0,0.0,0.0,0.0,0.0,0.0,0.0,-4.1431,-4.2783,-4.4188,-4.5478,-4.6311,-4.655,-4.6835,-4.6756,-4.6326,-4.6301,-4.6301,-4.6301,-4.6301,-4.6301,-4.6301,-4.6301,-4.6301,-4.6301,-4.6301,-4.6301,-4.6301,-4.6301,-4.6301,-4.6301,-4.6301,-4.6301,-4.6301,-4.6301,-4.6301,-4.624,-4.5999,-4.555,-4.4853,-4.3591,-4.2333,-4.0926,-3.9386,-3.8196,-3.7193,-3.6654,-3.6268,-3.6016,-3.6016,-3.6016,-3.6016,-3.6016,-3.6016,-3.6016,-3.6016,-3.6016,-3.6016,-3.6016,-3.6016,-3.6016,-3.6016,-3.6016,-3.6016,-3.6016,-3.6016,-3.6016,-3.6016,-3.6016,-3.6016,-3.6016,-3.6016,-3.6016,-3.6016,-3.6016,-3.6016,-3.6016,-3.6016,-3.6016,-3.6016,-3.6016,-3.6016,-3.6016,-3.6016,-3.6016,-3.6016,-3.6016,-3.6016,-3.6016,-3.6016,-3.6016,-3.7025,-3.7873,-3.867,-3.75,-3.8032,-3.8594,-3.7594,0.0,-3.8057,-3.7321,-3.75,-3.7656,-3.7434,0.0,0.0,0.0,0.0,0.0,0.0,0.0,0.0,0.0,0.0,0.0,0.0,0.0,0.0,0.0,-4.077,-4.2095,-4.3587,-4.4526,-4.5502,-4.6397,-4.6537,-4.6487,-4.6326,-4.6301,-4.6301,-4.6301,-4.6301,-4.6301,-4.6301,-4.6301,-4.6301,-4.6301,-4.6301,-4.6301,-4.6301,-4.6301,-4.6301,-4.6301,-4.6301,-4.6301,-4.6301,-4.6301,-4.6301,-4.6301,-4.624,-4.6059,-4.5574,-4.4546,-4.3553,-4.2333,-4.0279,-3.8904,-3.7842,-3.6789,-3.6268,-3.6016,-3.6016,-3.6016,-3.6016,-3.6016,-3.6016,-3.6016,-3.6016,-3.6016,-3.6016,-3.6016,-3.6016,-3.6016,-3.6016,-3.6016,-3.6016,-3.6016,-3.6016,-3.6016,-3.6016,-3.6016,-3.6016,-3.6016,-3.6016,-3.6016,-3.6016,-3.6016,-3.6016,-3.6016,-3.6016,-3.6016,-3.6016,-3.6016,-3.6016,-3.6016,-3.6016,-3.6016,-3.6016,-3.6016,-3.6016,-3.6016,-3.6016,-3.6016,-3.7577,-3.8037,-3.8614,-3.8716,-3.8875,-3.8975,-3.8722,-3.8677,-3.8555,-3.8202,-3.7915,-3.771,0.0,0.0,0.0,0.0,0.0,0.0,0.0,0.0,0.0,0.0,0.0,0.0,0.0,0.0,0.0,0.0,0.0,-4.136,-4.2818,-4.4369,-4.5599,-4.648,-4.6929,-4.686,-4.6326,-4.6301,-4.6301,-4.6301,-4.6301,-4.6301,-4.6301,-4.6301,-4.6301,-4.6301,-4.6301,-4.6301,-4.6301,-4.6301,-4.6301,-4.6301,-4.6301,-4.6301,-4.6301,-4.6301,-4.6301,-4.6301,-4.6301,-4.6059,-4.5696,-4.5098,-4.4113,-4.2862,-4.1463,-3.9844,-3.8329,-3.7461,-3.6606,-3.6016,-3.6016,-3.6016,-3.6016,-3.6016,-3.6016,-3.6016,-3.6016,-3.6016,-3.6016,-3.6016,-3.6016,-3.6016,-3.6016,-3.6016,-3.6016,-3.6016,-3.6016,-3.6016,-3.6016,-3.6016,-3.6016,-3.6016,-3.6016,-3.6016,-3.6016,-3.6016,-3.6016,-3.6016,-3.6016,-3.6016,-3.6016,-3.6016,-3.6016,-3.6016,-3.6016,-3.6016,-3.6016,-3.6016,-3.6016,-3.6016,-3.6016,-3.6016,-3.7983,-3.8331,-3.8785,-3.9524,-3.9767,-3.9716,-3.9747,-3.9648,-3.9406,-3.8978,-3.8561,-3.8246,0.0,0.0,0.0,0.0,0.0,0.0,0.0,0.0,0.0,0.0,0.0,0.0,0.0,0.0,0.0,0.0,0.0,0.0,-4.2046,-4.3907,-4.5587,-4.6899,-4.7153,-4.7084,-4.6602,-4.6401,-4.6301,-4.6301,-4.6301,-4.6301,-4.6301,-4.6301,-4.6301,-4.6301,-4.6301,-4.6301,-4.6301,-4.6301,-4.6301,-4.6301,-4.6301,-4.6301,-4.6301,-4.6301,-4.6301,-4.6301,-4.6301,-4.612,-4.5939,-4.555,-4.4607,-4.3428,-4.2293,-4.0495,-3.866,-3.7816,-3.6809,-3.6016,-3.6016,-3.6016,-3.6016,-3.6016,-3.6016,-3.6016,-3.6016,-3.6016,-3.6016,-3.6016,-3.6016,-3.6016,-3.6016,-3.6016,-3.6016,-3.6016,-3.6016,-3.6016,-3.6016,-3.6016,-3.6016,-3.6016,-3.6016,-3.6016,-3.6016,-3.6016,-3.6016,-3.6016,-3.6016,-3.6016,-3.6016,-3.6016,-3.6016,-3.6016,-3.6016,-3.6016,-3.6016,-3.6016,-3.6016,-3.6016,-3.6016,-3.6016,0.0,0.0,0.0,-3.9897,0.0,0.0,-4.0538,0.0,-4.0523,-3.9616,-3.9471,-3.9325,0.0,0.0,0.0,0.0,0.0,0.0,0.0,0.0,0.0,0.0,0.0,0.0,0.0,0.0,0.0,0.0,-3.9301,-4.0218,-4.1339,-4.3214,-4.5318,-4.7636,-4.7359,-4.7093,-4.7068,-4.6602,-4.6326,-4.6301,-4.6301,-4.6301,-4.6301,-4.6301,-4.6301,-4.6301,-4.6301,-4.6301,-4.6301,-4.6301,-4.6301,-4.6301,-4.6301,-4.6301,-4.6301,-4.6301,-4.6301,-4.6301,-4.6301,-4.6301,-4.624,-4.5939,-4.5123,-4.4051,-4.2736,-4.0862,-3.897,-3.795,-3.6809,-3.6016,-3.6016,-3.6016,-3.6016,-3.6016,-3.6016,-3.6016,-3.6016,-3.6016,-3.6016,-3.6016,-3.6016,-3.6016,-3.6016,-3.6016,-3.6016,-3.6016,-3.6016,-3.6016,-3.6016,-3.6016,-3.6016,-3.6016,-3.6016,-3.6016,-3.6016,-3.6016,-3.6016,-3.6016,-3.6016,-3.6016,-3.6016,-3.6016,-3.6016,-3.6016,-3.6016,-3.6016,-3.6016,-3.6016,-3.6016,-3.6016,-3.6016,-3.6016,-3.7991,0.0,0.0,0.0,0.0,0.0,0.0,0.0,-4.1507,-4.1396,-4.1051,-4.0783,0.0,0.0,0.0,0.0,0.0,0.0,0.0,0.0,0.0,0.0,0.0,0.0,0.0,0.0,0.0,0.0,-3.946,-4.0218,-4.1339,-4.4458,-4.6613,-4.77,-4.8106,-4.7933,-4.7093,-4.6918,-4.6702,-4.6301,-4.6301,-4.6301,-4.6301,-4.6301,-4.6301,-4.6301,-4.6301,-4.6301,-4.6301,-4.6301,-4.6301,-4.6301,-4.6301,-4.6301,-4.6301,-4.6301,-4.6301,-4.6301,-4.6301,-4.6301,-4.6301,-4.618,-4.5489,-4.4484,-4.3341,-4.1546,-3.9626,-3.8308,-3.7193,-3.6336,-3.6084,-3.6016,-3.6016,-3.6016,-3.6016,-3.6016,-3.6016,-3.6016,-3.6016,-3.6016,-3.6016,-3.6016,-3.6016,-3.6016,-3.6016,-3.6016,-3.6016,-3.6016,-3.6016,-3.6016,-3.6016,-3.6016,-3.6016,-3.6016,-3.6016,-3.6016,-3.6016,-3.6016,-3.6016,-3.6016,-3.6016,-3.6016,-3.6016,-3.6016,-3.6016,-3.6016,-3.6016,-3.6016,-3.6016,-3.6016,-3.6016,-3.6016,-3.8216,-3.8617,-3.9145,-4.0015,0.0,0.0,-4.1415,-4.168,0.0,0.0,-4.2041,0.0,0.0,0.0,0.0,0.0,0.0,0.0,0.0,0.0,0.0,0.0,0.0,0.0,0.0,-3.9902,-3.9414,-3.9219,-3.9685,-4.0841,-4.2936,-4.5481,-4.7329,-4.8278,-4.8632,-4.836,-4.7456,-4.7193,-4.6853,-4.6301,-4.6301,-4.6301,-4.6301,-4.6301,-4.6301,-4.6301,-4.6301,-4.6301,-4.6301,-4.6301,-4.6301,-4.6301,-4.6301,-4.6301,-4.6301,-4.6301,-4.6301,-4.6301,-4.6301,-4.6301,-4.6301,-4.6301,-4.5611,-4.4669,-4.3778,-4.1929,-3.9953,-3.8705,-3.7327,-3.6268,-3.6084,-3.6016,-3.6016,-3.6016,-3.6016,-3.6016,-3.6016,-3.6016,-3.6016,-3.6016,-3.6016,-3.6016,-3.6016,-3.6016,-3.6016,-3.6016,-3.6016,-3.6016,-3.6016,-3.6016,-3.6016,-3.6016,-3.6016,-3.6016,-3.6016,-3.6016,-3.6016,-3.6016,-3.6016,-3.6016,-3.6016,-3.6016,-3.6016,-3.6016,-3.6016,-3.6016,-3.6016,-3.6016,-3.6016,-3.6016,-3.6016,-3.6016,-3.8718,-3.8919,-3.912,-4.0174,-4.0475,0.0,-4.1504,-4.1723,-4.1905,0.0,0.0,0.0,0.0,0.0,0.0,0.0,0.0,0.0,0.0,0.0,0.0,0.0,0.0,0.0,-4.0641,-4.021,-3.9798,-3.9312,-4.0048,-4.1905,-4.5142,-4.6382,-4.7606,-4.9072,-4.8985,-4.8586,-4.8008,-4.7556,-4.7004,-4.6401,-4.6401,-4.6376,-4.6301,-4.6301,-4.6301,-4.6301,-4.6301,-4.6301,-4.6301,-4.6301,-4.6301,-4.6301,-4.6301,-4.6301,-4.6301,-4.6301,-4.6301,-4.6301,-4.6301,-4.6301,-4.6301,-4.6301,-4.5671,-4.4792,-4.4051,-4.2206,-4.0149,-3.8925,-3.7348,-3.6016,-3.6016,-3.6016,-3.6016,-3.6016,-3.6016,-3.6016,-3.6016,-3.6016,-3.6016,-3.6016,-3.6016,-3.6016,-3.6016,-3.6016,-3.6016,-3.6016,-3.6016,-3.6016,-3.6016,-3.6016,-3.6016,-3.6016,-3.6016,-3.6016,-3.6016,-3.6016,-3.6016,-3.6016,-3.6016,-3.6016,-3.6016,-3.6016,-3.6016,-3.6016,-3.6016,-3.6016,-3.6016,-3.6016,-3.6016,-3.6016,-3.6016,-3.6016,-3.8718,-3.8919,-3.9019,-3.9697,-4.0199,0.0,-4.1247,-4.1722,-4.2223,0.0,0.0,0.0,0.0,0.0,0.0,0.0,0.0,0.0,0.0,0.0,0.0,0.0,0.0,0.0,-4.0978,-4.0578,-4.0131,-3.9736,-4.0895,-4.2726,-4.5142,-4.6607,-4.7894,-4.9072,-4.9296,-4.9163,-4.8611,-4.851,-4.7958,-4.6979,-4.6979,-4.6753,-4.6301,-4.6301,-4.6301,-4.6301,-4.6301,-4.6301,-4.6301,-4.6301,-4.6301,-4.6301,-4.6301,-4.6301,-4.6301,-4.6301,-4.6301,-4.6301,-4.6301,-4.6301,-4.6301,-4.6301,-4.5999,-4.5367,-4.4175,-4.2925,-4.1312,-3.8594,-3.6944,-3.6016,-3.6016,-3.6016,-3.6016,-3.6016,-3.6016,-3.6016,-3.6016,-3.6016,-3.6016,-3.6016,-3.6016,-3.6016,-3.6016,-3.6016,-3.6016,-3.6016,-3.6016,-3.6016,-3.6016,-3.6016,-3.6016,-3.6016,-3.6016,-3.6016,-3.6016,-3.6016,-3.6016,-3.6016,-3.6016,-3.6016,-3.6016,-3.6016,-3.6016,-3.6016,-3.6016,-3.6016,-3.6016,-3.6016,-3.6016,-3.6016,-3.6016,-3.6016,-3.9195,-3.927,-3.9346,-3.9622,0.0,0.0,0.0,-4.1555,-4.1982,-4.2811,-4.3075,-4.3237,0.0,0.0,0.0,0.0,0.0,0.0,0.0,0.0,0.0,0.0,0.0,0.0,-4.1657,-4.1228,-4.0954,-4.0874,-4.1891,-4.3492,-4.5752,-4.7074,-4.8223,-4.9332,-4.9525,-4.9339,-4.8786,-4.8761,-4.836,-4.7531,-4.7531,-4.738,-4.7104,-4.7104,-4.6954,-4.6728,-4.6728,-4.6577,-4.6301,-4.6301,-4.6301,-4.6301,-4.6301,-4.6301,-4.6301,-4.6301,-4.6301,-4.6301,-4.6301,-4.6301,-4.624,-4.612,-4.5817,-4.5331,-4.4199,-4.2397,-4.0344,-3.8196,-3.6809,-3.6016,-3.6016,-3.6016,-3.6016,-3.6016,-3.6016,-3.6016,-3.6016,-3.6016,-3.6016,-3.6016,-3.6016,-3.6016,-3.6016,-3.6016,-3.6016,-3.6016,-3.6016,-3.6016,-3.6016,-3.6016,-3.6016,-3.6016,-3.6016,-3.6016,-3.6016,-3.6016,-3.6016,-3.6016,-3.6016,-3.6016,-3.6016,-3.6016,-3.6016,-3.6016,-3.6016,-3.6016,-3.6016,-3.6016,-3.6016,-3.6016,-3.6016,-3.6016,-3.9873,-3.9848,-3.9823,0.0,0.0,-3.9973,0.0,0.0,0.0,-4.276,0.0,0.0,0.0,0.0,0.0,0.0,0.0,0.0,0.0,0.0,0.0,0.0,0.0,0.0,0.0,-4.2042,-4.1901,-4.2321,-4.2909,-4.4206,-4.6382,-4.7473,-4.8486,-4.959,-4.959,-4.9389,-4.8937,-4.8937,-4.8636,-4.8083,-4.8083,-4.8008,-4.7908,-4.7908,-4.7631,-4.7068,-4.7068,-4.6828,-4.6301,-4.6301,-4.6301,-4.6301,-4.6301,-4.6301,-4.6301,-4.6301,-4.6301,-4.6301,-4.6301,-4.624,-4.618,-4.5878,-4.5392,-4.4693,-4.374,-4.1377,-3.8925,-3.7883,-3.6809,-3.6016,-3.6016,-3.6016,-3.6016,-3.6016,-3.6016,-3.6016,-3.6016,-3.6016,-3.6016,-3.6016,-3.6016,-3.6016,-3.6016,-3.6016,-3.6016,-3.6016,-3.6016,-3.6016,-3.6016,-3.6016,-3.6016,-3.6016,-3.6016,-3.6016,-3.6016,-3.6016,-3.6016,-3.6016,-3.6016,-3.6016,-3.6016,-3.6016,-3.6016,-3.6016,-3.6016,-3.6016,-3.6016,-3.6016,-3.6016,-3.6016,-3.6016,-3.6016,0.0,0.0,0.0,0.0,-3.9697,0.0,0.0,0.0,-4.1601,-4.276,0.0,0.0,0.0,0.0,0.0,0.0,0.0,0.0,0.0,0.0,0.0,0.0,0.0,0.0,0.0,-4.2996,-4.2673,-4.3419,-4.3606,-4.4549,-4.6741,-4.7539,-4.8486,-4.959,-4.959,-4.9565,-4.9515,-4.9515,-4.9213,-4.8686,-4.8686,-4.841,-4.7908,-4.7908,-4.7631,-4.7068,-4.7068,-4.6828,-4.6301,-4.6301,-4.6301,-4.6301,-4.6301,-4.6301,-4.6301,-4.6301,-4.6301,-4.6301,-4.6301,-4.612,-4.5817,-4.5817,-4.4755,-4.3326,-4.2316,-4.0495,-3.8615,-3.7816,-3.6809,-3.6016,-3.6016,-3.6016,-3.6016,-3.6016,-3.6016,-3.6016,-3.6016,-3.6016,-3.6016,-3.6016,-3.6016,-3.6016,-3.6016,-3.6016,-3.6016,-3.6016,-3.6016,-3.6016,-3.6016,-3.6016,-3.6016,-3.6016,-3.6016,-3.6016,-3.6016,-3.6016,-3.6016,-3.6016,-3.6016,-3.6016,-3.6016,-3.6016,-3.6016,-3.6016,-3.6016,-3.6016,-3.6016,-3.6016,-3.6016,-3.6016,-3.6016,-3.6016,0.0,0.0,0.0,0.0,0.0,0.0,-4.1555,0.0,-4.1601,0.0,0.0,0.0,0.0,0.0,0.0,0.0,0.0,0.0,0.0,0.0,0.0,0.0,0.0,0.0,0.0,0.0,0.0,0.0,-4.4367,-4.5378,-4.6729,-4.7962,-4.8942,-4.959,-4.959,-4.959,-4.959,-4.959,-4.949,-4.9238,-4.9238,-4.9113,-4.8887,-4.8887,-4.8586,-4.8058,-4.7732,-4.728,-4.6753,-4.6451,-4.6301,-4.6301,-4.6301,-4.6301,-4.6301,-4.6301,-4.6301,-4.6301,-4.6301,-4.6059,-4.5696,-4.4878,-4.3615,-4.2316,-4.1486,-3.991,-3.8262,-3.775,-3.6809,-3.6016,-3.6016,-3.6016,-3.6016,-3.6016,-3.6016,-3.6016,-3.6016,-3.6016,-3.6016,-3.6016,-3.6016,-3.6016,-3.6016,-3.6016,-3.6016,-3.6016,-3.6016,-3.6016,-3.6016,-3.6016,-3.6016,-3.6016,-3.6016,-3.6016,-3.6016,-3.6016,-3.6016,-3.6016,-3.6016,-3.6016,-3.6016,-3.6016,-3.6016,-3.6016,-3.6016,-3.6016,-3.6016,-3.6016,-3.6016,-3.6016,-3.6016,-3.6016,-4.1605,0.0,0.0,0.0,0.0,0.0,0.0,0.0,0.0,0.0,0.0,0.0,0.0,0.0,0.0,0.0,0.0,0.0,0.0,0.0,0.0,0.0,0.0,0.0,0.0,0.0,0.0,0.0,0.0,-4.5853,-4.6593,-4.8035,-4.9042,-4.9364,-4.9515,-4.959,-4.959,-4.959,-4.959,-4.959,-4.959,-4.959,-4.959,-4.959,-4.9289,-4.8736,-4.8159,-4.7606,-4.7043,-4.6552,-4.6301,-4.6301,-4.6301,-4.6301,-4.6301,-4.6301,-4.624,-4.618,-4.618,-4.5757,-4.5,-4.3553,-4.2356,-4.1335,-4.0495,-3.9188,-3.7863,-3.7394,-3.6674,-3.6016,-3.6016,-3.6016,-3.6016,-3.6016,-3.6016,-3.6055,-3.6172,-3.6094,-3.6055,-3.6172,-3.6094,-3.6016,-3.6016,-3.6016,-3.6016,-3.6016,-3.6016,-3.6016,-3.6016,-3.6016,-3.6016,-3.6016,-3.6016,-3.6016,-3.6016,-3.6016,-3.6016,-3.6016,-3.6016,-3.6016,-3.6016,-3.6016,-3.6016,-3.6016,-3.6016,-3.6016,-3.6016,-3.6016,-3.6016,-3.6016,-3.6016,-3.6016,0.0,0.0,0.0,-4.148,0.0,0.0,0.0,0.0,-4.2338,0.0,0.0,0.0,0.0,0.0,0.0,-4.3011,0.0,0.0,0.0,0.0,0.0,0.0,0.0,0.0,0.0,0.0,0.0,0.0,0.0,0.0,-4.6382,-4.7622,-4.8519,-4.8812,-4.9314,-4.959,-4.959,-4.959,-4.959,-4.959,-4.959,-4.959,-4.959,-4.959,-4.9289,-4.8736,-4.8159,-4.7606,-4.7043,-4.6552,-4.6301,-4.6301,-4.6301,-4.6301,-4.6301,-4.6301,-4.6059,-4.5817,-4.5817,-4.4939,-4.3553,-4.1934,-4.11,-4.0582,-3.921,-3.8217,-3.7482,-3.6722,-3.6268,-3.6016,-3.6016,-3.6016,-3.6016,-3.6016,-3.6016,-3.6133,-3.6562,-3.6309,-3.6152,-3.6562,-3.6309,-3.6016,-3.6016,-3.6016,-3.6016,-3.6016,-3.6016,-3.6016,-3.6016,-3.6016,-3.6016,-3.6016,-3.6016,-3.6016,-3.6016,-3.6016,-3.6016,-3.6016,-3.6016,-3.6016,-3.6016,-3.6016,-3.6016,-3.6016,-3.6016,-3.6016,-3.6016,-3.6016,-3.6016,-3.6016,-3.6016,-3.6016,0.0,0.0,-4.266,-4.2484,0.0,0.0,0.0,0.0,0.0,0.0,0.0,0.0,0.0,0.0,0.0,-4.2986,0.0,0.0,0.0,0.0,0.0,0.0,0.0,0.0,0.0,0.0,0.0,0.0,-4.5754,0.0,0.0,-4.747,-4.8084,-4.8209,-4.8385,-4.8485,-4.8485,-4.8485,-4.8485,-4.8485,-4.8485,-4.8485,-4.8485,-4.8485,-4.8385,-4.8184,-4.7983,-4.7807,-4.7631,-4.7431,-4.738,-4.733,-4.7004,-4.6853,-4.6803,-4.6451,-4.6059,-4.5696,-4.4755,-4.374,-4.2546,-4.1055,-4.004,-3.9188,-3.8283,-3.7482,-3.6789,-3.6586,-3.6268,-3.6016,-3.6016,-3.6016,-3.6094,-3.6387,-3.6445,-3.6562,-3.6992,-3.6973,-3.6914,-3.7051,-3.6973,-3.6777,-3.6504,-3.6445,-3.6348,-3.6055,-3.6016,-3.6016,-3.6016,-3.6016,-3.6016,-3.6016,-3.6016,-3.6016,-3.6016,-3.6016,-3.6016,-3.6016,-3.6016,-3.6016,-3.6016,-3.6016,-3.6016,-3.6016,-3.6016,-3.6016,-3.6016,-3.6016,-3.6016,-3.6016,-3.6016,-3.6016,-4.2986,-4.2986,0.0,-4.2986,-4.271,0.0,-4.2886,0.0,0.0,0.0,0.0,0.0,0.0,0.0,0.0,0.0,0.0,0.0,0.0,-4.3288,0.0,0.0,0.0,0.0,0.0,0.0,-4.5635,-4.5331,-4.5957,0.0,0.0,0.0,-4.7631,-4.7631,-4.7807,-4.7908,-4.7908,-4.7908,-4.7908,-4.7908,-4.7908,-4.7908,-4.7908,-4.7908,-4.7908,-4.7908,-4.7707,-4.7732,-4.7883,-4.7707,-4.7732,-4.7883,-4.7531,-4.7405,-4.733,-4.6577,-4.5878,-4.5061,-4.3615,-4.2397,-4.1312,-3.9953,-3.8925,-3.815,-3.7415,-3.6856,-3.6451,-3.6336,-3.6152,-3.6016,-3.6016,-3.6133,-3.6328,-3.6601,-3.6777,-3.7012,-3.7422,-3.7402,-3.7344,-3.75,-3.7402,-3.7207,-3.6934,-3.6894,-3.6699,-3.6113,-3.6016,-3.6016,-3.6016,-3.6016,-3.6016,-3.6016,-3.6016,-3.6016,-3.6016,-3.6016,-3.6016,-3.6016,-3.6016,-3.6016,-3.6016,-3.6016,-3.6016,-3.6016,-3.6016,-3.6016,-3.6016,-3.6016,-3.6016,-3.6016,-3.6016,-3.6016]},{"header":{"parameterUnit":"m.s-1","parameterCategory":1,"la1":30.6,"la2":29.2853,"lo1":-89.7004,"lo2":-87.6739,"dy":0.0162,"dx":0.0183,"nx":112,"ny":82,"refTime":"2024-06-12T00:00:00:Z","depth":0,"parameterNumber":3,"parameterNumberName":"V-component_of_WINDS"},"data":[0.0,0.0,0.0,0.0,0.0,0.0,0.0,0.0,0.0,0.0,0.0,0.0,0.0,0.0,0.0,0.0,0.0,0.0,0.0,0.0,0.0,0.0,0.0,0.0,0.0,0.0,0.0,0.0,0.0,0.0,0.0,0.0,0.0,0.0,0.0,0.0,0.0,0.0,0.0,0.0,0.0,0.0,0.0,0.0,0.0,0.0,0.0,0.0,0.0,0.0,0.0,0.0,0.0,0.0,0.0,0.0,0.0,0.0,0.0,0.0,0.0,0.0,0.0,0.0,0.0,0.0,0.0,0.0,0.0,0.0,0.0,0.0,0.0,0.0,0.0,0.0,0.0,0.0,0.0,0.0,0.0,0.0,0.0,0.0,0.0,0.0,0.0,0.0,0.0,0.0,3.0017,3.0976,3.1924,3.2262,3.1799,3.1191,3.0032,2.8103,0.0,0.0,0.0,0.0,0.0,0.0,0.0,0.0,0.0,0.0,0.0,0.0,0.0,0.0,0.0,0.0,0.0,0.0,0.0,0.0,0.0,0.0,0.0,0.0,0.0,0.0,0.0,0.0,0.0,0.0,0.0,0.0,0.0,0.0,0.0,0.0,0.0,0.0,0.0,0.0,0.0,0.0,0.0,0.0,0.0,0.0,0.0,0.0,0.0,0.0,0.0,0.0,0.0,0.0,0.0,0.0,0.0,0.0,0.0,0.0,0.0,0.0,0.0,0.0,0.0,0.0,0.0,0.0,0.0,0.0,0.0,0.0,0.0,0.0,0.0,0.0,0.0,0.0,0.0,0.0,0.0,0.0,0.0,0.0,0.0,0.0,0.0,0.0,0.0,0.0,0.0,0.0,0.0,0.0,0.0,0.0,0.0,0.0,0.0,0.0,0.0,0.0,0.0,0.0,3.048,3.1857,3.2731,3.2945,3.2166,3.1742,3.077,2.9012,0.0,0.0,0.0,0.0,0.0,0.0,0.0,0.0,0.0,0.0,0.0,0.0,0.0,0.0,0.0,0.0,0.0,0.0,0.0,0.0,0.0,0.0,0.0,0.0,0.0,0.0,0.0,0.0,0.0,0.0,0.0,0.0,0.0,0.0,0.0,0.0,0.0,0.0,0.0,0.0,0.0,0.0,0.0,0.0,0.0,0.0,0.0,0.0,0.0,0.0,0.0,0.0,0.0,0.0,0.0,0.0,0.0,0.0,0.0,0.0,0.0,0.0,0.0,0.0,0.0,0.0,0.0,0.0,0.0,0.0,0.0,0.0,0.0,0.0,0.0,0.0,0.0,0.0,0.0,0.0,0.0,0.0,0.0,0.0,0.0,0.0,0.0,0.0,0.0,0.0,0.0,0.0,0.0,0.0,0.0,0.0,0.0,0.0,0.0,0.0,0.0,0.0,0.0,3.1147,3.221,3.2915,3.3208,3.308,3.253,3.1738,3.0703,2.9424,2.7486,0.0,0.0,0.0,0.0,0.0,0.0,0.0,0.0,0.0,0.0,0.0,0.0,0.0,0.0,0.0,0.0,0.0,0.0,0.0,0.0,0.0,0.0,0.0,0.0,0.0,0.0,0.0,0.0,0.0,0.0,0.0,0.0,0.0,0.0,0.0,0.0,0.0,0.0,0.0,0.0,0.0,0.0,0.0,0.0,0.0,0.0,0.0,0.0,0.0,0.0,0.0,0.0,0.0,0.0,0.0,0.0,0.0,0.0,0.0,0.0,0.0,0.0,0.0,0.0,0.0,0.0,0.0,0.0,0.0,0.0,0.0,0.0,0.0,0.0,0.0,0.0,0.0,0.0,0.0,0.0,0.0,0.0,0.0,0.0,0.0,0.0,0.0,0.0,0.0,0.0,0.0,0.0,0.0,0.0,0.0,0.0,0.0,0.0,0.0,0.0,0.0,0.0,3.2784,3.3605,3.3649,3.3518,3.3255,3.2695,3.1604,3.0623,2.9685,2.8198,0.0,0.0,0.0,0.0,0.0,0.0,0.0,0.0,0.0,0.0,0.0,0.0,0.0,0.0,0.0,0.0,0.0,0.0,0.0,0.0,0.0,0.0,0.0,0.0,0.0,0.0,0.0,0.0,0.0,0.0,0.0,0.0,0.0,0.0,0.0,0.0,0.0,0.0,0.0,0.0,0.0,0.0,0.0,0.0,0.0,0.0,0.0,0.0,0.0,0.0,0.0,0.0,0.0,0.0,0.0,0.0,0.0,0.0,0.0,0.0,0.0,0.0,0.0,0.0,0.0,0.0,0.0,0.0,0.0,0.0,0.0,0.0,0.0,0.0,0.0,0.0,0.0,0.0,0.0,0.0,0.0,0.0,0.0,0.0,0.0,0.0,0.0,0.0,0.0,0.0,0.0,0.0,0.0,0.0,0.0,0.0,0.0,0.0,0.0,0.0,0.0,0.0,3.3228,3.3585,3.3775,3.3862,3.3551,3.2512,3.1699,3.0776,2.9685,2.8379,0.0,0.0,0.0,0.0,0.0,0.0,0.0,0.0,0.0,0.0,0.0,0.0,0.0,0.0,0.0,0.0,0.0,0.0,0.0,0.0,0.0,0.0,0.0,0.0,0.0,0.0,0.0,0.0,0.0,0.0,0.0,0.0,0.0,0.0,0.0,0.0,0.0,0.0,0.0,0.0,0.0,0.0,0.0,0.0,0.0,0.0,0.0,0.0,0.0,0.0,0.0,0.0,0.0,0.0,0.0,0.0,0.0,0.0,0.0,0.0,0.0,0.0,0.0,0.0,0.0,0.0,0.0,0.0,0.0,0.0,0.0,0.0,0.0,0.0,0.0,0.0,0.0,0.0,0.0,0.0,0.0,0.0,0.0,0.0,0.0,0.0,0.0,0.0,0.0,0.0,0.0,0.0,0.0,0.0,0.0,0.0,0.0,0.0,0.0,0.0,0.0,0.0,3.4913,3.5224,0.0,3.4827,3.4117,3.331,3.1926,3.0569,2.953,0.0,0.0,0.0,0.0,0.0,0.0,0.0,0.0,0.0,0.0,0.0,0.0,0.0,0.0,0.0,0.0,0.0,0.0,0.0,0.0,0.0,0.0,0.0,0.0,0.0,0.0,0.0,0.0,0.0,0.0,0.0,0.0,0.0,0.0,0.0,0.0,0.0,0.0,0.0,0.0,0.0,0.0,0.0,0.0,0.0,0.0,0.0,0.0,0.0,0.0,0.0,0.0,0.0,0.0,0.0,0.0,0.0,0.0,0.0,0.0,0.0,0.0,0.0,0.0,0.0,0.0,0.0,0.0,0.0,0.0,0.0,0.0,0.0,0.0,0.0,0.0,0.0,0.0,0.0,0.0,0.0,0.0,0.0,0.0,0.0,0.0,0.0,0.0,0.0,0.0,0.0,0.0,0.0,0.0,0.0,0.0,0.0,0.0,0.0,0.0,0.0,0.0,3.5765,3.6098,3.6295,0.0,3.5871,3.5006,3.4211,3.2524,3.1003,2.987,0.0,0.0,0.0,0.0,0.0,0.0,0.0,0.0,0.0,0.0,0.0,0.0,0.0,0.0,0.0,0.0,0.0,0.0,0.0,0.0,0.0,0.0,0.0,0.0,0.0,0.0,0.0,0.0,0.0,0.0,0.0,0.0,0.0,0.0,0.0,0.0,0.0,0.0,0.0,0.0,0.0,0.0,0.0,0.0,0.0,0.0,0.0,0.0,0.0,0.0,0.0,0.0,0.0,0.0,0.0,0.0,0.0,0.0,0.0,0.0,0.0,0.0,0.0,0.0,0.0,0.0,0.0,0.0,0.0,0.0,0.0,0.0,0.0,0.0,0.0,0.0,0.0,0.0,0.0,0.0,0.0,0.0,0.0,0.0,0.0,0.0,0.0,0.0,0.0,0.0,0.0,0.0,0.0,0.0,0.0,0.0,0.0,0.0,0.0,0.0,0.0,0.0,3.6524,3.6563,3.6589,3.7079,3.6874,3.6254,3.5024,3.3573,3.2137,0.0,0.0,0.0,0.0,0.0,0.0,0.0,0.0,0.0,0.0,0.0,0.0,0.0,0.0,0.0,0.0,0.0,0.0,0.0,0.0,0.0,0.0,0.0,0.0,0.0,0.0,0.0,0.0,0.0,0.0,0.0,0.0,0.0,0.0,0.0,0.0,0.0,0.0,0.0,0.0,0.0,0.0,0.0,0.0,0.0,0.0,0.0,0.0,0.0,0.0,0.0,0.0,0.0,0.0,0.0,0.0,0.0,0.0,0.0,0.0,0.0,0.0,0.0,0.0,0.0,0.0,0.0,0.0,0.0,0.0,0.0,0.0,0.0,0.0,0.0,0.0,0.0,0.0,0.0,0.0,0.0,0.0,0.0,0.0,0.0,0.0,0.0,0.0,0.0,0.0,0.0,0.0,0.0,0.0,0.0,0.0,0.0,0.0,0.0,0.0,0.0,0.0,0.0,3.6847,3.7196,3.7535,3.8247,3.7868,3.7062,3.5726,3.4736,3.3228,3.0982,0.0,0.0,0.0,0.0,0.0,0.0,0.0,0.0,0.0,0.0,0.0,0.0,0.0,0.0,0.0,0.0,0.0,0.0,0.0,0.0,0.0,0.0,0.0,0.0,0.0,0.0,0.0,0.0,0.0,0.0,0.0,0.0,0.0,0.0,0.0,0.0,0.0,0.0,0.0,0.0,0.0,0.0,0.0,0.0,0.0,0.0,0.0,0.0,0.0,0.0,0.0,0.0,0.0,0.0,0.0,0.0,0.0,0.0,0.0,0.0,0.0,0.0,0.0,0.0,0.0,0.0,0.0,0.0,0.0,0.0,0.0,0.0,0.0,0.0,0.0,0.0,0.0,0.0,0.0,0.0,0.0,0.0,0.0,0.0,0.0,0.0,0.0,0.0,0.0,0.0,0.0,0.0,0.0,0.0,0.0,0.0,0.0,0.0,0.0,0.0,0.0,0.0,3.6684,3.7391,3.8016,3.8578,3.8537,3.7968,3.6682,3.5874,3.4352,3.187,0.0,0.0,0.0,0.0,0.0,0.0,0.0,0.0,0.0,0.0,0.0,0.0,0.0,0.0,0.0,0.0,0.0,0.0,0.0,0.0,0.0,0.0,0.0,0.0,0.0,0.0,0.0,0.0,0.0,0.0,0.0,0.0,0.0,0.0,0.0,0.0,0.0,0.0,0.0,0.0,0.0,0.0,0.0,0.0,0.0,0.0,0.0,0.0,0.0,0.0,0.0,0.0,0.0,0.0,0.0,0.0,0.0,0.0,0.0,0.0,0.0,0.0,0.0,0.0,0.0,0.0,0.0,0.0,0.0,0.0,0.0,0.0,0.0,0.0,0.0,0.0,0.0,0.0,0.0,0.0,0.0,0.0,0.0,0.0,0.0,0.0,0.0,0.0,0.0,0.0,0.0,0.0,0.0,0.0,0.0,0.0,0.0,0.0,0.0,0.0,0.0,0.0,3.6251,3.7335,3.8166,3.844,3.8961,3.8854,3.7697,3.6931,3.5489,3.3143,0.0,0.0,0.0,0.0,0.0,0.0,0.0,0.0,0.0,0.0,0.0,0.0,0.0,0.0,0.0,0.0,0.0,0.0,0.0,0.0,0.0,0.0,0.0,0.0,0.0,0.0,0.0,0.0,0.0,0.0,0.0,0.0,0.0,0.0,0.0,0.0,0.0,0.0,0.0,0.0,0.0,0.0,0.0,0.0,0.0,0.0,0.0,0.0,0.0,0.0,0.0,0.0,0.0,0.0,0.0,0.0,0.0,0.0,0.0,0.0,3.6257,0.0,0.0,0.0,0.0,0.0,0.0,0.0,0.0,0.0,0.0,0.0,0.0,0.0,0.0,0.0,0.0,0.0,0.0,0.0,0.0,0.0,0.0,0.0,0.0,0.0,0.0,0.0,0.0,0.0,0.0,0.0,0.0,0.0,0.0,0.0,0.0,0.0,0.0,0.0,0.0,0.0,3.6228,3.7492,3.8489,3.8995,3.9397,3.9066,3.7716,3.7468,3.6211,3.3594,3.3145,0.0,0.0,0.0,0.0,0.0,0.0,0.0,0.0,0.0,0.0,0.0,0.0,0.0,0.0,0.0,0.0,0.0,0.0,0.0,0.0,0.0,0.0,0.0,0.0,0.0,0.0,0.0,0.0,0.0,0.0,0.0,0.0,0.0,0.0,0.0,0.0,0.0,0.0,0.0,0.0,0.0,0.0,0.0,0.0,0.0,0.0,0.0,0.0,0.0,0.0,0.0,0.0,0.0,0.0,0.0,0.0,0.0,0.0,0.0,0.0,3.7313,0.0,0.0,0.0,0.0,0.0,0.0,0.0,0.0,0.0,0.0,0.0,0.0,0.0,0.0,0.0,0.0,0.0,0.0,0.0,0.0,0.0,0.0,0.0,0.0,0.0,0.0,0.0,0.0,0.0,0.0,0.0,0.0,0.0,0.0,0.0,0.0,0.0,0.0,0.0,0.0,3.6548,3.7891,3.8879,3.916,3.9373,3.9095,3.809,3.7616,3.6548,3.4487,3.4029,0.0,0.0,0.0,0.0,0.0,0.0,0.0,0.0,0.0,0.0,0.0,0.0,0.0,0.0,0.0,0.0,0.0,0.0,0.0,0.0,0.0,0.0,0.0,0.0,0.0,0.0,0.0,0.0,0.0,0.0,0.0,0.0,0.0,0.0,0.0,0.0,0.0,0.0,0.0,0.0,0.0,0.0,0.0,0.0,0.0,0.0,0.0,0.0,0.0,0.0,0.0,0.0,0.0,4.536,4.5111,4.5084,4.4194,4.3778,4.3697,4.1726,4.0494,3.9843,3.9207,0.0,0.0,0.0,0.0,0.0,0.0,0.0,0.0,0.0,0.0,0.0,0.0,0.0,0.0,0.0,0.0,0.0,0.0,0.0,0.0,0.0,0.0,0.0,0.0,4.0648,4.0342,0.0,0.0,0.0,0.0,0.0,0.0,0.0,0.0,0.0,0.0,0.0,0.0,3.7281,3.8615,3.9473,3.9298,3.9409,3.9191,3.8479,3.768,3.6709,3.5394,3.4853,3.4123,0.0,0.0,0.0,0.0,0.0,0.0,0.0,0.0,0.0,0.0,0.0,0.0,0.0,0.0,0.0,0.0,0.0,0.0,0.0,0.0,0.0,0.0,0.0,0.0,0.0,0.0,0.0,0.0,0.0,0.0,0.0,0.0,4.22,4.2234,0.0,0.0,0.0,0.0,0.0,0.0,0.0,0.0,0.0,0.0,0.0,0.0,0.0,4.5888,4.5985,4.6506,4.6823,4.6899,4.6823,4.6775,4.6775,4.6642,4.6565,4.6565,4.6262,0.0,4.1074,4.0973,0.0,0.0,0.0,0.0,0.0,0.0,0.0,0.0,0.0,0.0,0.0,0.0,0.0,0.0,0.0,0.0,0.0,0.0,0.0,0.0,0.0,0.0,4.3196,4.3196,4.3483,4.3653,0.0,4.1175,3.9033,3.857,3.8488,0.0,0.0,0.0,0.0,0.0,0.0,0.0,3.8773,3.9961,4.0468,3.9726,4.0022,3.9748,3.842,3.7862,3.7042,3.5856,3.55,3.4886,3.3815,3.3164,0.0,0.0,0.0,0.0,0.0,0.0,0.0,0.0,0.0,0.0,0.0,0.0,0.0,0.0,0.0,0.0,0.0,0.0,0.0,0.0,0.0,0.0,0.0,0.0,0.0,0.0,0.0,0.0,0.0,4.4471,4.4809,4.527,4.4911,4.4584,0.0,0.0,0.0,0.0,0.0,0.0,0.0,0.0,0.0,4.7841,4.8631,4.918,4.9528,4.9725,4.9921,5.0096,4.9921,4.9823,4.9823,4.9704,4.9655,4.9626,4.928,4.7929,4.5914,4.4276,4.3168,4.2375,0.0,0.0,0.0,0.0,3.9588,4.0249,4.0495,4.0985,0.0,4.1862,0.0,0.0,0.0,0.0,0.0,0.0,0.0,0.0,0.0,0.0,4.4608,4.4608,4.4733,4.4857,4.4857,4.3732,4.2363,0.0,4.0621,4.0187,3.9109,0.0,0.0,0.0,0.0,3.9873,4.0788,4.1474,4.1726,4.1286,4.097,4.036,3.925,3.8397,3.7681,3.7025,3.6488,3.5839,3.4996,3.4303,3.3657,0.0,0.0,0.0,0.0,0.0,0.0,0.0,0.0,0.0,0.0,0.0,0.0,0.0,0.0,0.0,0.0,0.0,0.0,0.0,0.0,0.0,0.0,0.0,0.0,0.0,0.0,0.0,0.0,4.6594,4.6913,4.7672,4.7822,4.7796,0.0,0.0,0.0,0.0,0.0,0.0,4.8375,4.9307,5.0125,5.0709,5.1294,5.1808,5.2209,5.2258,5.2407,5.2635,5.2407,5.2308,5.2308,5.2109,5.2009,5.198,5.1511,5.1042,5.0359,4.7473,4.5827,4.5091,4.377,4.3101,4.2914,4.2232,4.253,4.3247,4.3253,4.3589,4.4021,4.4392,0.0,4.4516,4.4406,0.0,0.0,0.0,0.0,4.4556,4.4556,4.5065,4.5574,4.5574,4.5693,4.5813,4.5813,4.5813,4.5215,0.0,4.2736,4.225,4.1239,0.0,0.0,0.0,0.0,4.1789,4.2782,4.3081,4.3073,4.2688,4.1998,4.1142,4.0105,3.906,3.8413,3.8206,3.752,3.6888,3.6314,3.5522,3.4822,3.4296,0.0,0.0,0.0,0.0,0.0,0.0,0.0,0.0,0.0,0.0,0.0,0.0,0.0,0.0,0.0,0.0,0.0,0.0,0.0,0.0,0.0,0.0,0.0,0.0,0.0,0.0,0.0,0.0,0.0,4.8727,4.8963,0.0,0.0,0.0,0.0,5.0481,5.1012,5.1389,5.136,5.167,5.19,5.19,5.2407,5.2734,5.2763,5.3028,5.3125,5.3174,5.3125,5.3125,5.3125,5.3125,5.3125,5.3125,5.3096,5.3066,5.2789,4.9764,4.7998,4.7174,4.6541,4.6142,4.586,4.4838,4.46,4.4851,4.4383,4.452,4.4929,4.4971,4.5096,4.5263,4.5244,4.5214,0.0,0.0,4.5214,4.5244,4.5244,4.5753,4.6262,4.6262,4.6741,4.7189,4.7189,4.7189,4.6715,0.0,4.484,4.4684,4.4174,0.0,4.406,4.4089,4.4089,4.4232,4.452,4.4907,4.4603,4.3124,4.2896,4.2201,4.0701,3.9722,3.9264,3.922,3.872,3.8158,3.7616,3.6823,3.6241,3.5869,3.4357,0.0,0.0,0.0,0.0,0.0,0.0,0.0,0.0,0.0,0.0,0.0,0.0,0.0,0.0,0.0,0.0,0.0,0.0,0.0,0.0,0.0,0.0,0.0,0.0,0.0,0.0,0.0,0.0,5.0909,5.15,0.0,5.1743,5.1915,5.2034,5.2034,5.2503,5.301,5.3626,5.3757,5.4116,5.4654,5.4499,5.4311,5.4311,5.4411,5.4461,5.4461,5.4461,5.4461,5.4461,5.4461,5.4461,5.4461,5.4012,5.3832,5.3743,5.2237,5.0851,4.9534,4.8559,4.8016,4.77,4.7141,4.7193,4.748,4.7333,4.7466,4.77,4.7282,4.6608,4.5963,4.5963,4.5633,4.5304,4.5304,4.5603,4.5963,4.5963,4.6441,4.695,4.695,4.713,4.7309,4.7309,4.7309,4.7116,4.6595,4.6135,4.5645,4.5072,4.4941,4.4941,4.4941,4.4941,4.5119,4.565,4.5747,4.5545,4.5001,4.4253,4.3358,4.2237,4.1355,4.076,4.0603,4.0087,3.9621,3.9057,3.797,3.716,3.6852,3.5588,3.4754,0.0,0.0,0.0,0.0,0.0,0.0,0.0,0.0,0.0,0.0,0.0,0.0,0.0,0.0,0.0,0.0,0.0,0.0,0.0,0.0,0.0,0.0,0.0,0.0,0.0,0.0,5.1558,5.2426,5.3114,5.3533,5.3533,5.3774,5.3943,5.3943,5.4387,5.49,5.5521,5.5581,5.5893,5.6466,5.6047,5.5718,5.5538,5.5538,5.5418,5.5179,5.5179,5.5179,5.5179,5.5179,5.5179,5.5179,5.473,5.4551,5.4491,5.3803,5.2927,5.1917,5.0614,4.9994,4.9719,4.909,4.9051,4.9326,4.9088,4.9164,4.9239,4.8745,4.7878,4.698,4.698,4.6501,4.5963,4.5963,4.6292,4.6651,4.6651,4.698,4.7309,4.7309,4.7309,4.7309,4.7309,4.7309,4.7309,4.7309,4.695,4.6501,4.6052,4.5963,4.5963,4.5963,4.5963,4.6142,4.6591,4.6522,4.6377,4.6109,4.5175,4.42,4.3429,4.2495,4.1868,4.1686,4.1268,4.0887,4.0447,3.9326,3.8504,3.8053,3.6583,3.5656,3.5166,0.0,0.0,0.0,0.0,0.0,0.0,0.0,0.0,0.0,0.0,0.0,0.0,0.0,0.0,0.0,0.0,0.0,0.0,0.0,0.0,0.0,0.0,0.0,5.1229,5.1259,5.1798,5.3054,5.3832,5.4281,5.4281,5.5448,5.6248,5.6248,5.6765,5.7094,5.7124,5.7094,5.7094,5.7124,5.7094,5.6795,5.6248,5.6248,5.5837,5.5209,5.5209,5.5179,5.5179,5.5179,5.5179,5.5179,5.5179,5.5179,5.5149,5.4491,5.4251,5.4102,5.2755,5.2217,5.2037,5.0734,5.0255,5.0136,4.9553,4.9359,4.9329,4.9329,4.891,4.8327,4.8327,4.7878,4.7369,4.7339,4.7339,4.7339,4.7309,4.7309,4.7309,4.7309,4.7309,4.7309,4.7309,4.7309,4.7309,4.7309,4.7309,4.7309,4.7309,4.7309,4.7309,4.7309,4.7309,0.0,4.7309,4.7309,4.707,4.6369,4.5543,4.4763,4.4109,4.3089,4.2462,4.2433,4.217,4.1922,4.1744,4.0945,4.0192,3.9493,3.7317,3.5889,3.5272,0.0,0.0,0.0,0.0,0.0,0.0,0.0,0.0,0.0,0.0,0.0,0.0,0.0,0.0,0.0,0.0,0.0,0.0,0.0,0.0,0.0,0.0,5.1229,5.1229,5.2486,5.3533,5.3892,5.494,5.5628,5.5628,5.6376,5.6825,5.6825,5.7004,5.7304,5.7812,5.7363,5.7334,5.7812,5.7363,5.7004,5.6825,5.6406,5.6077,5.5897,5.5418,5.5179,5.5179,5.5179,5.5179,5.5179,5.5179,5.5179,5.5179,5.4999,5.491,5.479,5.3443,5.2606,5.2157,5.1798,5.1349,5.0883,5.075,5.0361,4.9972,4.9972,4.9523,4.906,4.906,4.891,4.8626,4.8147,4.8027,4.7908,4.7429,4.7309,4.7309,4.7309,4.7309,4.7309,4.7309,4.7309,4.7309,4.7309,4.7309,4.7309,4.7309,4.7309,4.7309,4.7309,4.7309,0.0,4.7309,4.7309,4.7249,4.704,4.6356,4.5699,4.5012,4.4232,4.3556,4.308,4.282,4.2618,4.2444,4.1465,4.0343,3.9089,3.8582,3.7949,0.0,0.0,0.0,0.0,0.0,0.0,0.0,0.0,0.0,0.0,0.0,0.0,0.0,0.0,0.0,0.0,0.0,0.0,0.0,0.0,0.0,0.0,5.2097,5.2576,5.2845,5.3892,5.473,5.4999,5.5927,5.6555,5.6555,5.7154,5.7513,5.7513,5.7782,5.8112,5.853,5.8141,5.8112,5.853,5.8141,5.7812,5.7513,5.7184,5.6705,5.6218,5.5777,5.5448,5.5179,5.5179,5.5179,0.0,5.5179,5.5179,5.5179,5.5179,5.5179,0.0,0.0,0.0,0.0,0.0,5.1798,5.1229,5.1229,5.0913,5.0614,5.0614,5.0212,4.9673,4.9673,4.9494,4.9239,4.885,4.8686,4.864,4.8237,4.8117,4.8117,4.8117,4.7908,4.7728,4.7728,4.7489,4.7309,4.7309,4.7309,0.0,4.7309,4.7309,4.7309,4.7309,4.7309,4.7309,4.7309,4.7309,4.7309,4.7309,4.6711,4.613,4.5753,4.4855,0.0,0.0,0.0,4.305,4.285,4.1869,0.0,0.0,0.0,0.0,0.0,0.0,0.0,0.0,3.6862,3.7277,0.0,0.0,0.0,0.0,0.0,0.0,0.0,0.0,0.0,0.0,0.0,0.0,0.0,0.0,0.0,0.0,5.3533,5.4581,5.5299,5.5478,5.5718,5.6226,5.6825,5.7214,5.7214,5.7842,5.8261,5.8351,5.883,5.9129,5.9219,0.0,0.0,0.0,0.0,5.883,5.8231,5.8171,5.7543,5.6376,5.6308,5.5867,5.5299,5.5209,5.5179,5.5179,5.5179,5.5179,5.5179,5.5179,5.5179,5.5119,5.4461,5.4221,5.4042,5.2695,5.1828,5.1319,5.1259,0.0,0.0,5.1229,5.0794,5.0315,5.0315,4.9942,4.9509,4.9449,4.9419,4.9419,4.9329,4.9299,4.9299,4.9299,4.888,4.8386,4.8386,4.7878,4.7429,4.7429,4.7369,4.7309,4.7309,4.7309,4.7309,4.7309,4.7309,4.7309,4.7309,4.7309,4.7309,4.7309,0.0,0.0,4.6279,4.5214,4.4466,4.4317,4.3648,4.321,4.3021,4.2248,4.1804,4.1715,4.1194,4.0831,4.0588,4.0676,4.0627,4.046,3.9928,4.0003,0.0,0.0,0.0,0.0,0.0,0.0,0.0,0.0,0.0,0.0,0.0,0.0,0.0,0.0,0.0,5.4401,5.482,5.5388,5.6555,5.7214,5.7393,5.6974,5.7513,5.7932,5.7932,5.853,5.9129,5.9668,5.9338,5.9338,5.9877,5.9398,5.9099,5.9099,5.9099,5.9039,5.8919,5.8381,5.7992,5.7723,0.0,0.0,5.5957,5.5448,5.5179,5.5179,5.5179,5.5179,5.5179,5.5179,5.5179,5.5119,5.4461,5.4221,5.4042,5.2695,5.2127,5.1947,5.1409,5.1229,5.1229,5.1229,5.1139,5.0973,5.0973,5.093,0.0,5.0212,5.0016,4.9912,4.9449,4.9299,4.9299,4.9299,4.9209,4.912,4.912,4.8566,4.8087,4.8087,4.7668,4.7309,4.7309,4.7309,4.7309,4.7309,4.7309,4.7309,4.7309,4.7309,4.7309,4.7309,4.7189,4.689,4.6339,4.604,4.5442,4.4377,4.3528,4.3021,4.2981,4.2691,4.2326,4.1952,4.1804,4.1585,4.1232,4.1769,4.2008,4.193,4.1153,4.114,0.0,0.0,0.0,0.0,0.0,0.0,0.0,0.0,0.0,0.0,0.0,5.3594,0.0,0.0,5.4999,5.5987,5.6137,5.6496,5.7453,5.7902,5.7992,5.7663,5.8201,5.874,5.9069,5.9398,5.9877,6.0565,6.0296,6.0266,6.0595,5.9967,5.9608,5.9608,5.9279,5.9099,5.9099,5.877,5.8441,5.8112,5.7453,5.6795,5.6218,5.5837,5.5508,5.5179,5.5179,5.5179,5.5179,5.5179,5.5179,5.5149,5.482,5.4491,5.4132,5.3443,5.2785,5.2157,5.1828,5.1498,5.1229,5.1229,5.1229,5.1229,5.1229,5.1229,5.1139,5.0764,5.0674,5.0661,5.0331,5.0242,5.0242,5.0242,5.0002,4.9763,4.9763,4.9224,4.882,4.882,4.8237,4.7788,4.7788,4.7519,4.7309,4.7309,4.7309,4.7309,4.7309,4.7309,4.7309,4.7309,4.7309,4.716,4.683,4.6501,4.5903,4.4855,4.4086,4.3647,4.3647,4.3229,4.2902,4.2654,4.2624,4.2554,4.2372,4.303,4.3329,4.3359,4.3256,4.3201,0.0,0.0,0.0,0.0,0.0,0.0,0.0,5.5076,5.5091,5.5657,5.575,5.5906,5.634,5.6547,5.6822,5.7468,5.7588,5.7835,5.859,5.871,5.871,5.871,5.9039,5.9518,6.0027,6.0206,6.0565,6.1253,6.1194,6.1164,6.1313,6.0655,6.0206,6.0086,5.9578,5.9249,5.9099,5.9099,5.883,5.8321,5.8171,5.7513,5.6346,5.6226,5.5807,5.5179,5.5179,5.5179,5.5179,5.5179,5.5179,5.5179,5.5179,5.488,5.4371,5.4251,5.3533,5.2576,5.2426,5.1947,5.1409,5.1409,5.1319,5.1229,5.1229,5.1229,5.1229,5.1229,5.1229,5.1229,5.1229,5.1229,5.1229,5.1229,5.0764,5.0375,5.0375,4.9912,4.9464,4.9464,4.8925,4.8446,4.8297,4.7848,4.7459,4.7339,4.7309,4.7309,4.7309,4.7309,4.7309,4.7309,4.7309,4.7309,4.7309,4.6711,4.6082,4.5544,4.4885,4.4496,4.4496,4.3988,4.3678,4.3678,4.3678,4.3678,4.3678,4.4257,4.4496,4.4526,4.5185,4.5214,5.1921,5.3219,5.4456,5.5436,5.5979,5.6432,0.0,5.7051,5.7119,5.8019,5.7667,5.749,5.83,5.8307,5.841,5.9077,5.9235,5.9579,6.0595,6.0775,6.0775,6.0775,6.0296,5.9997,6.0086,6.0625,6.1283,6.1942,6.1433,6.1373,6.1972,6.1343,6.0715,6.0116,6.0027,5.9697,5.9099,5.9099,5.9069,5.8979,5.8411,5.7723,5.6974,5.6406,5.5807,5.5179,5.5179,5.5179,5.5179,5.5179,5.5179,5.5179,5.5179,5.5149,5.4999,5.4431,5.4132,5.3892,5.3294,5.2636,5.2097,5.2097,5.1708,5.1229,5.1229,5.1229,5.1229,5.1229,5.1229,5.1229,5.1229,5.1229,5.1229,5.1229,5.1169,5.1109,5.1109,5.0601,5.0076,5.0076,4.9613,4.903,4.8386,4.8237,4.7967,4.7399,4.7309,4.7309,4.7309,4.7309,4.7309,4.7309,4.7309,4.7309,4.7309,4.6711,4.6249,4.6202,4.5574,4.5185,4.5185,4.5125,4.5065,4.5065,4.5065,4.5065,4.5065,4.5155,4.5185,4.5185,4.5903,4.613,5.4119,5.5463,5.6676,5.7086,5.7842,5.8686,5.9303,5.902,5.885,5.9811,5.95,5.9155,5.9544,5.9922,6.0158,0.0,6.0434,6.0776,6.1044,6.1104,6.1104,6.1104,6.1194,6.1253,6.1253,6.1523,6.1972,6.263,6.2421,6.2391,6.266,6.2061,6.1553,6.1253,6.0505,5.9967,5.9668,5.9308,5.9099,5.9099,5.883,5.8351,5.7663,5.7004,5.6166,5.5179,5.5179,5.5179,5.5179,5.5179,5.5179,5.5179,5.5179,5.5179,5.5149,5.488,5.4551,5.4162,5.3892,5.3324,5.2695,5.2336,5.2007,5.1708,5.1319,5.1229,5.1229,5.1229,5.1229,5.1229,5.1229,5.1229,5.1229,5.1229,5.1229,5.1229,5.1229,5.099,5.0764,5.0764,5.0272,4.9733,4.9464,4.8775,4.8177,4.7908,4.7549,4.7309,4.7309,4.7309,4.7309,4.7309,4.7309,4.7309,4.7309,4.704,4.689,4.689,4.6262,4.5903,4.5903,4.5514,4.5304,4.5304,4.5304,4.5304,4.5304,4.5693,4.5903,4.5903,4.6591,4.689,5.6122,5.7239,5.8287,5.8727,5.949,6.028,6.1054,6.0584,6.028,6.1306,6.105,6.0693,6.0908,6.1423,6.166,6.1092,6.1503,6.185,6.1669,6.1642,6.1642,6.1642,6.2061,6.2361,6.2361,6.2361,6.257,6.3049,6.3079,6.3079,6.3079,6.263,6.2271,6.2091,6.0984,6.0266,6.0086,5.9428,5.9099,5.9099,5.9099,5.877,5.8082,5.7244,5.6226,5.5179,5.5179,5.5179,5.5179,5.5179,5.5179,5.5179,5.5179,5.5179,5.5179,5.5179,5.488,5.4491,5.4491,5.4042,5.3354,5.2695,5.2336,5.2067,5.1409,5.1229,5.1229,5.1229,5.1229,5.1229,5.1229,5.1229,5.1229,5.1229,5.1229,5.1229,5.1229,5.1229,5.1229,5.1229,5.0794,5.0405,5.0226,4.9464,4.8686,4.8327,4.7878,4.7519,4.7339,4.7309,4.7309,4.7309,4.7309,4.7309,4.7309,4.7309,4.7309,4.7309,4.686,4.6591,4.6591,4.6112,4.5843,4.5843,4.5843,4.5843,4.5843,4.6352,4.6591,4.6621,4.707,4.7309,5.7611,5.8389,5.9336,6.0825,6.1042,6.1054,6.1795,6.1473,6.1399,6.2529,6.2207,6.1966,6.2619,6.2852,6.2778,6.235,6.2585,6.2919,6.3044,6.3019,6.3019,6.3019,6.3049,6.3049,0.0,6.3049,6.3049,6.3079,6.3079,6.3079,6.3079,6.3049,6.275,6.2121,6.1433,6.0775,6.0086,5.9428,5.9099,5.9099,5.9099,5.877,5.8082,5.6795,5.5837,5.5179,5.5179,5.5179,5.5179,5.5179,5.5179,5.5179,5.5179,5.5179,5.5179,5.5179,5.5179,5.5149,5.5149,5.473,5.4072,5.3384,5.2725,5.2067,5.1409,5.1229,5.1229,5.1229,5.1229,5.1229,5.1229,5.1229,5.1229,5.1229,5.1229,5.1229,5.1229,5.1229,5.1229,5.1229,5.1199,5.0943,5.0315,5.0166,4.9687,4.8476,4.8267,4.8027,4.7399,4.7309,4.7309,4.7309,4.7309,4.7309,4.7309,4.7309,4.7309,4.7309,4.7279,4.7279,4.7279,4.7249,4.7249,4.7249,4.7249,4.7249,4.7249,4.7279,4.7279,4.7279,4.7309,4.7309,5.8321,5.9167,5.9979,6.1028,6.1631,6.1925,6.2234,6.187,6.1724,6.2405,6.2235,6.2081,6.23,6.3065,6.336,6.2441,6.3066,6.3494,6.3164,6.3079,6.3079,6.3079,6.3079,0.0,0.0,0.0,0.0,6.3079,6.3079,6.3079,6.3079,6.3079,6.2989,6.275,6.1672,6.1014,6.0775,5.9668,5.9099,5.9099,5.9099,5.853,5.7423,5.6974,5.6196,5.5179,5.5179,5.5179,5.5179,5.5179,5.5179,5.5179,5.5179,5.5179,5.5179,5.5179,5.5179,5.5179,5.5179,5.5029,5.476,5.4072,5.3414,5.2725,5.2067,5.1558,5.1229,5.1229,5.1229,5.1229,5.1229,5.1229,5.1229,5.1229,5.1229,5.1229,5.1229,5.1229,5.1229,5.1229,5.1229,5.1139,5.0883,5.0495,4.9942,4.9075,4.8207,4.7549,4.7339,4.7309,4.7309,4.7309,4.7309,4.7309,4.7309,4.7309,4.7309,4.7309,4.7309,4.7309,4.7309,4.7309,4.7309,4.7309,4.7309,4.7309,4.7309,4.7309,4.7309,4.7309,4.7309,4.7309,5.9066,5.9945,6.0723,6.1501,6.2042,6.2381,6.2381,6.207,6.1991,6.2531,6.2633,6.2647,6.2696,6.3836,6.4283,6.3083,6.38,6.4279,6.3667,6.3612,6.3524,6.3466,6.3408,6.3318,0.0,0.0,0.0,6.3079,6.3079,6.3079,6.3079,6.3079,6.3079,6.3079,6.1792,6.1104,6.1104,5.9787,5.9099,5.9099,5.9099,5.8411,5.7094,5.7094,5.6406,5.5179,5.5179,5.5179,5.5179,5.5179,5.5179,5.5179,5.5179,5.5179,5.5179,5.5179,5.5179,5.5179,5.5179,5.5179,5.5089,5.4431,5.3922,5.3414,5.2755,5.2097,5.1558,5.1558,5.1409,5.1229,5.1229,5.1229,5.1229,5.1229,5.1229,5.1229,5.1229,5.1229,5.1229,5.1229,5.1229,5.1229,5.1229,5.0614,5.0046,4.9673,4.8686,4.7908,4.7698,4.7459,4.7309,4.7309,4.7309,4.7309,4.7309,4.7519,4.7668,4.7668,4.7668,4.7668,4.7668,4.7429,4.7309,4.7309,4.7309,4.7309,4.7309,4.7309,4.7309,4.7309,4.7309,4.7309,5.9979,6.0723,6.1467,6.2212,6.2381,6.2381,6.2381,6.2189,6.2199,6.2906,6.3308,6.3577,0.0,0.0,6.5445,6.4149,6.4658,6.5042,6.4586,6.4503,6.4387,0.0,0.0,0.0,0.0,0.0,0.0,6.3079,0.0,6.3079,6.3079,6.3079,6.3079,6.3079,6.1792,6.1104,6.1104,5.9787,5.9099,5.9099,5.9099,5.8411,5.7154,5.7124,5.6406,5.5239,5.5209,5.5179,5.5179,5.5179,5.5179,5.5179,5.5179,5.5179,5.5179,5.5179,5.5179,5.5179,5.5179,5.5179,5.5089,5.4461,5.4251,5.4072,5.3443,5.2785,5.2247,5.2217,5.1738,5.1259,5.1229,5.1229,5.1229,5.1229,5.1229,5.1229,5.1229,5.1229,5.1229,5.1229,5.1229,5.1229,5.1229,5.0644,5.0255,5.0255,4.9733,4.912,4.8416,4.7788,4.7399,4.7399,4.7399,4.7399,4.7399,4.7967,4.8327,4.8327,4.8327,4.8327,4.8327,4.7728,4.7399,4.7369,4.7369,4.7339,4.7309,4.7339,4.7369,4.7369,4.7399,4.7399,6.0791,6.1129,6.1467,6.2212,6.2381,6.2381,6.2381,6.2189,6.203,6.2232,6.2505,6.278,6.3034,6.376,0.0,6.4279,6.4359,0.0,6.4782,6.4619,0.0,6.4065,0.0,6.3767,6.3139,6.3079,0.0,0.0,6.3079,6.3079,6.3079,6.3079,6.3079,6.3079,6.1792,6.1104,6.1104,5.9787,5.9099,5.9099,5.9099,5.868,5.7842,5.7334,5.6675,5.5948,5.5418,5.5179,5.5179,5.5179,5.5179,5.5179,5.5179,5.5179,5.5179,5.5179,5.5179,5.5179,5.5179,5.5179,5.5149,5.4999,5.461,5.4192,5.4012,5.3473,5.2863,5.2605,5.2382,5.2141,5.1892,5.1818,5.1741,5.1556,5.1479,5.1433,5.1229,5.1229,5.1229,5.1229,5.1229,5.1229,5.1229,5.1079,5.0913,5.0913,5.0421,4.9763,4.9149,4.891,4.882,4.882,4.882,4.882,4.882,4.897,4.906,4.906,4.906,4.906,4.906,4.891,4.858,4.8027,4.8027,4.7788,4.7309,4.7788,4.8027,4.8057,4.8536,4.882,6.1197,6.1535,6.1873,6.2279,6.2381,6.2381,6.2381,6.2268,6.2189,6.2189,6.2562,6.2974,6.3406,6.4089,6.4724,0.0,0.0,0.0,6.5063,6.515,6.4925,0.0,6.4455,0.0,6.3558,6.3228,6.3079,0.0,6.3079,6.3079,6.3079,6.3079,6.3079,6.3079,6.1792,6.0835,6.0236,5.9488,5.9099,5.9099,5.9099,5.877,5.8112,5.7423,5.6765,5.6188,0.0,5.5179,5.5179,5.5179,5.5179,5.5179,5.5179,5.528,5.5381,5.5381,5.5431,5.5531,5.5531,5.5531,5.5531,5.528,5.504,5.484,5.484,5.4507,5.4117,5.388,5.3783,5.3544,5.3009,5.2902,5.2795,5.2322,5.2079,5.1849,5.1711,5.1526,5.1339,5.1229,5.1229,5.1229,5.1229,5.1229,5.1229,5.1229,5.09,5.0541,5.0182,4.9659,4.9299,4.9299,4.9299,4.9299,4.9299,4.9523,4.9673,4.9673,4.9673,4.9673,4.9673,4.9404,4.9149,4.876,4.876,4.8536,4.8177,4.858,4.876,4.876,4.9149,4.9299,6.1467,6.1907,6.2381,6.2381,6.2381,6.2381,6.2381,6.2381,6.2381,6.2381,6.2922,6.3518,6.4057,6.4838,6.5424,6.5673,0.0,6.5544,6.5335,6.5532,6.5493,6.4934,6.4904,6.4635,6.3947,6.3378,6.3079,6.3079,6.3079,6.3079,6.3079,6.3079,6.2989,6.281,6.1702,6.0475,5.9129,5.9099,5.9099,5.9099,5.9099,5.88,5.8231,5.7453,5.6795,5.6308,5.5508,0.0,5.5179,5.5179,5.5179,5.5179,5.5179,5.533,5.5581,5.5581,5.578,5.6028,5.6028,5.6077,5.6028,5.5481,5.5481,5.5631,5.5681,5.5603,5.5582,5.5555,5.5519,5.5237,5.4567,5.4411,5.4255,5.3481,5.297,5.2624,5.2442,5.2033,5.1665,5.1433,5.1339,5.1339,5.1339,5.1293,5.1246,5.1246,5.1229,5.1229,5.1229,5.0242,4.9569,4.9569,4.9569,4.9569,4.9569,5.0032,5.0315,5.0315,5.0315,5.0315,5.0315,4.9823,4.9539,4.9449,4.9449,4.9389,4.9299,4.9389,4.9449,4.9449,4.9539,4.9569,6.2212,6.2279,6.2381,6.2381,6.2381,6.2381,6.2381,6.2381,6.2381,6.2381,6.2482,6.2741,6.3215,6.3508,6.3804,6.4431,6.4406,6.4454,6.4881,6.4805,6.4595,0.0,6.4186,6.3917,6.3288,6.3139,0.0,0.0,0.0,6.3079,6.3079,6.3079,6.257,6.1493,6.1224,6.0475,5.9129,5.9099,5.9099,5.9099,5.9099,5.9039,5.889,5.7663,5.7034,5.6885,5.5688,0.0,5.5179,5.5179,5.5179,5.5179,5.5179,5.533,5.5581,5.5581,5.5849,5.6262,5.6262,5.636,5.6506,5.6028,5.588,5.5979,5.6145,5.6347,5.6519,5.6544,5.6709,5.6776,5.6479,5.6419,5.6098,5.4976,5.4687,5.4267,5.3117,5.2712,5.2487,5.2442,5.2261,5.2124,5.2124,5.1803,5.1526,5.1526,5.1339,5.1229,5.1229,5.102,5.087,5.087,5.087,5.087,5.087,5.099,5.105,5.105,5.105,5.105,5.105,5.093,5.0631,5.0016,5.0016,4.9793,4.9299,4.9793,5.0016,5.0092,5.0631,5.087,6.2381,6.2381,6.2381,6.2381,6.2381,6.2381,6.2381,6.2381,6.2381,6.2381,6.2381,6.2578,6.3168,6.3157,6.3315,6.4237,6.3902,6.3657,6.422,6.4218,6.4138,6.4005,6.4006,6.3887,6.3588,6.3258,6.3079,0.0,0.0,6.3079,6.3079,6.3079,6.248,6.1164,6.1104,6.0475,5.9129,5.9099,5.9099,5.9099,5.9099,5.9099,5.9069,5.7723,5.7094,5.7034,5.5748,0.0,5.5179,5.5179,5.5179,5.5179,5.5179,5.5431,5.583,5.583,5.6195,5.6748,5.6892,5.718,5.7464,5.737,5.7115,5.6827,5.7036,5.7527,5.8085,5.8223,5.8619,5.8885,5.8302,5.815,5.7828,5.6649,5.5814,5.5031,5.3939,5.3406,5.298,5.2757,5.2487,5.2306,5.2306,5.1895,5.1572,5.1572,5.1369,5.1229,5.1229,5.1229,5.1229,5.1229,5.1229,5.1229,5.1229,5.1229,5.1229,5.1229,5.1229,5.1229,5.1229,5.1229,5.1079,5.0704,5.0704,5.0601,5.0272,5.0601,5.0704,5.0704,5.1079,5.1229,6.2381,6.2381,6.2381,6.2381,6.2381,6.2381,6.2381,6.2381,6.2381,6.2381,6.2381,6.2584,6.3159,6.2959,6.304,6.4018,6.3479,6.3051,6.3508,6.3648,6.3676,6.3702,6.3765,0.0,6.3797,6.3378,0.0,0.0,0.0,0.0,6.3079,6.3079,6.248,6.1164,6.1104,6.0475,5.9129,5.9099,5.9099,5.9099,5.9099,5.9099,5.9069,5.7723,5.7094,5.7034,5.5748,0.0,0.0,5.5179,5.5179,5.5179,5.5179,5.5481,5.5929,5.5979,5.6488,5.7132,5.7495,5.7933,5.8395,5.8714,5.8349,5.784,5.8072,5.8728,5.9487,5.9751,6.0345,6.067,5.9909,5.9745,5.9455,5.8307,5.6969,5.5814,5.5216,5.4461,5.3815,5.3375,5.2894,5.2532,5.2532,5.2079,5.1695,5.1695,5.1416,5.1229,5.1229,5.1229,5.1229,5.1229,5.1229,5.1229,5.1229,5.1229,5.1229,5.1229,5.1229,5.1229,5.1229,5.1229,5.1229,5.1229,5.1229,5.1229,5.1229,5.1229,5.1229,5.1229,5.1229,5.1229,6.2381,6.2381,6.2381,6.2381,6.2381,6.2381,6.2381,6.2381,6.2381,6.2381,6.2381,6.2415,6.2482,6.2468,6.2547,6.2892,6.2787,6.2653,6.2674,6.2856,6.2884,6.2638,0.0,0.0,6.3169,6.3109,0.0,0.0,0.0,0.0,6.3079,6.3079,6.248,6.1164,6.1104,6.0475,5.9129,5.9099,5.9099,5.9099,5.9099,5.9099,5.9069,5.7723,5.7094,5.7034,5.5748,0.0,0.0,5.5179,5.5179,5.5179,5.5179,5.5381,5.5681,5.5929,5.6488,5.718,5.7684,5.8335,5.8972,5.9464,5.9209,5.885,5.9075,5.952,6.0044,6.0473,6.0969,6.1342,6.1235,6.1201,6.0953,5.9804,5.8423,5.7397,5.7322,5.6402,5.5506,5.5312,5.4166,5.329,5.329,5.2563,5.1956,5.1956,5.1509,5.1229,5.1229,5.1229,5.1229,5.1229,5.1229,5.1229,5.1229,5.1229,5.1229,5.1229,5.1229,5.1229,5.1229,5.1229,5.1229,5.1229,5.1229,5.1229,5.1229,5.1229,5.1229,5.1229,5.1229,5.1229,6.2279,6.2381,6.2381,6.2381,6.2381,6.2381,6.2381,6.2381,6.2381,6.2381,6.2381,6.2381,6.2381,6.2266,6.2215,6.2359,6.2313,6.2236,6.2154,6.2174,6.2238,6.2479,6.2502,0.0,0.0,0.0,0.0,0.0,0.0,0.0,6.3079,6.3079,6.266,6.1732,6.1313,6.0655,5.9697,5.9308,5.9099,5.9099,5.9099,5.889,5.8471,5.7543,5.6885,5.6496,5.5598,0.0,0.0,5.5179,5.5179,5.5179,5.5179,5.533,5.5631,5.5731,5.6244,5.694,5.7495,5.8335,5.9286,5.9903,6.0259,6.0388,6.0312,6.0642,6.1103,6.1391,6.175,6.1944,6.1669,6.1177,6.0694,6.0355,5.9385,5.844,5.827,5.7431,5.6531,5.6042,5.5247,5.4567,5.4219,5.3652,5.3139,5.2997,5.2665,5.2396,5.2396,5.2396,5.2396,5.2396,5.1678,5.1229,5.1229,5.1229,5.1229,5.1229,5.1229,5.1229,5.1229,5.1229,5.1229,5.1229,5.1229,5.1229,5.1229,5.1229,5.1229,5.1229,5.1229,5.1229,6.1941,6.2212,6.2381,6.2381,6.2381,6.2381,6.2381,6.2381,6.2381,6.2381,6.2381,6.2381,6.2381,6.215,6.2065,6.2266,6.2311,6.2223,6.1992,6.2039,6.2126,6.2425,0.0,6.2475,0.0,6.3079,0.0,0.0,0.0,0.0,6.3079,6.3079,6.269,6.1822,6.1373,6.0685,5.9787,5.9338,5.9099,5.9099,5.9099,5.877,5.8112,5.7423,5.6765,5.6188,5.5478,0.0,0.0,5.5179,5.5179,5.5179,5.5179,5.533,5.5481,5.5581,5.5948,5.6554,5.718,5.8119,5.9209,6.0033,6.0802,6.1383,6.135,6.1513,6.183,6.1957,6.215,6.2189,6.187,6.126,6.076,6.0969,6.0322,5.9666,5.9445,5.8645,5.771,5.7049,5.6315,5.5649,5.5101,5.4589,5.4118,5.3736,5.3495,5.3271,5.3223,5.3174,5.3174,5.3174,5.2366,5.1798,5.1798,5.1798,5.1708,5.1528,5.1498,5.1439,5.1229,5.1229,5.1229,5.1229,5.1229,5.1229,5.1229,5.1229,5.1229,5.1229,5.1229,5.1229,6.1332,6.1839,6.2381,6.2381,6.2381,6.2381,6.2381,6.2381,6.2381,6.2381,6.2381,6.2381,6.2381,6.2189,6.2152,6.2714,6.2785,6.2692,6.2403,6.2707,6.2727,0.0,0.0,6.2645,6.3077,0.0,0.0,0.0,0.0,0.0,6.3079,6.3079,6.248,6.1164,6.1104,6.0475,5.9129,5.9099,5.9099,5.9099,5.9099,5.877,5.8112,5.7423,5.6765,0.0,0.0,0.0,0.0,5.5179,5.5179,5.5179,5.5179,5.5179,5.5229,5.5481,5.575,5.6017,5.6844,5.7746,5.876,5.9696,6.0642,6.1465,6.1877,6.1997,6.1997,6.1997,6.1997,6.1997,6.1997,6.1676,6.1424,6.1628,6.1547,6.1301,6.1127,6.0324,5.9464,5.882,5.7483,5.6347,5.5889,5.5208,5.4512,5.407,5.3736,5.3495,5.3223,5.3174,5.3174,5.3174,5.3174,5.3144,5.3144,5.3144,5.2875,5.2247,5.2187,5.1887,5.1259,5.1229,5.1229,5.1229,5.1229,5.1229,5.1229,5.1229,5.1229,5.1229,5.1229,5.1229,6.1028,6.1467,6.1772,6.2245,6.2381,6.2381,6.2381,6.2381,6.2381,6.2381,6.2381,6.2381,6.2381,6.2341,6.229,6.2287,6.2833,6.2968,6.2035,0.0,0.0,6.176,6.2017,6.2475,0.0,0.0,0.0,0.0,0.0,0.0,6.2421,6.2421,6.2211,6.1792,6.1343,6.0685,5.9787,5.9338,5.9099,5.9099,5.865,5.8082,5.7393,5.6765,5.6107,0.0,0.0,0.0,0.0,5.5179,5.5179,5.5179,5.5179,5.5179,5.5179,5.528,5.5481,5.575,5.636,5.7227,5.8257,5.9177,6.0173,6.1053,6.1628,6.203,6.2268,6.2268,6.215,6.1997,6.1997,6.1676,6.1424,6.1669,6.1547,6.1383,6.1334,6.0937,6.0364,5.9718,5.9058,5.837,5.7593,5.7088,5.6669,5.618,5.5748,5.5408,5.5329,5.5016,5.4849,5.4849,5.465,5.4192,5.3264,5.3174,5.3084,5.2875,5.2875,5.2576,5.1917,5.1887,5.1678,5.1229,5.1229,5.1229,5.1229,5.1229,5.1229,5.1229,5.1229,5.1229,6.0114,6.0858,6.14,6.1873,6.2178,6.2381,6.2381,6.2381,6.2381,6.2381,6.2381,6.2381,6.2381,6.2381,6.2341,6.2183,6.2989,6.3249,0.0,0.0,0.0,6.1684,0.0,0.0,0.0,0.0,0.0,0.0,0.0,0.0,6.1762,6.1732,6.1613,6.1343,6.0924,6.0386,5.9727,5.9308,5.9099,5.9099,5.8441,5.7752,5.7064,5.6466,5.5807,0.0,0.0,0.0,0.0,5.5179,5.5179,5.5179,5.5179,5.5179,5.5179,5.5179,5.528,5.5531,5.5998,5.6796,5.7668,5.8683,5.9914,6.1094,6.1669,6.207,6.2381,6.2381,6.2268,6.215,6.215,6.1951,6.179,6.1911,6.187,6.175,6.1669,6.1513,6.1193,6.0642,6.0312,5.9849,5.8998,5.8683,5.8272,5.7606,5.7227,5.694,5.6651,5.6293,5.5998,5.5849,5.5581,5.5,5.4209,5.3972,5.3832,5.3593,5.3563,5.3264,5.2606,5.2576,5.2366,5.1977,5.1708,5.1588,5.1588,5.1349,5.1229,5.1229,5.1229,5.1229,0.0,6.0047,6.1231,6.1298,6.1839,6.2381,6.2381,6.2381,0.0,6.2381,6.2381,6.2381,6.2381,6.2381,6.2381,6.2381,6.3228,0.0,0.0,6.2722,0.0,0.0,6.1945,0.0,0.0,0.0,0.0,0.0,0.0,0.0,6.1074,6.1044,6.0715,6.0027,6.0027,5.9727,5.9099,5.9099,5.9069,5.9039,5.8351,5.7693,5.7004,5.6376,5.5777,0.0,0.0,0.0,0.0,5.5179,5.5179,5.5179,5.5179,5.5179,5.5179,5.5179,5.5179,5.528,5.583,5.6488,5.7275,5.8349,5.9914,6.1465,6.1837,6.2189,6.2381,6.2381,6.2381,6.2381,6.2381,6.2381,6.2381,6.2381,6.2381,6.2341,6.2076,6.2037,6.1917,6.1506,6.1227,6.0861,6.0216,5.9881,5.9367,5.8501,5.8349,5.8072,5.737,5.6988,5.67,5.6457,5.5948,5.5681,5.5631,5.5381,5.494,5.4311,5.4281,5.3982,5.3294,5.3264,5.3234,5.3174,5.2576,5.2276,5.2276,5.1618,5.1289,5.1289,5.1229,5.1229,5.8084,0.0,6.052,6.1163,6.1839,6.2381,0.0,6.2381,6.2381,6.2381,6.2381,6.2381,6.2381,6.2381,6.2381,6.2381,6.3228,6.3624,6.2815,0.0,0.0,6.1186,6.0995,6.1057,0.0,0.0,0.0,0.0,0.0,6.1044,6.0356,6.0326,6.0027,5.9368,5.9338,5.9249,5.9099,5.9099,5.886,5.8351,5.7663,5.7004,5.6376,5.5718,5.5329,0.0,0.0,0.0,5.5179,5.5179,5.5179,5.5179,5.5179,5.5179,5.5179,5.5179,5.533,5.5581,5.6047,5.6748,5.7653,5.9209,6.0473,6.1424,6.1709,6.207,6.2381,6.2381,6.2381,6.2381,6.2381,6.2381,6.2381,6.2381,6.2381,6.2381,6.2341,6.2302,6.2229,6.1917,6.1797,6.1635,6.1144,6.0853,6.0525,6.0173,5.9619,5.9222,5.9011,5.8318,5.7715,5.748,5.6844,5.6262,5.5869,5.5431,5.5119,5.497,5.497,5.467,5.3982,5.3952,5.3713,5.3204,5.3025,5.2935,5.2935,5.2276,5.1977,5.1947,5.1439,5.1229,5.7881,5.8964,6.0216,6.0655,6.1569,6.2381,6.2381,6.2381,6.2381,6.2381,6.2381,6.2381,6.2381,6.2381,6.2381,6.2381,6.3228,0.0,0.0,0.0,6.1832,6.1559,6.1172,0.0,0.0,0.0,0.0,0.0,0.0,6.0356,5.9668,5.9638,5.9458,5.9129,5.9099,5.9099,5.9099,5.88,5.8471,5.8112,5.7124,5.6496,5.6188,5.5478,5.5179,0.0,0.0,0.0,5.5179,5.5179,5.5179,5.5179,5.5179,5.5179,5.5179,5.5179,5.5381,5.5681,5.6262,5.7338,5.8683,5.9914,6.0853,6.1588,6.179,6.211,6.2381,6.2381,6.2381,6.2381,6.2381,6.2381,6.2381,6.2381,6.2381,6.2381,6.2381,6.2381,6.2341,6.2189,6.2189,6.207,6.1716,6.1554,6.1391,6.1094,6.0685,6.0355,6.0098,5.9443,5.8863,5.8546,5.7715,5.7036,5.6506,5.5899,5.5431,5.5179,5.5179,5.5029,5.467,5.467,5.4341,5.3653,5.3653,5.3503,5.3174,5.2815,5.2665,5.2636,5.2276,5.2127,5.8017,5.9066,6.0114,6.0114,6.1264,6.2381,6.2381,6.2381,6.2381,6.2381,6.2381,6.2381,6.2381,6.2381,6.2415,6.255,0.0,0.0,6.398,6.3228,6.2604,6.2239,6.1782,0.0,0.0,0.0,0.0,0.0,0.0,5.9697,5.9129,5.9099,5.9099,5.9099,5.9099,5.9069,5.8949,5.8411,5.8022,5.7812,5.6705,5.6188,5.6068,5.5448,5.5179,5.5179,0.0,0.0,5.5179,5.5179,5.5179,5.5179,5.5179,5.5179,5.5179,5.5179,5.5381,5.578,5.6651,5.8194,5.9838,6.0515,6.1219,6.179,6.1957,6.2189,6.2381,6.2381,6.2381,6.2381,6.2381,6.2381,6.2381,6.2381,6.2381,6.2381,6.2381,6.2381,6.2381,6.2381,6.2381,6.2341,6.2076,6.2037,6.1951,6.1588,6.1506,6.1342,6.0969,6.0515,6.0044,5.9531,5.8637,5.7855,5.7275,5.6506,5.58,5.528,5.5229,5.5179,5.5179,5.5179,5.494,5.4371,5.4371,5.4072,5.3503,5.3384,5.3324,5.3324,5.3234,5.3174,5.866,5.9471,6.0114,6.0114,6.1264,6.2381,6.2381,6.2381,6.2381,6.2381,6.2381,6.2381,6.2381,6.2381,6.2584,6.3226,0.0,6.4737,0.0,0.0,6.3595,6.2428,0.0,0.0,0.0,0.0,0.0,0.0,0.0,5.9219,5.9099,5.9099,5.9099,5.9099,5.9099,5.883,5.8291,5.8171,5.7573,5.6466,5.6308,5.5867,5.5329,5.5239,5.5179,5.5179,0.0,5.5179,5.5179,5.5179,5.5179,5.5179,5.5179,5.5179,5.5179,5.5179,5.5531,5.6176,5.7746,5.9165,6.0378,6.0877,6.1465,6.1957,6.1997,6.2189,6.2381,6.2381,6.2381,6.2381,6.2381,6.2381,6.2381,6.2381,6.2381,6.2381,6.2381,6.2381,6.2381,6.2381,6.2381,6.2381,6.2341,6.2341,6.2302,6.2263,6.207,6.1877,6.1797,6.1432,6.1011,6.0548,5.9794,5.8876,5.7762,5.7036,5.6262,5.5581,5.533,5.5179,5.5179,5.5179,5.5149,5.5029,5.5029,5.4999,5.488,5.4311,5.4042,5.4042,5.3443,5.3174,5.8795,5.9539,6.0216,6.0655,6.1569,6.2381,6.2381,6.2381,6.2381,6.2381,6.2381,6.2381,6.2381,6.2381,6.2747,6.3775,0.0,6.5249,6.5248,6.5033,6.4499,0.0,0.0,0.0,0.0,0.0,0.0,0.0,0.0,0.0,5.9099,5.9099,5.9099,5.9099,5.877,5.8261,5.7573,5.7244,5.6765,5.6218,5.5807,5.5478,5.5179,5.5179,5.5179,5.5179,0.0,5.5179,5.5179,5.5179,5.5179,5.5179,5.5179,5.5179,5.5259,5.5531,5.6047,5.6827,5.8257,5.9564,6.0675,6.1252,6.179,6.2229,6.2229,6.2302,6.2381,6.2381,6.2381,6.2381,6.2381,6.2381,6.2381,6.2381,6.2381,6.2381,6.2381,6.2381,6.2381,6.2381,6.2381,6.2381,6.2381,6.2381,6.2381,6.2381,6.2302,6.2229,6.2229,6.1951,6.1595,6.1301,6.06,5.9794,5.8831,5.7995,5.6892,5.5481,5.528,5.5179,5.5179,5.5179,5.5179,5.5179,5.5179,5.5179,5.5179,5.488,5.473,5.473,5.4401,5.4281,5.9032,5.9674,6.0317,6.1298,6.1975,6.2381,6.2381,6.2381,6.2381,6.2381,6.2381,6.2381,6.2381,6.2685,0.0,6.4199,6.5143,6.5791,6.5932,6.578,6.5392,0.0,0.0,0.0,0.0,0.0,0.0,0.0,0.0,0.0,5.9099,5.9099,5.9039,5.889,5.8381,5.7723,5.6885,5.6406,5.6107,5.5927,5.5448,5.5179,5.5179,5.5179,5.5179,5.5179,5.5179,5.5179,5.5179,5.5179,5.5179,5.5179,5.5179,5.5179,5.5229,5.5731,5.639,5.718,5.8318,5.9564,6.0675,6.1383,6.1911,6.2341,6.2381,6.2381,6.2381,6.2381,6.2381,6.2381,6.2381,6.2381,6.2381,6.2381,6.2381,6.2381,6.2381,6.2381,6.2381,6.2381,6.2381,6.2381,6.2381,6.2381,6.2381,6.2381,6.2381,6.2381,6.2381,6.2229,6.1997,6.179,6.1219,6.0473,5.9531,5.8683,5.7464,5.575,5.5431,5.528,5.528,5.5229,5.5179,5.5179,5.5179,5.5179,5.5179,5.5179,5.5179,5.5179,5.5179,5.5179,5.9641,6.0047,6.0452,6.1941,6.2347,6.2381,6.2381,6.2381,6.2381,6.2381,6.2381,6.2381,6.2381,6.3531,6.4478,6.4539,6.5756,6.6618,6.6464,0.0,0.0,0.0,0.0,0.0,0.0,0.0,0.0,0.0,0.0,0.0,5.9099,5.9099,5.883,5.8201,5.8141,5.7513,5.6308,5.6248,5.5867,5.5269,5.5209,5.5179,5.5179,5.5179,5.5179,5.5179,5.5179,5.5179,5.5179,5.5179,5.5179,5.5179,5.5179,5.5179,5.5229,5.5531,5.6096,5.6892,5.7887,5.9043,6.0216,6.1136,6.1709,6.2076,6.2341,6.2381,6.2381,6.2381,6.2381,6.2381,6.2381,6.2381,6.2381,6.2381,6.2381,6.2381,6.2381,6.2381,6.2381,6.2381,6.2381,6.2381,6.2381,6.2381,6.2381,6.2381,6.2381,6.2381,6.2381,6.2381,6.2302,6.1997,6.1595,6.0685,5.9088,5.8487,5.784,5.6988,5.6096,5.5581,5.5581,5.533,5.5179,5.5179,5.5179,5.5179,5.5179,5.5179,5.5179,5.5179,5.5179,5.5179,5.9708,6.0114,6.0452,6.2009,6.2381,6.2381,6.2381,6.2381,6.2381,6.2381,6.2381,6.2381,6.2381,0.0,6.4613,6.4613,6.5831,6.677,6.672,0.0,0.0,0.0,0.0,0.0,0.0,0.0,0.0,0.0,0.0,0.0,5.9099,5.871,5.8381,5.8141,5.7334,5.6675,5.6218,5.5777,5.5448,5.5179,5.5179,5.5179,5.5179,5.5179,5.5179,5.5179,5.5179,5.5179,5.5179,5.5179,5.5179,5.5179,5.5179,5.5179,5.5229,5.5481,5.5948,5.6603,5.7574,5.8637,5.9739,6.0642,6.1383,6.187,6.211,6.2302,6.2381,6.2381,6.2381,6.2381,6.2381,6.2381,6.2381,6.2381,6.2381,6.2381,6.2381,6.2381,6.2381,6.2381,6.2381,6.2381,6.2381,6.2381,6.2381,6.2381,6.2381,6.2381,6.2381,6.2381,6.2341,6.2229,6.183,6.1185,6.0312,5.9663,5.9088,5.8501,5.7053,5.6244,5.6047,5.583,5.5631,5.5431,5.5431,5.5381,5.5179,5.5179,5.5179,5.5179,5.5179,5.5179,5.9708,6.0114,6.0452,6.2009,6.2381,6.2448,6.2685,6.2753,6.2753,6.2753,6.2753,6.2753,6.2753,0.0,0.0,0.0,6.6,6.6812,6.6812,0.0,0.0,0.0,0.0,0.0,0.0,0.0,0.0,0.0,0.0,0.0,0.0,5.8524,5.8022,5.7812,5.6735,5.6128,5.5867,5.5418,5.5179,5.5179,5.5179,5.5179,5.5179,5.5179,5.5179,5.5179,5.5179,5.5179,5.5179,5.5179,5.5179,5.5179,5.5179,5.5179,5.5229,5.5381,5.57,5.6213,5.7101,5.8087,5.9133,6.013,6.1011,6.1669,6.1917,6.2189,6.2381,6.2381,6.2381,6.2381,6.2381,6.2381,6.2381,6.2381,6.2381,6.2381,6.2381,6.2381,6.2381,6.2381,6.2381,6.2381,6.2381,6.2381,6.2381,6.2381,6.2381,6.2381,6.2381,6.2381,6.2381,6.2268,6.1991,6.1595,6.1185,6.0727,6.0216,5.9696,5.8455,5.7433,5.67,5.6488,5.6195,5.5948,5.5948,5.5849,5.5651,5.5651,5.5601,5.5581,5.5581,5.5531,5.9708,6.0114,6.0452,6.2009,6.2381,6.2584,6.3328,6.3531,6.3531,6.3531,6.3531,6.3531,6.3531,6.4106,0.0,6.5561,6.6305,6.6812,0.0,0.0,0.0,0.0,0.0,0.0,0.0,0.0,0.0,0.0,0.0,0.0,0.0,5.8631,5.7812,5.7094,5.6496,5.5837,5.5209,5.5179,5.5179,5.5179,5.5179,5.5179,5.5179,5.5179,5.5179,5.5179,5.5179,5.5179,5.5179,5.5179,5.5179,5.5179,5.5179,5.5179,5.5179,5.5179,5.5381,5.5731,5.6488,5.737,5.8395,5.9608,6.0642,6.1465,6.1877,6.2189,6.2381,6.2381,6.2381,6.2381,6.2381,6.2381,6.2381,6.2381,6.2381,6.2381,6.2381,6.2381,6.2381,6.2381,6.2381,6.2381,6.2381,6.2381,6.2381,6.2381,6.2381,6.2381,6.2381,6.2381,6.2302,6.2037,6.1997,6.1837,6.1424,6.1383,6.1136,6.0463,6.013,5.9266,5.759,5.7227,5.6988,5.67,5.67,5.67,5.67,5.67,5.6554,5.6311,5.6311,5.6164,5.9708,6.0114,6.0452,6.2009,6.2381,6.2584,6.3328,6.3531,6.3666,6.4174,6.4275,6.4275,6.4275,6.4884,0.0,6.5662,6.6305,6.6812,0.0,0.0,0.0,0.0,0.0,0.0,0.0,0.0,0.0,0.0,0.0,0.0,0.0,5.8256,5.7333,5.6466,5.5837,5.5388,5.5179,5.5179,5.5179,5.5179,5.5179,5.5179,5.5179,5.5179,5.5179,5.5179,5.5179,5.5179,5.5179,5.5179,5.5179,5.5179,5.5179,5.5179,5.5179,5.5179,5.5481,5.5979,5.6506,5.737,5.8395,5.9431,6.0388,6.1227,6.1635,6.207,6.2381,6.2381,6.2381,6.2381,6.2381,6.2381,6.2381,6.2381,6.2381,6.2381,6.2381,6.2381,6.2381,6.2381,6.2381,6.2381,6.2381,6.2381,6.2381,6.2381,6.2381,6.2381,6.2381,6.2381,6.2381,6.2302,6.2268,6.2263,6.2104,6.1951,6.1676,6.1342,6.1136,6.0302,5.8805,5.8532,5.818,5.7793,5.7746,5.7606,5.7196,5.7196,5.7149,5.7101,5.7101,5.7053,5.9671,6.0114,6.0452,6.2009,6.2381,6.2651,6.37,6.4174,6.4512,6.4952,6.5019,6.5019,6.5019,6.5392,0.0,6.6102,6.6508,0.0,0.0,0.0,0.0,0.0,0.0,0.0,0.0,0.0,0.0,0.0,0.0,0.0,0.0,5.8213,5.7166,5.6248,5.5538,5.5179,5.5179,5.5179,5.5179,5.5179,5.5179,5.5179,5.5179,5.5179,5.5179,5.5179,5.5179,5.5179,5.5179,5.5179,5.5179,5.5179,5.5179,5.5179,5.5179,5.5179,5.5481,5.5929,5.636,5.7275,5.8349,5.9343,6.0312,6.1227,6.1676,6.207,6.2381,6.2381,6.2381,6.2381,6.2381,6.2381,6.2381,6.2381,6.2381,6.2381,6.2381,6.2381,6.2381,6.2381,6.2381,6.2381,6.2381,6.2381,6.2381,6.2381,6.2381,6.2381,6.2381,6.2381,6.2381,6.2381,6.2381,6.2381,6.2381,6.2229,6.207,6.183,6.1709,6.1227,6.0302,5.987,5.9399,5.9043,5.9043,5.8908,5.856,5.856,5.8469,5.8286,5.8286,5.8148,5.9569,6.0047,6.0452,6.1907,6.2448,6.2956,6.4275,6.5222,6.5797,6.5797,6.5797,6.5797,6.5797,6.5797,6.6,6.6711,0.0,0.0,0.0,0.0,0.0,0.0,0.0,0.0,0.0,0.0,0.0,0.0,0.0,0.0,0.0,5.8389,5.7187,5.6158,5.5508,5.5179,5.5179,5.5179,5.5179,5.5179,5.5179,5.5179,5.5179,5.5179,5.5179,5.5179,5.5179,5.5179,5.5179,5.5179,5.5179,5.5179,5.5179,5.5179,5.5179,5.5179,5.5381,5.5731,5.6164,5.7149,5.8349,5.9311,6.0397,6.1465,6.1837,6.2189,6.2381,6.2381,6.2381,6.2381,6.2381,6.2381,6.2381,6.2381,6.2381,6.2381,6.2381,6.2381,6.2381,6.2381,6.2381,6.2381,6.2381,6.2381,6.2381,6.2381,6.2381,6.2381,6.2381,6.2381,6.2381,6.2381,6.2381,6.2381,6.2381,6.2381,6.2302,6.2037,6.2037,6.1957,6.175,6.1136,6.0642,6.0397,6.0397,6.0397,6.0355,6.0355,6.0141,5.9718,5.9718,5.9487,5.8923,5.9674,6.0317,6.1298,6.2854,6.4208,6.4546,6.5628,6.6576,6.6576,6.6576,6.6576,6.6576,6.6576,6.6643,6.6779,0.0,0.0,0.0,0.0,0.0,0.0,0.0,0.0,0.0,0.0,0.0,0.0,0.0,0.0,5.9458,5.8451,5.7181,5.5499,5.5269,5.5179,5.5179,5.5179,5.5179,0.0,5.5179,5.5179,5.5179,5.5179,5.5179,5.5179,5.5179,5.5179,5.5179,5.5179,5.5179,5.5179,5.5179,5.5179,5.5179,5.5179,5.5481,5.5979,5.6457,5.7322,5.8349,5.9375,6.0302,6.1185,6.1628,6.203,6.2381,6.2381,6.2381,6.2381,6.2381,6.2381,6.2381,6.2381,6.2381,6.2381,6.2381,6.2381,6.2381,6.2381,6.2381,6.2381,6.2381,6.2381,6.2381,6.2381,6.2381,6.2381,6.2381,6.2381,6.2381,6.2381,6.2381,6.2381,6.2381,6.2381,6.2381,6.2341,6.2341,6.2302,6.2263,6.175,6.1383,6.1177,6.1144,6.1061,6.0861,6.0861,6.0778,6.0694,6.0694,6.0652,5.847,5.9464,6.0385,6.1535,6.3226,6.4613,6.4613,6.573,6.6812,6.6812,6.6812,6.6812,6.6812,6.6812,6.6812,0.0,0.0,0.0,0.0,0.0,0.0,0.0,0.0,0.0,0.0,0.0,0.0,0.0,0.0,6.1897,5.9537,5.8511,5.7172,5.5289,5.5179,5.5179,5.5179,5.5179,5.5179,5.5179,5.5179,5.5179,5.5179,5.5179,5.5179,5.5179,5.5179,5.5179,5.5179,5.5179,5.5179,5.5179,5.5179,5.5179,5.5179,5.5179,5.5431,5.588,5.636,5.718,5.8211,5.9298,6.0226,6.1111,6.1676,6.211,6.2381,6.2381,6.2381,6.2381,6.2381,6.2381,6.2381,6.2381,6.2381,6.2381,6.2381,6.2381,6.2381,6.2381,6.2381,6.2381,6.2381,6.2381,6.2381,6.2381,6.2381,6.2381,6.2381,6.2381,6.2381,6.2381,6.2381,6.2381,6.2381,6.2381,6.2381,6.2381,6.2381,6.2381,6.2381,6.2183,6.1984,6.187,6.187,6.179,6.1676,6.1676,6.1595,6.148,6.148,6.1432,5.7696,5.9035,6.03,6.1761,6.3288,6.437,6.441,6.5561,6.6609,6.6609,6.6711,6.6812,6.6812,6.6812,6.6812,0.0,0.0,0.0,0.0,0.0,0.0,0.0,0.0,0.0,0.0,0.0,0.0,0.0,0.0,6.222,5.9937,5.8693,5.7253,5.549,5.5289,5.5179,5.5179,5.5179,5.5179,5.5179,5.5179,5.5179,5.5179,5.5179,5.5179,5.5179,5.5179,5.5179,5.5179,5.5179,5.5179,5.5179,5.5179,5.5179,5.5179,5.5179,5.5381,5.5681,5.6066,5.6892,5.7855,5.9043,6.0054,6.0945,6.1676,6.211,6.2341,6.2381,6.2381,6.2381,6.2381,6.2381,6.2381,6.2381,6.2381,6.2381,6.2381,6.2381,6.2381,6.2381,6.2381,6.2381,6.2381,6.2381,6.2381,6.2381,6.2381,6.2381,6.2381,6.2381,6.2381,6.2381,6.2381,6.2381,6.2381,6.2381,6.2381,6.2381,6.2381,6.2381,6.2381,6.2381,6.2381,6.2381,6.2381,6.2381,6.2381,6.2381,6.2302,6.2076,6.2076,6.1991,5.5691,5.7614,5.9616,6.0881,6.2272,6.3424,6.3626,6.4783,6.5831,0.0,6.6373,6.6812,6.6812,6.6812,0.0,0.0,0.0,0.0,0.0,0.0,0.0,0.0,0.0,0.0,0.0,0.0,0.0,0.0,6.4175,6.2684,6.0872,5.9271,5.777,5.6455,5.563,5.5179,5.5179,5.5179,5.5179,5.5179,5.5179,5.5179,5.5179,5.5179,5.5179,5.5179,5.5179,5.5179,5.5179,5.5179,5.5179,5.5179,5.5179,5.5179,5.5179,5.5179,5.5381,5.5631,5.5869,5.6506,5.737,5.8395,5.9387,6.0302,6.1219,6.175,6.207,6.2341,6.2381,6.2381,6.2381,6.2381,6.2381,6.2381,6.2381,6.2381,6.2381,6.2381,6.2381,6.2381,6.2381,6.2381,6.2381,6.2381,6.2381,6.2381,6.2381,6.2381,6.2381,6.2381,6.2381,6.2381,6.2381,6.2381,6.2381,6.2381,6.2381,6.2381,6.2381,6.2381,6.2381,6.2381,6.2381,6.2381,6.2381,6.2381,6.2381,6.2381,6.2381,6.2341,6.2341,6.2341,5.533,5.6756,5.8084,5.9958,6.1327,6.2393,6.3155,6.4146,6.4964,6.5087,6.5358,6.5831,6.6677,6.6812,0.0,0.0,0.0,0.0,0.0,0.0,0.0,0.0,0.0,0.0,0.0,0.0,0.0,0.0,6.4545,6.3146,6.1291,5.9892,5.84,5.6657,5.605,5.5568,5.5179,5.5179,5.5179,5.5179,5.5179,5.5179,5.5179,5.5179,5.5179,5.5179,5.5179,5.5179,5.5179,5.5179,5.5179,5.5179,5.5179,5.5179,5.5179,5.5179,5.528,5.5431,5.5651,5.6145,5.6844,5.784,5.8818,5.9751,6.0727,6.1383,6.187,6.211,6.2268,6.2381,6.2381,6.2381,6.2381,6.2381,6.2381,6.2381,6.2381,6.2381,6.2381,6.2381,6.2381,6.2381,6.2381,6.2381,6.2381,6.2381,6.2381,6.2381,6.2381,6.2381,6.2381,6.2381,6.2381,6.2381,6.2381,6.2381,6.2381,6.2381,6.2381,6.2381,6.2381,6.2381,6.2381,6.2381,6.2381,6.2381,6.2381,6.2381,6.2381,6.2381,6.2381,6.2381,5.4194,5.5317,5.6301,5.8338,5.9845,6.1052,6.2144,6.3146,6.39,0.0,6.4397,6.4911,6.6034,0.0,0.0,0.0,0.0,0.0,0.0,0.0,0.0,0.0,0.0,0.0,0.0,0.0,0.0,0.0,6.5033,6.3728,6.1949,6.0764,5.9143,5.7102,5.6564,5.5969,5.5209,5.5179,5.5179,5.5179,5.5179,5.5179,5.5179,5.5179,5.5179,5.5179,5.5179,5.5179,5.5179,5.5179,5.5179,5.5179,5.5179,5.5179,5.5179,5.5179,5.5179,5.5229,5.5431,5.575,5.6262,5.7196,5.8133,5.9133,6.0216,6.0978,6.1595,6.1917,6.2189,6.2381,6.2381,6.2381,6.2381,6.2381,6.2381,6.2381,6.2381,6.2381,6.2381,6.2381,6.2381,6.2381,6.2381,6.2381,6.2381,6.2381,6.2381,6.2381,6.2381,6.2381,6.2381,6.2381,6.2381,6.2381,6.2381,6.2381,6.2381,6.2381,6.2381,6.2381,6.2381,6.2381,6.2381,6.2381,6.2381,6.2381,6.2381,6.2381,6.2381,6.2381,6.2381,6.2381,5.1078,5.273,5.4465,5.5466,5.746,5.9287,6.0018,0.0,6.2716,6.3201,6.3822,6.4409,6.4674,0.0,0.0,0.0,0.0,0.0,0.0,0.0,0.0,0.0,0.0,0.0,0.0,0.0,0.0,0.0,6.5404,6.4512,6.3419,6.1851,6.011,5.8329,5.7213,5.6143,5.5209,5.5179,5.5179,5.5179,5.5179,5.5179,5.5179,5.5179,5.5179,5.5179,5.5179,5.5179,5.5179,5.5179,5.5179,5.5179,5.5179,5.5179,5.5179,5.5179,5.5179,5.5179,5.5229,5.5381,5.578,5.6506,5.7275,5.8133,5.9575,6.0482,6.1152,6.1837,6.2189,6.2381,6.2381,6.2381,6.2381,6.2381,6.2381,6.2381,6.2381,6.2381,6.2381,6.2381,6.2381,6.2381,6.2381,6.2381,6.2381,6.2381,6.2381,6.2381,6.2381,6.2381,6.2381,6.2381,6.2381,6.2381,6.2381,6.2381,6.2381,6.2381,6.2381,6.2381,6.2381,6.2381,6.2381,6.2381,6.2381,6.2381,6.2381,6.2381,6.2381,6.2381,6.2381,6.2381,4.9305,5.0476,5.1947,5.3904,5.5134,5.6445,5.8642,5.9699,6.052,6.1434,6.2024,6.2606,0.0,0.0,0.0,0.0,0.0,0.0,0.0,0.0,0.0,0.0,0.0,0.0,0.0,0.0,0.0,0.0,0.0,6.5078,6.4081,6.2635,6.1064,5.9358,5.7952,5.6594,5.5209,5.5179,5.5179,5.5179,5.5179,5.5179,5.5179,5.5179,5.5179,5.5179,5.5179,5.5179,5.5179,5.5179,5.5179,5.5179,5.5179,5.5179,5.5179,5.5179,5.5179,5.5179,5.5179,5.5381,5.5681,5.6066,5.6844,5.7793,5.8805,5.9914,6.0894,6.1432,6.1991,6.2381,6.2381,6.2381,6.2381,6.2381,6.2381,6.2381,6.2381,6.2381,6.2381,6.2381,6.2381,6.2381,6.2381,6.2381,6.2381,6.2381,6.2381,6.2381,6.2381,6.2381,6.2381,6.2381,6.2381,6.2381,6.2381,6.2381,6.2381,6.2381,6.2381,6.2381,6.2381,6.2381,6.2381,6.2381,6.2381,6.2381,6.2381,6.2381,6.2381,6.2381,6.2381,6.2381,4.7751,4.8622,4.9755,5.2094,5.3133,5.4289,5.6765,5.7689,5.8421,5.9736,6.0238,6.0762,0.0,0.0,0.0,0.0,0.0,0.0,0.0,0.0,0.0,0.0,0.0,0.0,0.0,0.0,0.0,0.0,0.0,0.0,6.4591,6.3292,6.1608,5.9625,5.7971,5.6612,5.5538,5.5299,5.5179,5.5179,5.5179,5.5179,5.5179,5.5179,5.5179,5.5179,5.5179,5.5179,5.5179,5.5179,5.5179,5.5179,5.5179,5.5179,5.5179,5.5179,5.5179,5.5179,5.5179,5.533,5.5481,5.575,5.6457,5.737,5.8211,5.9476,6.0685,6.126,6.187,6.2381,6.2381,6.2381,6.2381,6.2381,6.2381,6.2381,6.2381,6.2381,6.2381,6.2381,6.2381,6.2381,6.2381,6.2381,6.2381,6.2381,6.2381,6.2381,6.2381,6.2381,6.2381,6.2381,6.2381,6.2381,6.2381,6.2381,6.2381,6.2381,6.2381,6.2381,6.2381,6.2381,6.2381,6.2381,6.2381,6.2381,6.2381,6.2381,6.2381,6.2381,6.2381,6.2381,0.0,0.0,0.0,4.9822,0.0,0.0,5.441,0.0,5.655,5.8184,5.8518,5.8993,0.0,0.0,0.0,0.0,0.0,0.0,0.0,0.0,0.0,0.0,0.0,0.0,0.0,0.0,0.0,0.0,6.6388,6.579,6.5045,6.3768,6.1806,5.9088,5.7196,5.6248,5.6218,5.5538,5.5209,5.5179,5.5179,5.5179,5.5179,5.5179,5.5179,5.5179,5.5179,5.5179,5.5179,5.5179,5.5179,5.5179,5.5179,5.5179,5.5179,5.5179,5.5179,5.5179,5.5179,5.5179,5.5229,5.5481,5.6096,5.6892,5.7887,5.9177,6.044,6.1177,6.187,6.2381,6.2381,6.2381,6.2381,6.2381,6.2381,6.2381,6.2381,6.2381,6.2381,6.2381,6.2381,6.2381,6.2381,6.2381,6.2381,6.2381,6.2381,6.2381,6.2381,6.2381,6.2381,6.2381,6.2381,6.2381,6.2381,6.2381,6.2381,6.2381,6.2381,6.2381,6.2381,6.2381,6.2381,6.2381,6.2381,6.2381,6.2381,6.2381,6.2381,6.2381,6.2381,6.2381,4.5477,0.0,0.0,0.0,0.0,0.0,0.0,0.0,5.4708,5.5817,5.6892,5.7707,0.0,0.0,0.0,0.0,0.0,0.0,0.0,0.0,0.0,0.0,0.0,0.0,0.0,0.0,0.0,0.0,6.6657,6.579,6.5045,6.2907,6.0885,5.9036,5.8098,5.7124,5.6248,5.6038,5.5658,5.5179,5.5179,5.5179,5.5179,5.5179,5.5179,5.5179,5.5179,5.5179,5.5179,5.5179,5.5179,5.5179,5.5179,5.5179,5.5179,5.5179,5.5179,5.5179,5.5179,5.5179,5.5179,5.528,5.58,5.6554,5.7386,5.8651,6.0011,6.0861,6.1595,6.215,6.2341,6.2381,6.2381,6.2381,6.2381,6.2381,6.2381,6.2381,6.2381,6.2381,6.2381,6.2381,6.2381,6.2381,6.2381,6.2381,6.2381,6.2381,6.2381,6.2381,6.2381,6.2381,6.2381,6.2381,6.2381,6.2381,6.2381,6.2381,6.2381,6.2381,6.2381,6.2381,6.2381,6.2381,6.2381,6.2381,6.2381,6.2381,6.2381,6.2381,6.2381,6.2381,4.5544,4.6022,4.6651,4.8113,0.0,0.0,5.1258,5.2048,0.0,0.0,5.5038,0.0,0.0,0.0,0.0,0.0,0.0,0.0,0.0,0.0,0.0,0.0,0.0,0.0,0.0,6.9113,6.8267,6.7929,6.6705,6.5359,6.3955,6.2171,6.0578,5.9221,5.8474,5.7633,5.6555,5.6368,5.5837,5.5179,5.5179,5.5179,5.5179,5.5179,5.5179,5.5179,5.5179,5.5179,5.5179,5.5179,5.5179,5.5179,5.5179,5.5179,5.5179,5.5179,5.5179,5.5179,5.5179,5.5179,5.5179,5.5179,5.57,5.6409,5.7053,5.8378,5.9794,6.0609,6.1513,6.2189,6.2341,6.2381,6.2381,6.2381,6.2381,6.2381,6.2381,6.2381,6.2381,6.2381,6.2381,6.2381,6.2381,6.2381,6.2381,6.2381,6.2381,6.2381,6.2381,6.2381,6.2381,6.2381,6.2381,6.2381,6.2381,6.2381,6.2381,6.2381,6.2381,6.2381,6.2381,6.2381,6.2381,6.2381,6.2381,6.2381,6.2381,6.2381,6.2381,6.2381,6.2381,6.2381,4.6142,4.6279,4.6621,4.7878,4.8237,0.0,5.0125,5.0502,5.1061,0.0,0.0,0.0,0.0,0.0,0.0,0.0,0.0,0.0,0.0,0.0,0.0,0.0,0.0,0.0,7.0039,6.9296,6.8586,6.792,6.6487,6.4682,6.2418,6.1551,6.0659,5.9529,5.8637,5.7902,5.7214,5.6675,5.6017,5.5299,5.5299,5.5269,5.5179,5.5179,5.5179,5.5179,5.5179,5.5179,5.5179,5.5179,5.5179,5.5179,5.5179,5.5179,5.5179,5.5179,5.5179,5.5179,5.5179,5.5179,5.5179,5.5179,5.5651,5.6311,5.6892,5.8226,5.9663,6.0515,6.1547,6.2381,6.2381,6.2381,6.2381,6.2381,6.2381,6.2381,6.2381,6.2381,6.2381,6.2381,6.2381,6.2381,6.2381,6.2381,6.2381,6.2381,6.2381,6.2381,6.2381,6.2381,6.2381,6.2381,6.2381,6.2381,6.2381,6.2381,6.2381,6.2381,6.2381,6.2381,6.2381,6.2381,6.2381,6.2381,6.2381,6.2381,6.2381,6.2381,6.2381,6.2381,6.2381,6.2381,4.6142,4.6279,4.6501,4.7309,4.7908,0.0,4.9374,4.9944,5.0543,0.0,0.0,0.0,0.0,0.0,0.0,0.0,0.0,0.0,0.0,0.0,0.0,0.0,0.0,0.0,6.8708,6.8037,6.7621,6.7627,6.5924,6.4096,6.2418,6.143,6.0481,5.9529,5.9141,5.859,5.7932,5.7812,5.7154,5.5987,5.5987,5.5718,5.5179,5.5179,5.5179,5.5179,5.5179,5.5179,5.5179,5.5179,5.5179,5.5179,5.5179,5.5179,5.5179,5.5179,5.5179,5.5179,5.5179,5.5179,5.5179,5.5179,5.5431,5.5899,5.6796,5.7746,5.8863,6.0727,6.179,6.2381,6.2381,6.2381,6.2381,6.2381,6.2381,6.2381,6.2381,6.2381,6.2381,6.2381,6.2381,6.2381,6.2381,6.2381,6.2381,6.2381,6.2381,6.2381,6.2381,6.2381,6.2381,6.2381,6.2381,6.2381,6.2381,6.2381,6.2381,6.2381,6.2381,6.2381,6.2381,6.2381,6.2381,6.2381,6.2381,6.2381,6.2381,6.2381,6.2381,6.2381,6.2381,6.2381,4.6711,4.68,4.689,4.7219,0.0,0.0,0.0,4.9523,5.0032,5.102,5.1563,5.1987,0.0,0.0,0.0,0.0,0.0,0.0,0.0,0.0,0.0,0.0,0.0,0.0,6.7978,6.7278,6.6668,6.6213,6.497,6.3578,6.1972,6.1072,6.0219,5.9315,5.9153,5.88,5.8141,5.8112,5.7633,5.6645,5.6645,5.6466,5.6137,5.6137,5.5957,5.5688,5.5688,5.5508,5.5179,5.5179,5.5179,5.5179,5.5179,5.5179,5.5179,5.5179,5.5179,5.5179,5.5179,5.5179,5.5229,5.533,5.5581,5.5979,5.6827,5.8087,5.9531,6.0978,6.187,6.2381,6.2381,6.2381,6.2381,6.2381,6.2381,6.2381,6.2381,6.2381,6.2381,6.2381,6.2381,6.2381,6.2381,6.2381,6.2381,6.2381,6.2381,6.2381,6.2381,6.2381,6.2381,6.2381,6.2381,6.2381,6.2381,6.2381,6.2381,6.2381,6.2381,6.2381,6.2381,6.2381,6.2381,6.2381,6.2381,6.2381,6.2381,6.2381,6.2381,6.2381,6.2381,6.2381,4.7519,4.7489,4.7459,0.0,0.0,4.7638,0.0,0.0,0.0,5.096,0.0,0.0,0.0,0.0,0.0,0.0,0.0,0.0,0.0,0.0,0.0,0.0,0.0,0.0,0.0,6.6311,6.5614,6.4551,6.4067,6.3132,6.1551,6.0763,6.0008,5.9099,5.9099,5.886,5.8321,5.8321,5.7962,5.7304,5.7304,5.7214,5.7094,5.7094,5.6765,5.6218,5.6218,5.5807,5.5179,5.5179,5.5179,5.5179,5.5179,5.5179,5.5179,5.5179,5.5179,5.5179,5.5179,5.5229,5.528,5.5531,5.5929,5.6439,5.7132,5.8818,6.0515,6.1219,6.187,6.2381,6.2381,6.2381,6.2381,6.2381,6.2381,6.2381,6.2381,6.2381,6.2381,6.2381,6.2381,6.2381,6.2381,6.2381,6.2381,6.2381,6.2381,6.2381,6.2381,6.2381,6.2381,6.2381,6.2381,6.2381,6.2381,6.2381,6.2381,6.2381,6.2381,6.2381,6.2381,6.2381,6.2381,6.2381,6.2381,6.2381,6.2381,6.2381,6.2381,6.2381,6.2381,6.2381,0.0,0.0,0.0,0.0,4.7309,0.0,0.0,0.0,4.9689,5.096,0.0,0.0,0.0,0.0,0.0,0.0,0.0,0.0,0.0,0.0,0.0,0.0,0.0,0.0,0.0,6.4197,6.4319,6.377,6.3595,6.289,6.1328,6.0711,6.0008,5.9099,5.9099,5.9069,5.9009,5.9009,5.865,5.8022,5.8022,5.7693,5.7094,5.7094,5.6765,5.6218,5.6218,5.5807,5.5179,5.5179,5.5179,5.5179,5.5179,5.5179,5.5179,5.5179,5.5179,5.5179,5.5179,5.533,5.5581,5.5581,5.639,5.7495,5.8243,5.9476,6.076,6.126,6.187,6.2381,6.2381,6.2381,6.2381,6.2381,6.2381,6.2381,6.2381,6.2381,6.2381,6.2381,6.2381,6.2381,6.2381,6.2381,6.2381,6.2381,6.2381,6.2381,6.2381,6.2381,6.2381,6.2381,6.2381,6.2381,6.2381,6.2381,6.2381,6.2381,6.2381,6.2381,6.2381,6.2381,6.2381,6.2381,6.2381,6.2381,6.2381,6.2381,6.2381,6.2381,6.2381,6.2381,0.0,0.0,0.0,0.0,0.0,0.0,4.9523,0.0,4.9689,0.0,0.0,0.0,0.0,0.0,0.0,0.0,0.0,0.0,0.0,0.0,0.0,0.0,0.0,0.0,0.0,0.0,0.0,0.0,6.1772,6.1325,6.0352,6.0028,5.9636,5.9099,5.9099,5.9099,5.9099,5.9099,5.8979,5.868,5.868,5.853,5.8261,5.8261,5.7902,5.7274,5.6885,5.6346,5.5718,5.5359,5.5179,5.5179,5.5179,5.5179,5.5179,5.5179,5.5179,5.5179,5.5179,5.5381,5.5681,5.6293,5.7227,5.8243,5.8837,5.987,6.0936,6.1301,6.187,6.2381,6.2381,6.2381,6.2381,6.2381,6.2381,6.2381,6.2381,6.2381,6.2381,6.2381,6.2381,6.2381,6.2381,6.2381,6.2381,6.2381,6.2381,6.2381,6.2381,6.2381,6.2381,6.2381,6.2381,6.2381,6.2381,6.2381,6.2381,6.2381,6.2381,6.2381,6.2381,6.2381,6.2381,6.2381,6.2381,6.2381,6.2381,6.2381,6.2381,6.2381,6.2381,6.2381,4.9583,0.0,0.0,0.0,0.0,0.0,0.0,0.0,0.0,0.0,0.0,0.0,0.0,0.0,0.0,0.0,0.0,0.0,0.0,0.0,0.0,0.0,0.0,0.0,0.0,0.0,0.0,0.0,0.0,5.9892,5.9369,5.9318,5.9098,5.883,5.9009,5.9099,5.9099,5.9099,5.9099,5.9099,5.9099,5.9099,5.9099,5.9099,5.874,5.8082,5.7393,5.6735,5.6188,5.5478,5.5179,5.5179,5.5179,5.5179,5.5179,5.5179,5.5229,5.528,5.528,5.5631,5.6195,5.7275,5.8165,5.8895,5.9476,6.0345,6.1185,6.1473,6.1951,6.2381,6.2381,6.2381,6.2381,6.2381,6.2381,6.2448,6.2651,6.2516,6.2448,6.2651,6.2516,6.2381,6.2381,6.2381,6.2381,6.2381,6.2381,6.2381,6.2381,6.2381,6.2381,6.2381,6.2381,6.2381,6.2381,6.2381,6.2381,6.2381,6.2381,6.2381,6.2381,6.2381,6.2381,6.2381,6.2381,6.2381,6.2381,6.2381,6.2381,6.2381,6.2381,6.2381,0.0,0.0,0.0,4.9434,0.0,0.0,0.0,0.0,5.0345,0.0,0.0,0.0,0.0,0.0,0.0,5.1259,0.0,0.0,0.0,0.0,0.0,0.0,0.0,0.0,0.0,0.0,0.0,0.0,0.0,0.0,5.844,5.8546,5.8467,5.8171,5.877,5.9099,5.9099,5.9099,5.9099,5.9099,5.9099,5.9099,5.9099,5.9099,5.874,5.8082,5.7393,5.6735,5.6188,5.5478,5.5179,5.5179,5.5179,5.5179,5.5179,5.5179,5.5381,5.5581,5.5581,5.6244,5.7275,5.8518,5.9107,5.9464,6.0378,6.1011,6.1465,6.1877,6.2189,6.2381,6.2381,6.2381,6.2381,6.2381,6.2381,6.2584,6.3328,6.2888,6.2618,6.3328,6.2888,6.2381,6.2381,6.2381,6.2381,6.2381,6.2381,6.2381,6.2381,6.2381,6.2381,6.2381,6.2381,6.2381,6.2381,6.2381,6.2381,6.2381,6.2381,6.2381,6.2381,6.2381,6.2381,6.2381,6.2381,6.2381,6.2381,6.2381,6.2381,6.2381,6.2381,6.2381,0.0,0.0,5.084,5.0631,0.0,0.0,0.0,0.0,0.0,0.0,0.0,0.0,0.0,0.0,0.0,5.1229,0.0,0.0,0.0,0.0,0.0,0.0,0.0,0.0,0.0,0.0,0.0,0.0,5.7392,0.0,0.0,5.7458,5.7558,5.7453,5.7663,5.7782,5.7782,5.7782,5.7782,5.7782,5.7782,5.7782,5.7782,5.7782,5.7663,5.7423,5.7184,5.6974,5.6765,5.6526,5.6466,5.6406,5.6017,5.5837,5.5777,5.5359,5.5381,5.5681,5.639,5.7132,5.8026,5.9043,5.9783,6.0345,6.0969,6.1465,6.1837,6.1957,6.2189,6.2381,6.2381,6.2381,6.2516,6.3024,6.3125,6.3328,6.4072,6.4038,6.3937,6.4174,6.4038,6.37,6.3226,6.3125,6.2956,6.2448,6.2381,6.2381,6.2381,6.2381,6.2381,6.2381,6.2381,6.2381,6.2381,6.2381,6.2381,6.2381,6.2381,6.2381,6.2381,6.2381,6.2381,6.2381,6.2381,6.2381,6.2381,6.2381,6.2381,6.2381,6.2381,6.2381,5.1229,5.1229,0.0,5.1229,5.09,0.0,5.1109,0.0,0.0,0.0,0.0,0.0,0.0,0.0,0.0,0.0,0.0,0.0,0.0,5.1588,0.0,0.0,0.0,0.0,0.0,0.0,5.5731,5.5979,5.6123,0.0,0.0,0.0,5.6765,5.6765,5.6974,5.7094,5.7094,5.7094,5.7094,5.7094,5.7094,5.7094,5.7094,5.7094,5.7094,5.7094,5.6855,5.6885,5.7064,5.6855,5.6885,5.7064,5.6645,5.6496,5.6406,5.5508,5.5531,5.6145,5.7227,5.8087,5.8863,5.9794,6.0515,6.1053,6.1506,6.1797,6.2037,6.215,6.2302,6.2381,6.2381,6.2584,6.2922,6.3396,6.37,6.4106,6.4816,6.4783,6.4681,6.4952,6.4783,6.4444,6.3971,6.3903,6.3565,6.255,6.2381,6.2381,6.2381,6.2381,6.2381,6.2381,6.2381,6.2381,6.2381,6.2381,6.2381,6.2381,6.2381,6.2381,6.2381,6.2381,6.2381,6.2381,6.2381,6.2381,6.2381,6.2381,6.2381,6.2381,6.2381,6.2381]}]]